AXGD555 Flymaster F1, V1.21, S/N 749
HFDTE280212
HOPLTPILOT: SOFI
HOGTYGLIDERTYPE: NIVIUK
HOGIDGLIDERID: PEAK2
HODTM100GPSDATUM: WGS-84
HOCIDCOMPETITIONID: 
HOCCLCOMPETITION CLASS: SERIAL
HOSITSite: ALGODONALES
B1202323653724N00523665WA0096700888
B1202333653732N00523637WA0096700936
B1202343653734N00523623WA0096800960
B1202353653727N00523623WA0096900973
B1202363653719N00523624WA0096900993
B1202373653725N00523616WA0096901023
B1202383653738N00523604WA0096801033
B1202393653743N00523609WA0096601063
B1202403653745N00523614WA0096601061
B1202413653748N00523619WA0097001063
B1202423653743N00523618WA0097201064
B1202433653715N00523601WA0097301046
B1202463653759N00523664WA0098000000
B1202473653744N00523726WA0098200869
B1202483653725N00523741WA0098100877
B1202493653718N00523736WA0098100894
B1202503653728N00523692WA0098300914
B1202513653727N00523699WA0098400964
B1202533653729N00523680WA0098800000
B1202543653738N00523646WA0098900936
B1202553653747N00523630WA0099000998
B1202563653755N00523623WA0099201029
B1202573653757N00523626WA0099501047
B1202583653758N00523631WA0099901057
B1202593653759N00523635WA0100101060
B1203003653760N00523639WA0100201062
B1203013653762N00523644WA0100301064
B1203023653761N00523654WA0100401066
B1203033653757N00523662WA0100501068
B1203043653750N00523668WA0100501070
B1203053653743N00523668WA0100501071
B1203063653737N00523666WA0100401071
B1203073653734N00523656WA0100501073
B1203083653736N00523644WA0100501076
B1203093653739N00523636WA0100601078
B1203103653743N00523631WA0100601079
B1203113653749N00523629WA0100501079
B1203123653757N00523628WA0100501079
B1203133653762N00523631WA0100601080
B1203143653767N00523634WA0100801082
B1203153653770N00523636WA0101001083
B1203163653769N00523640WA0101101082
B1203173653766N00523646WA0101201083
B1203183653764N00523650WA0101201084
B1203193653762N00523654WA0101201085
B1203203653762N00523657WA0100901087
B1203213653762N00523660WA0100901088
B1203223653764N00523666WA0100901089
B1203233653766N00523672WA0101001090
B1203243653769N00523678WA0101101090
B1203253653774N00523680WA0101301090
B1203263653780N00523677WA0101401091
B1203273653784N00523675WA0101301092
B1203283653788N00523673WA0101001093
B1203293653792N00523669WA0100701094
B1203303653795N00523663WA0100601095
B1203313653796N00523655WA0100501096
B1203323653797N00523649WA0100501096
B1203333653794N00523646WA0100501096
B1203343653791N00523640WA0100301097
B1203353653789N00523632WA0100301097
B1203363653786N00523625WA0100601097
B1203373653782N00523621WA0100901097
B1203383653779N00523620WA0101201098
B1203393653776N00523623WA0101301099
B1203403653778N00523627WA0101101100
B1203413653780N00523632WA0101101101
B1203423653783N00523636WA0101101101
B1203433653790N00523630WA0101201101
B1203443653795N00523628WA0101201101
B1203453653800N00523626WA0101001102
B1203463653805N00523624WA0100901102
B1203473653810N00523621WA0100701101
B1203483653815N00523618WA0100701101
B1203493653819N00523615WA0100801101
B1203503653821N00523608WA0100901101
B1203513653822N00523600WA0101201101
B1203523653821N00523593WA0101501101
B1203533653816N00523593WA0101801101
B1203543653813N00523593WA0102301102
B1203553653810N00523594WA0102701103
B1203563653803N00523599WA0102801103
B1203573653796N00523601WA0102901104
B1203583653792N00523601WA0103201105
B1203593653790N00523603WA0103501106
B1204003653790N00523604WA0103701108
B1204013653793N00523606WA0103901111
B1204023653797N00523607WA0103901113
B1204033653802N00523606WA0104001115
B1204043653808N00523603WA0104101117
B1204053653812N00523600WA0104401120
B1204063653819N00523595WA0104801120
B1204073653821N00523593WA0105101122
B1204083653820N00523590WA0105201123
B1204093653818N00523588WA0105301124
B1204103653816N00523583WA0105401125
B1204113653814N00523579WA0105601126
B1204123653810N00523579WA0105901127
B1204133653808N00523581WA0106101129
B1204143653808N00523587WA0106201130
B1204153653811N00523592WA0106301131
B1204163653816N00523595WA0106501133
B1204173653820N00523598WA0107001136
B1204183653824N00523601WA0107401137
B1204193653828N00523601WA0107601138
B1204203653833N00523597WA0107801139
B1204213653834N00523594WA0108001141
B1204223653834N00523589WA0108101141
B1204233653832N00523582WA0108201142
B1204243653830N00523576WA0108301142
B1204253653829N00523572WA0108501143
B1204263653828N00523573WA0108701144
B1204273653827N00523579WA0108901146
B1204283653827N00523585WA0109101148
B1204293653831N00523593WA0109401150
B1204303653835N00523600WA0109901152
B1204313653839N00523603WA0110301153
B1204323653851N00523591WA0110501153
B1204333653856N00523590WA0110701154
B1204343653861N00523592WA0110901155
B1204353653863N00523591WA0110901156
B1204363653860N00523593WA0111101156
B1204373653858N00523587WA0111301157
B1204383653859N00523578WA0111501158
B1204393653859N00523570WA0111701159
B1204403653855N00523569WA0111901160
B1204413653851N00523572WA0112001163
B1204423653848N00523578WA0112201166
B1204433653846N00523585WA0112401169
B1204443653847N00523593WA0112601172
B1204453653849N00523600WA0112901174
B1204463653852N00523603WA0113201177
B1204473653859N00523602WA0113401179
B1204483653864N00523604WA0113601180
B1204493653868N00523601WA0113801181
B1204503653871N00523598WA0113801183
B1204513653871N00523595WA0113901184
B1204523653871N00523589WA0114301185
B1204533653873N00523579WA0114501186
B1204543653875N00523568WA0114601186
B1204553653876N00523560WA0114701187
B1204563653873N00523556WA0114801188
B1204573653870N00523556WA0114801189
B1204583653867N00523559WA0114901191
B1204593653866N00523563WA0115001193
B1205003653866N00523567WA0115201195
B1205013653865N00523572WA0115301198
B1205023653870N00523573WA0115701201
B1205033653877N00523573WA0116101202
B1205043653885N00523571WA0116501203
B1205053653891N00523570WA0116701203
B1205063653897N00523569WA0116801204
B1205073653903N00523568WA0116901205
B1205083653908N00523566WA0117001205
B1205093653909N00523567WA0117101206
B1205103653906N00523570WA0117301207
B1205113653901N00523572WA0117501208
B1205123653896N00523573WA0117701209
B1205133653892N00523572WA0117801210
B1205143653890N00523570WA0117801211
B1205153653888N00523571WA0118001213
B1205163653888N00523572WA0118101216
B1205173653886N00523578WA0118401217
B1205183653886N00523585WA0118701220
B1205193653889N00523591WA0118801223
B1205203653899N00523584WA0118901224
B1205213653910N00523577WA0119301225
B1205223653914N00523577WA0119601225
B1205233653916N00523574WA0119701225
B1205243653917N00523574WA0119901225
B1205253653917N00523574WA0120201226
B1205263653913N00523574WA0120301226
B1205273653907N00523574WA0120401227
B1205283653901N00523577WA0120501228
B1205293653897N00523578WA0120601228
B1205303653896N00523579WA0120601228
B1205313653896N00523585WA0120501230
B1205323653901N00523588WA0120501228
B1205333653904N00523591WA0120801229
B1205343653908N00523593WA0121001230
B1205353653912N00523595WA0121301230
B1205363653916N00523596WA0121601231
B1205373653928N00523595WA0121801232
B1205383653936N00523595WA0121901234
B1205393653941N00523596WA0122001235
B1205403653943N00523593WA0122201236
B1205413653942N00523590WA0122201237
B1205423653940N00523588WA0122401238
B1205433653934N00523591WA0122401240
B1205443653932N00523588WA0122601242
B1205453653931N00523584WA0123001243
B1205463653932N00523581WA0123301245
B1205473653937N00523580WA0123601247
B1205483653941N00523580WA0123701245
B1205493653940N00523591WA0123801245
B1205503653943N00523593WA0124101247
B1205513653948N00523597WA0124301246
B1205523653952N00523604WA0124301246
B1205533653945N00523603WA0124401247
B1205543653942N00523605WA0124601248
B1205553653939N00523606WA0124901249
B1205563653937N00523604WA0125101250
B1205573653931N00523605WA0125301251
B1205583653926N00523607WA0125301252
B1205593653921N00523609WA0125401253
B1206003653917N00523613WA0125501254
B1206013653916N00523615WA0125601255
B1206023653916N00523619WA0125801257
B1206033653918N00523624WA0126301258
B1206043653920N00523630WA0126701259
B1206053653924N00523632WA0126901261
B1206063653930N00523634WA0127101263
B1206073653935N00523637WA0127201264
B1206083653940N00523640WA0127201266
B1206093653944N00523642WA0127301267
B1206103653945N00523644WA0127401268
B1206113653945N00523644WA0127501269
B1206123653941N00523642WA0127701271
B1206133653936N00523643WA0127901272
B1206143653932N00523642WA0128101274
B1206153653930N00523639WA0128301276
B1206163653927N00523637WA0128501278
B1206173653925N00523641WA0129001281
B1206183653923N00523648WA0129301284
B1206193653926N00523651WA0129701286
B1206203653932N00523649WA0129901289
B1206213653936N00523654WA0130001290
B1206223653940N00523658WA0130101293
B1206233653944N00523658WA0130201295
B1206243653947N00523654WA0130201297
B1206253653947N00523652WA0130201300
B1206263653944N00523649WA0130401303
B1206273653943N00523644WA0130601305
B1206283653940N00523641WA0131001307
B1206293653938N00523638WA0131401310
B1206303653933N00523644WA0131801312
B1206313653932N00523646WA0132101316
B1206323653934N00523646WA0132401321
B1206333653935N00523653WA0132601325
B1206343653938N00523659WA0132701327
B1206353653946N00523660WA0132701331
B1206363653951N00523664WA0132801334
B1206373653956N00523660WA0132901337
B1206383653957N00523659WA0133001337
B1206393653957N00523655WA0133301340
B1206403653957N00523648WA0133601342
B1206413653958N00523642WA0133901345
B1206423653955N00523638WA0134101348
B1206433653951N00523634WA0134301351
B1206443653944N00523637WA0134601353
B1206453653939N00523639WA0135001359
B1206463653934N00523644WA0135101363
B1206473653934N00523646WA0135101356
B1206483653934N00523649WA0135101357
B1206493653936N00523651WA0135501358
B1206503653935N00523664WA0136001359
B1206513653942N00523663WA0136401359
B1206523653941N00523663WA0136701359
B1206533653954N00523640WA0136901360
B1206543653968N00523610WA0137101361
B1206553653977N00523592WA0137401362
B1206563653979N00523581WA0137601362
B1206573653979N00523577WA0137701363
B1206583653978N00523573WA0137901364
B1206593653976N00523570WA0138001365
B1207003653973N00523570WA0138401366
B1207013653973N00523571WA0138701368
B1207023653973N00523580WA0138801369
B1207033653975N00523584WA0139001370
B1207043653977N00523588WA0139401371
B1207053653981N00523591WA0139801372
B1207063653984N00523593WA0140301373
B1207073653985N00523595WA0140501374
B1207083653986N00523597WA0140901375
B1207093653987N00523595WA0141201376
B1207103653988N00523591WA0141401377
B1207113653988N00523585WA0141401378
B1207123653988N00523571WA0141501379
B1207143653985N00523559WA0141700000
B1207153653980N00523562WA0142001381
B1207163653970N00523570WA0142301382
B1207173653965N00523576WA0142601383
B1207183653961N00523582WA0142901385
B1207193653962N00523588WA0143201385
B1207203653962N00523596WA0143401387
B1207213653962N00523603WA0143701388
B1207223653962N00523609WA0143901388
B1207233653961N00523614WA0144201389
B1207243653962N00523614WA0144501390
B1207253653964N00523613WA0144701392
B1207263653960N00523614WA0145001394
B1207273653957N00523607WA0145101395
B1207283653957N00523600WA0145401396
B1207293653962N00523591WA0145701398
B1207303653957N00523588WA0145901401
B1207313653952N00523588WA0146201402
B1207323653949N00523590WA0146501403
B1207333653950N00523592WA0146601404
B1207343653957N00523595WA0146701406
B1207353653955N00523603WA0146701407
B1207363653953N00523616WA0146801409
B1207373653957N00523622WA0147001411
B1207383653960N00523628WA0147401412
B1207393653982N00523624WA0147601413
B1207403654018N00523612WA0147701420
B1207413654020N00523613WA0147701434
B1207423654021N00523612WA0147901438
B1207433654029N00523599WA0148201441
B1207443654040N00523581WA0148401438
B1207453654046N00523569WA0148601435
B1207463654044N00523565WA0148701436
B1207473654043N00523562WA0149001438
B1207483654036N00523567WA0149301439
B1207493654033N00523575WA0149501442
B1207503654039N00523578WA0149601444
B1207513654043N00523583WA0149601447
B1207523654048N00523589WA0149601450
B1207533654051N00523596WA0149901452
B1207543654060N00523600WA0150401454
B1207553654073N00523597WA0150501457
B1207563654084N00523592WA0150501461
B1207573654090N00523586WA0150501464
B1207583654094N00523581WA0150601467
B1207593654096N00523576WA0150701470
B1208003654099N00523567WA0150801472
B1208013654102N00523557WA0150901471
B1208023654103N00523549WA0151001471
B1208033654102N00523545WA0151201472
B1208043654100N00523547WA0151401473
B1208053654099N00523549WA0151601474
B1208063654098N00523552WA0151701476
B1208073654100N00523556WA0151701477
B1208083654104N00523559WA0151901478
B1208093654107N00523565WA0152201478
B1208103654110N00523568WA0152501478
B1208113654113N00523573WA0152701479
B1208123654118N00523577WA0152801480
B1208133654123N00523581WA0152901481
B1208143654130N00523584WA0153001481
B1208153654134N00523582WA0152801482
B1208163654139N00523578WA0152701482
B1208173654143N00523572WA0152801483
B1208183654147N00523565WA0153101483
B1208193654150N00523557WA0153301484
B1208203654151N00523554WA0153401484
B1208213654149N00523554WA0153501484
B1208223654148N00523557WA0153501485
B1208233654146N00523563WA0153601485
B1208243654146N00523567WA0153801485
B1208253654147N00523575WA0154001485
B1208263654149N00523582WA0154101485
B1208273654152N00523589WA0154101485
B1208283654155N00523595WA0154101485
B1208293654158N00523601WA0154401485
B1208303654161N00523605WA0154601485
B1208313654164N00523605WA0154601485
B1208323654159N00523605WA0154501485
B1208333654163N00523602WA0154601485
B1208343654165N00523598WA0154701485
B1208353654166N00523592WA0154801486
B1208363654166N00523586WA0154901486
B1208373654163N00523583WA0155001486
B1208383654160N00523581WA0155001486
B1208393654157N00523582WA0155101486
B1208403654153N00523586WA0155301486
B1208403654152N00523591WA0155401486
B1208423654148N00523610WA0155701486
B1208433654149N00523617WA0155901486
B1208443654150N00523624WA0156101486
B1208453654154N00523630WA0156301486
B1208463654157N00523637WA0156301486
B1208473654163N00523641WA0156401486
B1208483654167N00523646WA0156501486
B1208493654170N00523650WA0156701486
B1208503654175N00523651WA0156901486
B1208513654178N00523649WA0157101486
B1208523654180N00523646WA0157101486
B1208533654181N00523641WA0157001486
B1208543654181N00523634WA0157001486
B1208553654178N00523632WA0157101486
B1208563654174N00523634WA0157201486
B1208573654169N00523638WA0157401486
B1208583654167N00523644WA0157601486
B1208593654167N00523648WA0157801486
B1209003654169N00523652WA0158001486
B1209013654171N00523658WA0158101486
B1209023654173N00523665WA0158301486
B1209033654175N00523673WA0158301486
B1209043654177N00523682WA0158501486
B1209053654179N00523690WA0158601486
B1209063654183N00523696WA0158601486
B1209073654187N00523701WA0158601486
B1209083654190N00523705WA0158601486
B1209093654193N00523704WA0158601486
B1209103654193N00523704WA0158801486
B1209113654195N00523699WA0158901487
B1209123654196N00523690WA0159001487
B1209133654192N00523689WA0159101487
B1209143654188N00523687WA0159101487
B1209153654183N00523688WA0159201487
B1209163654178N00523688WA0159301487
B1209173654175N00523691WA0159401487
B1209183654172N00523693WA0159601488
B1209193654169N00523697WA0159701488
B1209203654167N00523702WA0159701488
B1209213654164N00523709WA0159701488
B1209223654163N00523718WA0159701488
B1209233654163N00523729WA0159601488
B1209243654165N00523738WA0159601489
B1209253654169N00523746WA0159701489
B1209263654174N00523753WA0159801489
B1209273654179N00523755WA0159901490
B1209283654184N00523757WA0160001490
B1209293654188N00523761WA0160101491
B1209303654192N00523766WA0160101491
B1209313654195N00523767WA0160101492
B1209323654199N00523768WA0159901493
B1209333654197N00523766WA0159901494
B1209343654195N00523762WA0159901494
B1209353654193N00523758WA0160001495
B1209363654190N00523754WA0160101496
B1209373654187N00523753WA0160101497
B1209383654184N00523753WA0160201498
B1209393654179N00523757WA0160101499
B1209403654173N00523763WA0160001501
B1209413654167N00523768WA0159901501
B1209423654164N00523776WA0159701503
B1209443654161N00523791WA0159600000
B1209453654162N00523800WA0159501504
B1209463654164N00523808WA0159701505
B1209473654167N00523815WA0159701507
B1209483654171N00523820WA0159601508
B1209493654174N00523822WA0159501510
B1209503654177N00523826WA0159501511
B1209513654179N00523829WA0159201513
B1209523654182N00523828WA0158901515
B1209533654184N00523828WA0158601517
B1209543654185N00523824WA0158601519
B1209553654182N00523819WA0158501520
B1209563654180N00523816WA0158701523
B1209573654177N00523811WA0158701526
B1209583654174N00523808WA0158701530
B1209593654171N00523805WA0158501534
B1210003654168N00523800WA0158601538
B1210013654164N00523797WA0158701541
B1210023654159N00523795WA0158701544
B1210033654155N00523793WA0158801548
B1210043654151N00523789WA0158901553
B1210053654147N00523785WA0158901557
B1210063654143N00523782WA0158901561
B1210073654140N00523779WA0159001565
B1210083654135N00523777WA0159001569
B1210093654131N00523775WA0159201574
B1210103654128N00523772WA0159301579
B1210113654125N00523770WA0159501584
B1210123654121N00523768WA0159701588
B1210133654117N00523767WA0159801592
B1210143654111N00523766WA0159801596
B1210153654106N00523766WA0159801601
B1210163654101N00523768WA0159801605
B1210173654095N00523770WA0159901609
B1210183654090N00523774WA0159901614
B1210193654085N00523778WA0160001620
B1210203654081N00523784WA0160201624
B1210213654077N00523790WA0160201629
B1210223654073N00523797WA0160201633
B1210233654070N00523804WA0160301638
B1210243654069N00523813WA0160201642
B1210253654068N00523821WA0160101645
B1210263654070N00523828WA0160101648
B1210273654074N00523832WA0159901651
B1210283654081N00523835WA0159701654
B1210293654085N00523835WA0159601655
B1210303654087N00523828WA0159501659
B1210313654090N00523822WA0159501662
B1210323654092N00523817WA0159701665
B1210333654094N00523813WA0159801668
B1210343654095N00523808WA0159901672
B1210353654095N00523803WA0159901675
B1210363654095N00523797WA0159901678
B1210373654094N00523792WA0159901681
B1210383654093N00523788WA0160001685
B1210393654091N00523784WA0160101688
B1210403654088N00523782WA0160201690
B1210413654085N00523779WA0160301693
B1210423654082N00523776WA0160301695
B1210433654079N00523772WA0160301697
B1210443654075N00523769WA0160501699
B1210453654072N00523766WA0160601701
B1210463654070N00523764WA0160801704
B1210473654066N00523763WA0161001706
B1210483654063N00523762WA0161101709
B1210493654059N00523762WA0161101710
B1210503654054N00523762WA0161101712
B1210513654049N00523763WA0161201714
B1210523654045N00523766WA0161301716
B1210533654041N00523771WA0161401717
B1210543654037N00523778WA0161501717
B1210553654035N00523786WA0161601719
B1210563654035N00523794WA0161601721
B1210573654036N00523803WA0161501722
B1210583654039N00523811WA0161301721
B1210593654045N00523818WA0161201720
B1211003654053N00523822WA0161001719
B1211013654060N00523822WA0161001721
B1211023654065N00523819WA0160901721
B1211033654069N00523815WA0160901722
B1211043654072N00523810WA0161001723
B1211053654075N00523807WA0161101724
B1211063654076N00523803WA0161101725
B1211073654075N00523798WA0161201726
B1211083654074N00523793WA0161101727
B1211093654072N00523789WA0161101728
B1211103654069N00523785WA0161201729
B1211113654065N00523782WA0161301729
B1211123654062N00523779WA0161401730
B1211133654058N00523777WA0161701731
B1211143654055N00523777WA0161801733
B1211153654050N00523778WA0161901734
B1211163654045N00523781WA0161801734
B1211173654040N00523785WA0161701735
B1211183654036N00523792WA0161601734
B1211193654033N00523800WA0161701733
B1211203654032N00523808WA0161901735
B1211213654032N00523816WA0162101736
B1211223654032N00523824WA0162101737
B1211233654036N00523831WA0162101736
B1211243654041N00523838WA0161801734
B1211253654048N00523843WA0161601730
B1211263654055N00523846WA0161401727
B1211273654062N00523846WA0161301725
B1211283654069N00523844WA0161401723
B1211293654074N00523842WA0161501723
B1211303654078N00523840WA0161601723
B1211313654081N00523837WA0161601723
B1211323654084N00523834WA0161601723
B1211333654088N00523829WA0161601723
B1211343654090N00523824WA0161701723
B1211353654091N00523818WA0161701724
B1211363654089N00523814WA0161701724
B1211373654087N00523810WA0161701724
B1211383654084N00523808WA0161701724
B1211393654080N00523806WA0161701724
B1211403654076N00523805WA0161601724
B1211413654071N00523806WA0161601723
B1211423654067N00523808WA0161701723
B1211433654062N00523810WA0161801724
B1211443654058N00523812WA0161901725
B1211453654054N00523813WA0161901726
B1211463654050N00523816WA0161801726
B1211473654046N00523819WA0161701725
B1211483654043N00523825WA0161501723
B1211493654040N00523832WA0161301721
B1211503654038N00523840WA0161301719
B1211513654038N00523849WA0161201718
B1211523654040N00523858WA0161201718
B1211533654044N00523865WA0161101717
B1211543654050N00523870WA0160901715
B1211563654064N00523868WA0160501711
B1211573654068N00523864WA0160601711
B1211583654070N00523859WA0160601711
B1211593654071N00523855WA0160701712
B1212003654072N00523850WA0160701712
B1212013654074N00523845WA0160601711
B1212023654076N00523840WA0160501710
B1212033654077N00523834WA0160501709
B1212043654078N00523829WA0160401708
B1212053654079N00523824WA0160401708
B1212063654080N00523819WA0160401707
B1212073654081N00523815WA0160401707
B1212083654083N00523811WA0160201706
B1212093654085N00523806WA0160001704
B1212103654087N00523802WA0159701703
B1212113654090N00523797WA0159501700
B1212123654093N00523792WA0159301698
B1212133654096N00523786WA0159101697
B1212143654099N00523781WA0159001695
B1212153654101N00523776WA0159001695
B1212163654103N00523771WA0158901693
B1212173654105N00523764WA0158801692
B1212183654107N00523758WA0158701691
B1212193654110N00523752WA0158801691
B1212203654112N00523747WA0159001691
B1212213654115N00523742WA0159201691
B1212223654118N00523737WA0159301692
B1212233654122N00523732WA0159401692
B1212243654125N00523727WA0159601693
B1212253654128N00523721WA0159801695
B1212263654131N00523715WA0159901696
B1212273654135N00523710WA0160101699
B1212283654138N00523705WA0160401701
B1212293654142N00523700WA0160601703
B1212303654145N00523694WA0160801706
B1212313654148N00523688WA0161201709
B1212323654151N00523682WA0161401712
B1212333654154N00523677WA0161701715
B1212343654157N00523672WA0162001718
B1212353654160N00523666WA0162301720
B1212363654164N00523660WA0162601723
B1212373654169N00523654WA0163001727
B1212383654175N00523651WA0163401731
B1212393654182N00523652WA0163901735
B1212403654188N00523659WA0164401739
B1212413654192N00523668WA0164601742
B1212423654191N00523678WA0164801745
B1212433654187N00523685WA0165201749
B1212443654182N00523687WA0165701753
B1212453654179N00523684WA0166001756
B1212463654177N00523678WA0166201760
B1212473654178N00523672WA0166601763
B1212483654180N00523665WA0167001767
B1212493654185N00523660WA0167401771
B1212503654190N00523656WA0167801776
B1212513654197N00523654WA0168301779
B1212523654205N00523655WA0168601783
B1212533654213N00523659WA0169101787
B1212543654220N00523666WA0169401791
B1212553654224N00523674WA0169601794
B1212563654224N00523682WA0169801798
B1212573654223N00523689WA0170001802
B1212583654220N00523694WA0170101804
B1212593654217N00523698WA0170301806
B1213003654214N00523701WA0170601809
B1213013654210N00523703WA0170901812
B1213023654207N00523702WA0171301814
B1213033654204N00523698WA0171501818
B1213043654203N00523693WA0171801821
B1213053654204N00523686WA0172101823
B1213063654206N00523679WA0172301826
B1213073654211N00523673WA0172701829
B1213083654216N00523668WA0173201832
B1213093654222N00523665WA0173601836
B1213103654228N00523664WA0173901838
B1213113654236N00523664WA0174201841
B1213123654244N00523667WA0174401845
B1213133654252N00523673WA0174701848
B1213143654256N00523681WA0175101851
B1213153654258N00523690WA0175201854
B1213163654257N00523698WA0175301856
B1213173654253N00523703WA0175501857
B1213183654249N00523705WA0176001860
B1213193654246N00523704WA0176301863
B1213203654245N00523701WA0176601868
B1213213654245N00523696WA0177001871
B1213223654247N00523691WA0177101873
B1213233654250N00523685WA0177301875
B1213243654255N00523679WA0177601877
B1213253654261N00523674WA0177701879
B1213263654269N00523672WA0177801881
B1213273654278N00523674WA0177901883
B1213283654287N00523680WA0178101884
B1213293654292N00523687WA0178201885
B1213303654294N00523694WA0178201887
B1213313654294N00523701WA0178001887
B1213323654291N00523707WA0177901885
B1213333654288N00523711WA0178101885
B1213343654285N00523714WA0178201886
B1213353654282N00523715WA0178401888
B1213363654279N00523716WA0178701890
B1213373654277N00523716WA0178801891
B1213383654275N00523713WA0178801892
B1213393654274N00523709WA0178901893
B1213403654273N00523704WA0179001893
B1213413654273N00523699WA0179201894
B1213423654275N00523692WA0179401895
B1213433654279N00523687WA0179601898
B1213443654284N00523681WA0179901899
B1213453654289N00523676WA0180001901
B1213463654294N00523672WA0180101902
B1213473654300N00523671WA0180001903
B1213483654306N00523673WA0179701902
B1213493654313N00523678WA0179201900
B1213503654318N00523686WA0178701898
B1213513654321N00523695WA0178801897
B1213523654321N00523702WA0179101897
B1213533654319N00523708WA0179201897
B1213543654317N00523713WA0179201899
B1213553654315N00523718WA0179101899
B1213563654312N00523721WA0179001898
B1213573654309N00523723WA0179101898
B1213583654307N00523721WA0179201898
B1213593654306N00523719WA0179401898
B1214003654305N00523716WA0179401898
B1214013654304N00523714WA0179401898
B1214023654304N00523711WA0179401898
B1214033654304N00523708WA0179401898
B1214043654305N00523705WA0179201897
B1214053654309N00523701WA0179101895
B1214063654314N00523698WA0178901892
B1214073654321N00523697WA0178701891
B1214083654330N00523698WA0178401889
B1214093654338N00523700WA0178301887
B1214103654346N00523702WA0178301887
B1214113654353N00523704WA0178401886
B1214123654360N00523706WA0178201885
B1214133654368N00523706WA0178001883
B1214143654375N00523705WA0177801882
B1214153654381N00523702WA0177501881
B1214163654386N00523698WA0177101878
B1214173654390N00523694WA0176901876
B1214183654393N00523689WA0176701874
B1214193654395N00523685WA0176501873
B1214203654397N00523681WA0176301871
B1214213654398N00523677WA0176101868
B1214223654400N00523672WA0175801865
B1214233654402N00523667WA0175401863
B1214243654404N00523662WA0175101860
B1214253654407N00523657WA0175001858
B1214263654410N00523652WA0174901856
B1214273654414N00523647WA0174801855
B1214283654417N00523643WA0174601853
B1214293654420N00523638WA0174501852
B1214303654423N00523632WA0174401850
B1214313654427N00523627WA0174201849
B1214323654430N00523622WA0174001848
B1214333654434N00523617WA0173801847
B1214343654438N00523613WA0173701845
B1214353654442N00523609WA0173601844
B1214363654447N00523604WA0173301842
B1214373654451N00523600WA0173301840
B1214383654454N00523595WA0173201841
B1214393654457N00523591WA0173201840
B1214403654460N00523588WA0173201839
B1214413654463N00523584WA0173101838
B1214423654466N00523581WA0172901837
B1214433654470N00523578WA0172701835
B1214443654473N00523575WA0172401833
B1214453654477N00523571WA0172201830
B1214463654481N00523568WA0172001828
B1214473654486N00523565WA0171901826
B1214483654491N00523563WA0171701825
B1214493654495N00523559WA0171601823
B1214503654499N00523556WA0171401821
B1214513654503N00523552WA0171201819
B1214523654507N00523548WA0171101817
B1214533654511N00523544WA0171001816
B1214543654513N00523540WA0170801814
B1214553654514N00523535WA0170501812
B1214563654516N00523530WA0170301809
B1214573654519N00523524WA0170001807
B1214583654522N00523518WA0169801805
B1214593654525N00523514WA0169901804
B1215003654526N00523510WA0170001804
B1215013654526N00523506WA0170001804
B1215023654528N00523502WA0169801803
B1215033654531N00523498WA0169601801
B1215043654536N00523494WA0169401797
B1215053654540N00523490WA0169201796
B1215063654543N00523487WA0169201795
B1215073654546N00523484WA0169101796
B1215083654549N00523481WA0168801795
B1215093654554N00523477WA0168501795
B1215103654559N00523473WA0168101792
B1215113654563N00523468WA0168001789
B1215123654567N00523462WA0167601787
B1215133654572N00523457WA0167501785
B1215143654576N00523451WA0167401784
B1215153654579N00523446WA0167401784
B1215163654580N00523439WA0167501783
B1215173654581N00523433WA0167501782
B1215183654582N00523427WA0167501781
B1215193654585N00523421WA0167301780
B1215203654589N00523416WA0167201779
B1215213654595N00523412WA0167001778
B1215223654601N00523409WA0166901777
B1215233654606N00523404WA0167101776
B1215243654610N00523399WA0167101776
B1215253654614N00523395WA0167201777
B1215263654617N00523391WA0167401778
B1215273654621N00523388WA0167401779
B1215283654625N00523384WA0167401779
B1215293654629N00523380WA0167401779
B1215303654633N00523374WA0167301779
B1215313654638N00523369WA0167401779
B1215323654642N00523365WA0167701779
B1215333654646N00523362WA0167901781
B1215343654650N00523359WA0168101782
B1215353654654N00523357WA0168201783
B1215363654659N00523354WA0168101783
B1215373654664N00523351WA0168001784
B1215383654669N00523348WA0167901783
B1215393654673N00523346WA0168201785
B1215403654678N00523344WA0168501788
B1215413654682N00523343WA0168901790
B1215423654686N00523342WA0169101793
B1215433654692N00523343WA0169001793
B1215443654699N00523346WA0168801791
B1215453654706N00523351WA0168701790
B1215463654712N00523359WA0168901790
B1215473654718N00523368WA0169301793
B1215483654721N00523376WA0169601794
B1215493654722N00523386WA0169801796
B1215503654721N00523394WA0170001798
B1215513654718N00523401WA0170101799
B1215523654714N00523406WA0170001799
B1215533654709N00523408WA0170001799
B1215543654705N00523407WA0170001799
B1215553654702N00523403WA0169901799
B1215563654702N00523398WA0169801799
B1215573654703N00523393WA0170001799
B1215583654706N00523389WA0170201801
B1215593654710N00523386WA0170601803
B1216003654714N00523385WA0170801804
B1216013654720N00523384WA0170901806
B1216023654726N00523384WA0170901807
B1216033654733N00523385WA0170701807
B1216043654740N00523387WA0170501805
B1216053654748N00523391WA0170401804
B1216063654755N00523397WA0170301803
B1216073654762N00523404WA0170501803
B1216083654767N00523413WA0170701804
B1216093654771N00523422WA0171001804
B1216103654772N00523431WA0171301805
B1216113654771N00523440WA0171501807
B1216123654769N00523448WA0171601809
B1216133654765N00523453WA0171701811
B1216143654760N00523455WA0171801812
B1216153654756N00523455WA0171901813
B1216163654752N00523453WA0172001814
B1216173654750N00523450WA0172201816
B1216183654750N00523447WA0172301819
B1216193654752N00523443WA0172501821
B1216203654756N00523440WA0172501822
B1216213654763N00523440WA0172601823
B1216223654770N00523443WA0172601823
B1216233654778N00523448WA0172801824
B1216243654783N00523455WA0172901826
B1216253654788N00523463WA0173101827
B1216263654790N00523472WA0173201828
B1216273654790N00523481WA0173301829
B1216283654787N00523489WA0173301830
B1216293654783N00523494WA0173401830
B1216303654778N00523497WA0173401831
B1216313654774N00523496WA0173501832
B1216323654772N00523493WA0173601833
B1216333654772N00523488WA0173601834
B1216343654774N00523484WA0173601834
B1216353654778N00523481WA0173901835
B1216363654783N00523479WA0174001836
B1216373654789N00523479WA0174101838
B1216383654796N00523482WA0174101839
B1216393654803N00523487WA0174101839
B1216403654810N00523494WA0174101838
B1216413654815N00523503WA0174201838
B1216423654817N00523512WA0174301838
B1216433654817N00523521WA0174401839
B1216443654815N00523529WA0174501840
B1216453654812N00523534WA0174501842
B1216463654808N00523535WA0174501842
B1216473654805N00523532WA0174401842
B1216483654804N00523528WA0174301841
B1216493654805N00523524WA0174401842
B1216503654806N00523520WA0174601842
B1216513654809N00523517WA0174801844
B1216523654812N00523514WA0174901846
B1216533654815N00523511WA0175001848
B1216543654818N00523508WA0174901848
B1216553654820N00523505WA0174801848
B1216563654822N00523502WA0174701848
B1216573654825N00523498WA0174601848
B1216583654830N00523495WA0174501847
B1216593654834N00523491WA0174501847
B1217003654838N00523487WA0174601847
B1217013654844N00523485WA0174401846
B1217023654850N00523483WA0174301844
B1217033654856N00523480WA0174401844
B1217043654861N00523476WA0174501845
B1217053654864N00523472WA0174801846
B1217063654867N00523469WA0175001847
B1217073654869N00523465WA0175001848
B1217083654872N00523461WA0175001849
B1217093654875N00523456WA0175101849
B1217103654877N00523452WA0175101850
B1217113654878N00523448WA0175301851
B1217123654878N00523444WA0175501853
B1217133654877N00523440WA0175701855
B1217143654877N00523437WA0175801857
B1217153654876N00523433WA0175901858
B1217163654874N00523430WA0175801858
B1217173654871N00523428WA0175901859
B1217183654868N00523429WA0175801860
B1217193654865N00523433WA0175801859
B1217203654863N00523439WA0175801859
B1217213654864N00523447WA0176001860
B1217223654867N00523455WA0176101862
B1217233654873N00523462WA0176101862
B1217243654879N00523467WA0176201862
B1217253654887N00523470WA0176301863
B1217263654895N00523471WA0176401863
B1217273654901N00523469WA0176401864
B1217283654905N00523464WA0176201864
B1217293654908N00523458WA0176101864
B1217303654909N00523452WA0176101864
B1217313654909N00523448WA0176201864
B1217323654908N00523444WA0176401865
B1217333654907N00523441WA0176401866
B1217343654906N00523438WA0176501867
B1217353654904N00523436WA0176401868
B1217363654902N00523434WA0176401867
B1217373654898N00523433WA0176401867
B1217383654895N00523434WA0176401867
B1217393654892N00523436WA0176401867
B1217403654890N00523441WA0176401868
B1217413654889N00523448WA0176201868
B1217423654890N00523457WA0176101867
B1217433654894N00523465WA0176001865
B1217443654901N00523471WA0175901864
B1217453654908N00523474WA0175801863
B1217463654916N00523475WA0175801862
B1217473654923N00523474WA0175801862
B1217483654929N00523472WA0175901861
B1217493654936N00523470WA0175801861
B1217503654942N00523468WA0175801861
B1217513654948N00523465WA0175801860
B1217523654953N00523462WA0175801860
B1217533654958N00523458WA0175701860
B1217543654962N00523454WA0175701860
B1217553654966N00523450WA0175701860
B1217563654970N00523446WA0175701860
B1217573654974N00523442WA0175701860
B1217583654976N00523437WA0175501859
B1217593654978N00523431WA0175401858
B1218003654979N00523424WA0175201857
B1218013654980N00523419WA0175301857
B1218023654981N00523414WA0175401857
B1218033654982N00523410WA0175501858
B1218043654982N00523405WA0175501858
B1218053654983N00523401WA0175401858
B1218063654983N00523396WA0175201857
B1218073654983N00523390WA0175101856
B1218083654983N00523384WA0175101855
B1218093654982N00523380WA0175001854
B1218103654981N00523375WA0175001854
B1218113654980N00523370WA0175001854
B1218123654981N00523366WA0174901853
B1218133654982N00523360WA0174801853
B1218143654983N00523355WA0174501851
B1218153654984N00523349WA0174201848
B1218163654985N00523342WA0173901846
B1218173654987N00523335WA0173601844
B1218183654989N00523330WA0173501842
B1218193654991N00523325WA0173501841
B1218203654993N00523321WA0173301840
B1218213654995N00523316WA0173001837
B1218223654997N00523311WA0172601834
B1218233654999N00523305WA0172301831
B1218243655000N00523299WA0172001828
B1218253655001N00523294WA0171701825
B1218263655001N00523290WA0171601823
B1218273655001N00523285WA0171401821
B1218283655002N00523281WA0171101818
B1218293655003N00523275WA0170901816
B1218303655005N00523270WA0170701814
B1218313655007N00523265WA0170601812
B1218323655009N00523260WA0170201809
B1218333655011N00523256WA0169901807
B1218343655013N00523250WA0169601804
B1218353655015N00523244WA0169101800
B1218363655017N00523238WA0168901797
B1218373655019N00523232WA0168601794
B1218383655021N00523226WA0168401792
B1218393655022N00523221WA0168201789
B1218403655023N00523215WA0167901787
B1218413655024N00523210WA0167601783
B1218423655025N00523204WA0167401781
B1218433655026N00523198WA0167201779
B1218443655027N00523192WA0167001777
B1218453655028N00523186WA0166801774
B1218463655029N00523180WA0166601771
B1218473655030N00523173WA0166401769
B1218483655032N00523168WA0166301769
B1218493655033N00523163WA0166201768
B1218503655034N00523157WA0166001765
B1218513655036N00523150WA0165801763
B1218523655038N00523144WA0165601762
B1218533655040N00523138WA0165601760
B1218543655041N00523132WA0165701759
B1218553655041N00523127WA0165601759
B1218563655042N00523122WA0165501758
B1218573655043N00523117WA0165301757
B1218583655045N00523111WA0165101755
B1218593655048N00523105WA0164901753
B1219003655050N00523099WA0164701752
B1219013655052N00523093WA0164601750
B1219023655054N00523088WA0164501749
B1219033655056N00523083WA0164301747
B1219043655059N00523078WA0164001745
B1219053655062N00523073WA0163701743
B1219063655065N00523066WA0163401740
B1219073655068N00523061WA0163101738
B1219083655073N00523056WA0163001736
B1219093655078N00523053WA0162901734
B1219103655083N00523049WA0162801732
B1219113655088N00523045WA0162701730
B1219123655093N00523040WA0162401728
B1219133655098N00523035WA0162301727
B1219143655103N00523031WA0162301726
B1219153655108N00523027WA0162201725
B1219163655113N00523024WA0162101724
B1219173655119N00523021WA0162001723
B1219183655126N00523019WA0161801721
B1219193655133N00523019WA0161501720
B1219203655141N00523019WA0161501718
B1219213655148N00523019WA0161501718
B1219223655155N00523018WA0161501718
B1219233655162N00523016WA0161401718
B1219243655169N00523014WA0161301717
B1219253655176N00523012WA0161201716
B1219263655183N00523010WA0161101716
B1219273655191N00523008WA0161101715
B1219283655198N00523005WA0161101714
B1219293655204N00523002WA0161101713
B1219303655211N00522999WA0161201713
B1219313655217N00522995WA0161201713
B1219323655222N00522991WA0161201713
B1219333655227N00522987WA0161101713
B1219343655233N00522983WA0160901712
B1219353655238N00522979WA0160701710
B1219363655245N00522975WA0160601708
B1219373655251N00522970WA0160501707
B1219383655257N00522965WA0160401706
B1219393655263N00522960WA0160401706
B1219403655268N00522955WA0160301705
B1219413655273N00522949WA0160201703
B1219423655277N00522943WA0160001702
B1219433655281N00522937WA0159901701
B1219443655284N00522931WA0159801700
B1219453655287N00522925WA0159801699
B1219463655290N00522919WA0159601698
B1219473655293N00522913WA0159501697
B1219483655296N00522907WA0159501696
B1219493655300N00522902WA0159301696
B1219503655305N00522897WA0159201694
B1219513655310N00522892WA0159001693
B1219523655314N00522886WA0158901692
B1219533655319N00522880WA0158801690
B1219543655322N00522874WA0158701689
B1219553655325N00522868WA0158701689
B1219563655328N00522862WA0158701688
B1219573655331N00522857WA0158501688
B1219583655334N00522851WA0158401687
B1219593655337N00522845WA0158201685
B1220003655340N00522838WA0158101684
B1220013655343N00522832WA0158101683
B1220023655346N00522826WA0158001683
B1220033655348N00522820WA0157901682
B1220043655351N00522814WA0157801681
B1220053655354N00522807WA0157701680
B1220063655357N00522801WA0157501679
B1220073655360N00522794WA0157401677
B1220083655363N00522787WA0157301676
B1220093655367N00522781WA0157201675
B1220103655371N00522775WA0157201674
B1220113655376N00522769WA0157101674
B1220123655381N00522764WA0157001673
B1220133655385N00522758WA0156901672
B1220143655389N00522752WA0156801671
B1220153655393N00522746WA0156701670
B1220163655396N00522740WA0156701669
B1220173655400N00522733WA0156501668
B1220183655403N00522727WA0156501667
B1220193655407N00522721WA0156301666
B1220203655410N00522715WA0156201665
B1220213655413N00522708WA0156101664
B1220223655417N00522702WA0156001663
B1220233655420N00522696WA0155901662
B1220243655423N00522690WA0155801661
B1220253655426N00522684WA0155801660
B1220263655429N00522678WA0155701659
B1220273655433N00522672WA0155401658
B1220283655436N00522665WA0155301657
B1220293655440N00522659WA0155201656
B1220303655444N00522654WA0155201655
B1220313655448N00522648WA0155101654
B1220323655452N00522642WA0155001653
B1220333655456N00522636WA0154901653
B1220343655460N00522631WA0154901652
B1220353655464N00522625WA0154801651
B1220363655468N00522620WA0154701650
B1220373655472N00522614WA0154601649
B1220383655477N00522608WA0154501648
B1220393655480N00522603WA0154401647
B1220403655484N00522597WA0154401646
B1220413655487N00522591WA0154301646
B1220423655491N00522585WA0154301645
B1220433655494N00522580WA0154201645
B1220443655498N00522573WA0154101644
B1220453655501N00522567WA0154101643
B1220463655504N00522561WA0154101643
B1220473655507N00522555WA0154101643
B1220483655511N00522549WA0154001642
B1220493655515N00522544WA0153901642
B1220503655519N00522538WA0153901641
B1220513655523N00522532WA0153801641
B1220523655527N00522526WA0153901640
B1220533655531N00522520WA0153901640
B1220543655535N00522515WA0153901640
B1220553655539N00522509WA0153801640
B1220563655544N00522503WA0153701640
B1220573655548N00522498WA0153701639
B1220583655552N00522492WA0153801639
B1220593655556N00522486WA0153701639
B1221003655559N00522481WA0153601638
B1221013655562N00522475WA0153601638
B1221023655566N00522470WA0153601638
B1221033655568N00522465WA0153601638
B1221043655571N00522459WA0153401637
B1221053655573N00522453WA0153201636
B1221063655576N00522447WA0153101635
B1221073655578N00522441WA0153101634
B1221083655579N00522435WA0153201634
B1221093655581N00522429WA0153101633
B1221103655582N00522424WA0153001633
B1221113655583N00522418WA0152901632
B1221123655584N00522411WA0152701631
B1221133655584N00522406WA0152701630
B1221143655584N00522400WA0152601629
B1221153655584N00522395WA0152601629
B1221163655584N00522390WA0152601628
B1221173655584N00522384WA0152501627
B1221183655584N00522379WA0152401626
B1221193655584N00522373WA0152401625
B1221203655583N00522368WA0152301624
B1221213655583N00522363WA0152201624
B1221223655582N00522358WA0152201623
B1221233655582N00522352WA0152101623
B1221243655582N00522347WA0152001622
B1221253655582N00522341WA0151901621
B1221263655583N00522335WA0151901621
B1221273655584N00522330WA0152001621
B1221283655585N00522324WA0152001620
B1221293655586N00522319WA0151901620
B1221303655587N00522314WA0151801619
B1221313655587N00522308WA0151701619
B1221323655587N00522303WA0151601618
B1221333655587N00522297WA0151601617
B1221343655588N00522292WA0151601617
B1221353655588N00522287WA0151601617
B1221363655589N00522282WA0151501617
B1221373655591N00522276WA0151401616
B1221383655592N00522270WA0151301615
B1221393655593N00522264WA0151201614
B1221403655594N00522258WA0151201614
B1221413655596N00522253WA0151201613
B1221423655598N00522247WA0151201613
B1221433655601N00522241WA0151201612
B1221443655603N00522235WA0151101612
B1221453655606N00522229WA0151001613
B1221463655609N00522224WA0151101613
B1221473655612N00522218WA0151001613
B1221483655615N00522213WA0150901612
B1221493655619N00522207WA0150901612
B1221503655623N00522201WA0150801612
B1221513655627N00522196WA0150501612
B1221523655631N00522191WA0150601612
B1221533655635N00522185WA0150501611
B1221543655638N00522181WA0150301611
B1221553655642N00522176WA0150501610
B1221563655646N00522170WA0150301609
B1221573655650N00522165WA0150301608
B1221583655654N00522159WA0150301607
B1221593655657N00522154WA0150101606
B1222003655660N00522148WA0150201606
B1222013655663N00522142WA0150101605
B1222023655666N00522137WA0150001605
B1222033655668N00522131WA0150101604
B1222043655670N00522125WA0150001603
B1222053655673N00522119WA0149901602
B1222063655677N00522113WA0149901602
B1222073655682N00522109WA0149901602
B1222083655686N00522104WA0149901600
B1222093655690N00522098WA0149901600
B1222103655693N00522092WA0149901600
B1222113655696N00522086WA0149801599
B1222123655699N00522079WA0149701598
B1222133655704N00522073WA0149701598
B1222143655708N00522068WA0149701597
B1222153655713N00522062WA0149701596
B1222163655717N00522057WA0149701596
B1222173655721N00522051WA0149601596
B1222183655725N00522046WA0149601596
B1222193655730N00522040WA0149601595
B1222203655734N00522035WA0149601596
B1222213655739N00522030WA0149601596
B1222223655744N00522024WA0149601595
B1222233655748N00522018WA0149401595
B1222243655752N00522012WA0149601595
B1222253655756N00522006WA0149501595
B1222263655760N00522000WA0149501595
B1222273655764N00521995WA0149501595
B1222283655767N00521989WA0149501595
B1222293655771N00521983WA0149601596
B1222303655774N00521977WA0149601596
B1222313655778N00521971WA0149601596
B1222323655782N00521965WA0149601596
B1222333655786N00521960WA0149601596
B1222343655789N00521954WA0149601597
B1222353655792N00521948WA0149601596
B1222363655796N00521942WA0149501596
B1222373655799N00521936WA0149501595
B1222383655803N00521930WA0149501595
B1222393655807N00521924WA0149501595
B1222403655810N00521918WA0149501596
B1222413655814N00521912WA0149401595
B1222423655818N00521907WA0149401595
B1222433655821N00521901WA0149301595
B1222443655824N00521895WA0149301594
B1222453655827N00521889WA0149301594
B1222463655830N00521883WA0149301594
B1222473655833N00521877WA0149301593
B1222483655836N00521872WA0149101593
B1222493655839N00521866WA0149101592
B1222503655842N00521861WA0149001592
B1222513655844N00521855WA0148901591
B1222523655847N00521849WA0148801590
B1222533655849N00521843WA0148701589
B1222543655851N00521837WA0148601588
B1222553655853N00521831WA0148601587
B1222563655856N00521826WA0148601586
B1222573655858N00521820WA0148501586
B1222583655860N00521815WA0148401585
B1222593655862N00521809WA0148301584
B1223003655865N00521803WA0148201583
B1223013655868N00521798WA0148101582
B1223023655871N00521792WA0148001581
B1223033655874N00521786WA0147901580
B1223043655877N00521781WA0147801580
B1223053655879N00521775WA0147801579
B1223063655882N00521769WA0147701578
B1223073655886N00521763WA0147601577
B1223083655890N00521758WA0147601576
B1223093655895N00521754WA0147601576
B1223103655899N00521749WA0147601576
B1223113655903N00521744WA0147501576
B1223123655907N00521739WA0147301575
B1223133655911N00521733WA0147201574
B1223143655916N00521728WA0147201573
B1223153655920N00521723WA0147201573
B1223163655925N00521718WA0147301573
B1223173655929N00521714WA0147201573
B1223183655934N00521710WA0147101572
B1223193655939N00521705WA0146901571
B1223203655944N00521701WA0146801570
B1223213655950N00521697WA0146701569
B1223223655955N00521693WA0146601569
B1223233655961N00521690WA0146601568
B1223243655966N00521686WA0146501568
B1223253655972N00521683WA0146401566
B1223263655978N00521680WA0146201564
B1223273655984N00521676WA0146101563
B1223283655990N00521672WA0146101561
B1223293655996N00521669WA0146001560
B1223303656003N00521666WA0145901560
B1223313656009N00521663WA0145801559
B1223323656015N00521660WA0145701558
B1223333656021N00521656WA0145501556
B1223343656027N00521652WA0145401555
B1223353656033N00521648WA0145401554
B1223363656038N00521644WA0145201553
B1223373656044N00521640WA0145101552
B1223383656049N00521635WA0145001551
B1223393656054N00521631WA0144801550
B1223403656060N00521626WA0144701548
B1223413656066N00521623WA0144601548
B1223423656072N00521620WA0144501547
B1223433656078N00521617WA0144401546
B1223443656084N00521614WA0144301544
B1223453656090N00521611WA0144001543
B1223463656096N00521607WA0143801541
B1223473656102N00521603WA0143701539
B1223483656107N00521599WA0143601537
B1223493656112N00521594WA0143501536
B1223503656117N00521590WA0143401535
B1223513656122N00521586WA0143201533
B1223523656127N00521581WA0143001531
B1223533656133N00521577WA0142801529
B1223543656138N00521573WA0142701528
B1223553656142N00521568WA0142601527
B1223563656147N00521564WA0142501525
B1223573656151N00521560WA0142401524
B1223583656155N00521555WA0142301523
B1223593656159N00521551WA0142101521
B1224003656163N00521547WA0142001520
B1224013656167N00521542WA0141801518
B1224023656170N00521537WA0141701517
B1224033656173N00521532WA0141601516
B1224043656177N00521527WA0141501514
B1224053656180N00521522WA0141401513
B1224063656184N00521518WA0141201512
B1224073656187N00521513WA0141101511
B1224083656190N00521508WA0141001510
B1224093656192N00521503WA0140701508
B1224103656195N00521498WA0140501506
B1224113656199N00521492WA0140301504
B1224123656202N00521487WA0140101502
B1224133656205N00521481WA0139901500
B1224143656208N00521476WA0139801499
B1224153656211N00521470WA0139701497
B1224163656214N00521465WA0139501496
B1224173656217N00521460WA0139401494
B1224183656221N00521455WA0139201492
B1224193656224N00521450WA0138901490
B1224203656228N00521444WA0138701488
B1224213656231N00521438WA0138501486
B1224223656234N00521433WA0138401484
B1224233656237N00521427WA0138201483
B1224243656241N00521422WA0138001481
B1224253656245N00521416WA0137801479
B1224263656249N00521411WA0137601477
B1224273656253N00521405WA0137501475
B1224283656258N00521400WA0137301473
B1224293656262N00521395WA0137201472
B1224303656265N00521389WA0137101470
B1224313656268N00521384WA0136901469
B1224323656271N00521378WA0136701467
B1224333656273N00521373WA0136501466
B1224343656276N00521367WA0136401464
B1224353656280N00521362WA0136201462
B1224363656283N00521356WA0136001461
B1224373656286N00521351WA0135801459
B1224383656289N00521345WA0135701457
B1224393656293N00521339WA0135601456
B1224403656296N00521334WA0135501454
B1224413656300N00521329WA0135401453
B1224423656303N00521323WA0135201451
B1224433656307N00521317WA0135001449
B1224443656311N00521312WA0134701447
B1224453656315N00521306WA0134601446
B1224463656318N00521300WA0134401444
B1224473656322N00521295WA0134301442
B1224483656325N00521290WA0134101441
B1224493656327N00521284WA0133901439
B1224503656331N00521279WA0133701437
B1224513656334N00521273WA0133501434
B1224523656338N00521268WA0133301432
B1224533656342N00521263WA0133101430
B1224543656347N00521257WA0132901428
B1224553656350N00521252WA0132701426
B1224563656354N00521247WA0132501424
B1224573656358N00521242WA0132301422
B1224583656362N00521237WA0132201420
B1224593656367N00521232WA0132001418
B1225003656372N00521228WA0132001417
B1225013656377N00521225WA0131801416
B1225023656382N00521222WA0131701414
B1225033656388N00521219WA0131601413
B1225043656393N00521216WA0131401411
B1225053656399N00521213WA0131201409
B1225063656404N00521210WA0131101408
B1225073656409N00521207WA0130901406
B1225083656414N00521203WA0130701405
B1225093656419N00521199WA0130601404
B1225103656425N00521195WA0130401402
B1225113656430N00521191WA0130201400
B1225123656434N00521187WA0130201399
B1225133656438N00521182WA0130001397
B1225143656442N00521178WA0129801396
B1225153656446N00521173WA0129601394
B1225163656450N00521168WA0129401392
B1225173656454N00521163WA0129201389
B1225183656457N00521158WA0129001387
B1225193656460N00521152WA0128901386
B1225203656462N00521147WA0128701385
B1225213656465N00521141WA0128601383
B1225223656467N00521136WA0128501382
B1225233656469N00521130WA0128301380
B1225243656470N00521125WA0128001378
B1225253656471N00521119WA0127801376
B1225263656472N00521113WA0127701375
B1225273656473N00521108WA0127501373
B1225283656473N00521102WA0127301371
B1225293656474N00521096WA0127101369
B1225303656474N00521091WA0126901367
B1225313656476N00521085WA0126801365
B1225323656477N00521079WA0126501362
B1225333656478N00521073WA0126401360
B1225343656480N00521068WA0126101358
B1225353656482N00521062WA0125901356
B1225363656484N00521056WA0125701354
B1225373656486N00521050WA0125601352
B1225383656489N00521045WA0125401351
B1225393656491N00521039WA0125301350
B1225403656493N00521034WA0125101348
B1225413656495N00521028WA0124901346
B1225423656497N00521023WA0124601343
B1225433656500N00521017WA0124401341
B1225443656503N00521011WA0124201338
B1225453656506N00521005WA0124001337
B1225463656509N00521000WA0123801335
B1225473656511N00520994WA0123701333
B1225483656514N00520989WA0123601332
B1225493656516N00520985WA0123501331
B1225503656519N00520982WA0123301330
B1225513656522N00520977WA0122901328
B1225523656525N00520972WA0122601325
B1225533656528N00520966WA0122201322
B1225543656530N00520961WA0122101320
B1225553656533N00520956WA0122001318
B1225563656535N00520952WA0121901316
B1225573656536N00520947WA0121701315
B1225583656537N00520942WA0121401312
B1225593656539N00520937WA0121101309
B1226003656541N00520931WA0120801305
B1226013656543N00520926WA0120601303
B1226023656544N00520921WA0120501301
B1226033656544N00520917WA0120401300
B1226043656544N00520913WA0120201298
B1226053656543N00520908WA0119901296
B1226063656543N00520904WA0119601293
B1226073656542N00520899WA0119301290
B1226083656541N00520894WA0119201288
B1226093656540N00520889WA0119101286
B1226103656539N00520885WA0118901284
B1226113656539N00520880WA0118601282
B1226123656538N00520874WA0118301280
B1226133656538N00520869WA0118001277
B1226143656537N00520863WA0117801275
B1226153656538N00520857WA0117701273
B1226163656539N00520853WA0117601271
B1226173656541N00520849WA0117401270
B1226183656542N00520845WA0117001267
B1226193656543N00520839WA0116701265
B1226203656545N00520834WA0116401261
B1226213656547N00520828WA0116101259
B1226223656550N00520823WA0115901257
B1226233656553N00520819WA0115901255
B1226243656555N00520815WA0115701254
B1226253656558N00520811WA0115601252
B1226263656561N00520806WA0115301250
B1226273656563N00520800WA0115201247
B1226283656566N00520794WA0114901245
B1226293656569N00520787WA0114701243
B1226303656572N00520781WA0114501241
B1226313656575N00520776WA0114601241
B1226323656578N00520772WA0114601241
B1226333656580N00520766WA0114601240
B1226343656583N00520761WA0114401239
B1226353656586N00520755WA0114201237
B1226363656588N00520750WA0114101236
B1226373656591N00520744WA0114201236
B1226383656592N00520739WA0114201236
B1226393656594N00520734WA0114001235
B1226403656596N00520728WA0113801234
B1226413656598N00520723WA0113701233
B1226423656600N00520716WA0113501231
B1226433656600N00520710WA0113401230
B1226443656600N00520704WA0113201229
B1226453656600N00520697WA0113101229
B1226463656599N00520691WA0113001227
B1226473656599N00520685WA0112801226
B1226483656599N00520679WA0112701224
B1226493656598N00520674WA0112501222
B1226503656598N00520668WA0112301220
B1226513656598N00520661WA0112101217
B1226523656599N00520655WA0111901215
B1226533656599N00520648WA0111801213
B1226543656600N00520642WA0111601211
B1226553656600N00520636WA0111501209
B1226563656601N00520630WA0111301207
B1226573656601N00520624WA0111201205
B1226583656601N00520617WA0111201204
B1226593656600N00520611WA0111101203
B1227003656599N00520605WA0111001201
B1227013656597N00520600WA0110901200
B1227023656595N00520594WA0110701199
B1227033656594N00520589WA0110601198
B1227043656592N00520582WA0110301196
B1227053656590N00520575WA0110101194
B1227063656589N00520569WA0109901192
B1227073656587N00520563WA0109901192
B1227083656585N00520557WA0109901191
B1227093656583N00520551WA0109701189
B1227103656580N00520544WA0109601187
B1227113656578N00520538WA0109501186
B1227123656575N00520532WA0109401184
B1227133656573N00520526WA0109301183
B1227143656571N00520519WA0109201182
B1227153656569N00520513WA0109201181
B1227163656567N00520507WA0109201181
B1227173656565N00520500WA0109201180
B1227183656564N00520493WA0109101180
B1227193656564N00520487WA0109101180
B1227203656565N00520482WA0109101181
B1227213656565N00520476WA0109101181
B1227223656565N00520470WA0108801180
B1227233656565N00520464WA0108701179
B1227243656565N00520457WA0108501177
B1227253656565N00520451WA0108301175
B1227263656565N00520444WA0108201174
B1227273656565N00520438WA0108101172
B1227283656564N00520432WA0107901171
B1227293656565N00520426WA0107701169
B1227303656565N00520420WA0107501167
B1227313656565N00520412WA0107201164
B1227323656565N00520405WA0107101162
B1227333656565N00520398WA0106901160
B1227343656564N00520392WA0106801158
B1227353656564N00520386WA0106601157
B1227363656563N00520380WA0106401155
B1227373656562N00520373WA0106301153
B1227383656561N00520367WA0106101151
B1227393656560N00520361WA0106001150
B1227403656558N00520356WA0105901149
B1227413656556N00520351WA0105801148
B1227423656554N00520347WA0105701147
B1227433656551N00520342WA0105601146
B1227443656549N00520337WA0105401144
B1227453656547N00520332WA0105301143
B1227463656545N00520327WA0105201142
B1227473656544N00520322WA0105101141
B1227483656543N00520316WA0105001140
B1227493656541N00520311WA0104801139
B1227503656540N00520305WA0104701138
B1227513656538N00520299WA0104601138
B1227523656537N00520294WA0104501137
B1227533656536N00520288WA0104401136
B1227543656535N00520283WA0104301135
B1227553656534N00520276WA0104101134
B1227563656534N00520270WA0104001132
B1227573656535N00520264WA0103901131
B1227583656535N00520259WA0103801130
B1227593656535N00520254WA0103601129
B1228003656535N00520248WA0103301127
B1228013656535N00520242WA0103001125
B1228023656535N00520236WA0102801123
B1228033656536N00520230WA0102501121
B1228043656537N00520224WA0102301118
B1228053656538N00520219WA0102101115
B1228063656539N00520213WA0101801114
B1228073656540N00520206WA0101701111
B1228083656540N00520200WA0101501109
B1228093656541N00520195WA0101301107
B1228103656540N00520190WA0101001105
B1228113656539N00520184WA0100701102
B1228123656538N00520178WA0100501099
B1228133656537N00520171WA0100201095
B1228143656536N00520165WA0099901093
B1228153656535N00520159WA0099701090
B1228163656536N00520153WA0099501088
B1228173656537N00520147WA0099201085
B1228183656538N00520141WA0098901082
B1228193656540N00520135WA0098701079
B1228203656542N00520129WA0098401077
B1228213656545N00520125WA0098201075
B1228223656548N00520120WA0097901072
B1228233656551N00520114WA0097601069
B1228243656554N00520108WA0097301066
B1228253656557N00520103WA0097001063
B1228263656561N00520098WA0096801061
B1228273656563N00520094WA0096701059
B1228283656566N00520089WA0096501057
B1228293656568N00520084WA0096201054
B1228303656569N00520077WA0095801051
B1228313656571N00520070WA0095501047
B1228323656574N00520063WA0095201044
B1228333656576N00520056WA0095001042
B1228343656578N00520050WA0094801040
B1228353656578N00520043WA0094501037
B1228363656577N00520035WA0094201034
B1228373656576N00520027WA0093901031
B1228383656575N00520020WA0093801029
B1228393656574N00520014WA0093701028
B1228403656572N00520008WA0093401025
B1228413656571N00520002WA0093101022
B1228423656570N00519995WA0092701018
B1228433656570N00519988WA0092401015
B1228443656570N00519981WA0092101012
B1228453656571N00519975WA0091901009
B1228463656573N00519969WA0091601006
B1228473656575N00519963WA0091301004
B1228483656578N00519957WA0091101001
B1228493656581N00519952WA0090800998
B1228503656583N00519946WA0090600996
B1228513656587N00519941WA0090400993
B1228523656590N00519936WA0090200991
B1228533656594N00519931WA0090000988
B1228543656597N00519924WA0089800986
B1228553656600N00519918WA0089700984
B1228563656603N00519912WA0089700983
B1228573656606N00519906WA0089700983
B1228583656608N00519900WA0089700983
B1228593656611N00519894WA0089600982
B1229003656614N00519888WA0089600981
B1229013656618N00519882WA0089700981
B1229023656622N00519878WA0089800982
B1229033656626N00519873WA0089900984
B1229043656630N00519868WA0089900985
B1229053656634N00519864WA0090000986
B1229063656638N00519859WA0090000987
B1229073656643N00519856WA0090100987
B1229083656647N00519852WA0090100987
B1229093656652N00519849WA0090100988
B1229103656656N00519845WA0090000987
B1229113656661N00519842WA0089900987
B1229123656666N00519837WA0089800987
B1229133656671N00519832WA0089700986
B1229143656675N00519827WA0089600986
B1229153656678N00519820WA0089700986
B1229163656680N00519813WA0089600985
B1229173656681N00519805WA0089400984
B1229183656682N00519798WA0089300984
B1229193656682N00519790WA0089200983
B1229203656681N00519782WA0089100982
B1229213656680N00519774WA0089100980
B1229223656678N00519766WA0089000979
B1229233656676N00519758WA0089000979
B1229243656674N00519750WA0089100979
B1229253656672N00519743WA0089100979
B1229263656669N00519736WA0089200980
B1229273656668N00519729WA0089200981
B1229283656666N00519722WA0089300981
B1229293656664N00519716WA0089300981
B1229303656662N00519710WA0089100980
B1229313656659N00519704WA0089000979
B1229323656657N00519697WA0088800978
B1229333656655N00519689WA0088700976
B1229343656653N00519681WA0088500975
B1229353656653N00519672WA0088400974
B1229363656653N00519663WA0088600974
B1229373656653N00519655WA0088700974
B1229383656654N00519648WA0088900975
B1229393656654N00519641WA0089000975
B1229403656655N00519634WA0089000976
B1229413656657N00519627WA0088900976
B1229423656660N00519622WA0088900976
B1229433656665N00519618WA0088700976
B1229443656670N00519616WA0088700975
B1229453656675N00519614WA0088800975
B1229463656680N00519613WA0088800976
B1229473656685N00519611WA0088900976
B1229483656690N00519611WA0088900976
B1229493656695N00519611WA0089000977
B1229503656699N00519613WA0089100978
B1229513656701N00519617WA0089100979
B1229523656701N00519622WA0089100979
B1229533656700N00519627WA0089000979
B1229543656697N00519631WA0089000978
B1229553656692N00519634WA0089000978
B1229563656687N00519636WA0089000977
B1229573656682N00519635WA0089100977
B1229583656676N00519634WA0089000977
B1229593656670N00519631WA0089100976
B1230003656664N00519627WA0089100976
B1230013656659N00519623WA0089100976
B1230023656654N00519618WA0089200977
B1230033656649N00519614WA0089400979
B1230043656644N00519611WA0089500980
B1230053656638N00519608WA0089600981
B1230063656633N00519604WA0089700982
B1230073656628N00519598WA0089700983
B1230083656625N00519591WA0089700983
B1230093656623N00519583WA0089500983
B1230103656624N00519576WA0089300983
B1230113656626N00519569WA0089200981
B1230123656630N00519563WA0089100981
B1230133656635N00519558WA0089200980
B1230143656639N00519554WA0089400981
B1230153656644N00519549WA0089500982
B1230163656648N00519545WA0089600984
B1230173656652N00519542WA0089800985
B1230183656658N00519540WA0089800985
B1230193656663N00519541WA0089900986
B1230203656666N00519544WA0089900987
B1230213656668N00519549WA0089800987
B1230223656667N00519555WA0089700987
B1230233656665N00519560WA0089600986
B1230243656661N00519564WA0089700986
B1230253656658N00519567WA0089700986
B1230263656652N00519568WA0089500985
B1230273656646N00519568WA0089200983
B1230283656639N00519567WA0089100980
B1230293656631N00519565WA0089000979
B1230303656624N00519562WA0089100979
B1230313656618N00519561WA0089300981
B1230323656612N00519561WA0089500982
B1230333656606N00519561WA0089600983
B1230343656601N00519560WA0089600983
B1230353656596N00519557WA0089600983
B1230363656591N00519551WA0089400983
B1230373656588N00519544WA0089300982
B1230383656586N00519536WA0089100981
B1230393656587N00519528WA0089100979
B1230403656588N00519520WA0089100979
B1230413656589N00519513WA0089100978
B1230423656591N00519506WA0089200978
B1230433656593N00519498WA0089200978
B1230443656594N00519491WA0089200978
B1230453656595N00519484WA0089300978
B1230463656597N00519478WA0089400979
B1230473656599N00519471WA0089400979
B1230483656602N00519465WA0089400979
B1230493656606N00519460WA0089300979
B1230503656611N00519457WA0089300978
B1230513656616N00519454WA0089300979
B1230523656620N00519453WA0089400979
B1230533656624N00519453WA0089400980
B1230543656628N00519453WA0089300980
B1230553656632N00519455WA0089300979
B1230563656636N00519458WA0089200979
B1230573656640N00519461WA0089300979
B1230583656643N00519464WA0089300979
B1230593656645N00519468WA0089300979
B1231003656646N00519473WA0089100979
B1231013656645N00519478WA0089100978
B1231023656642N00519483WA0089100977
B1231033656638N00519486WA0089100976
B1231043656633N00519488WA0089000976
B1231053656627N00519488WA0088900975
B1231063656621N00519487WA0088800974
B1231073656615N00519482WA0088800973
B1231083656608N00519477WA0088900973
B1231093656602N00519473WA0089100974
B1231103656597N00519470WA0089300977
B1231113656592N00519469WA0089400979
B1231123656588N00519468WA0089400979
B1231133656583N00519466WA0089300979
B1231143656577N00519464WA0089100978
B1231153656571N00519462WA0089100978
B1231163656565N00519460WA0089100978
B1231173656560N00519457WA0089100978
B1231183656555N00519454WA0089100978
B1231193656551N00519451WA0089000978
B1231203656546N00519446WA0088700977
B1231213656543N00519440WA0088500975
B1231223656541N00519432WA0088100972
B1231233656541N00519423WA0088000970
B1231243656543N00519415WA0087900969
B1231253656546N00519408WA0087900968
B1231263656548N00519402WA0087900967
B1231273656551N00519397WA0088000966
B1231283656555N00519392WA0087800965
B1231293656560N00519388WA0087700964
B1231303656565N00519386WA0087600963
B1231313656570N00519386WA0087500962
B1231323656574N00519387WA0087400961
B1231333656579N00519388WA0087400960
B1231343656583N00519389WA0087400960
B1231353656587N00519389WA0087400960
B1231363656592N00519390WA0087500960
B1231373656595N00519391WA0087500960
B1231383656598N00519393WA0087600961
B1231393656600N00519396WA0087600961
B1231403656601N00519401WA0087600961
B1231413656601N00519405WA0087600961
B1231423656600N00519410WA0087600961
B1231433656598N00519415WA0087700961
B1231443656595N00519418WA0087800962
B1231453656591N00519421WA0087900962
B1231463656586N00519423WA0087900963
B1231473656581N00519424WA0088000963
B1231483656576N00519423WA0087900964
B1231493656570N00519421WA0087900964
B1231503656565N00519418WA0087800963
B1231513656559N00519414WA0087800963
B1231523656555N00519410WA0087900964
B1231533656551N00519405WA0087900964
B1231543656548N00519398WA0087900964
B1231553656546N00519391WA0087700964
B1231563656546N00519383WA0087600963
B1231573656546N00519376WA0087500962
B1231583656547N00519369WA0087300961
B1231593656549N00519361WA0087200960
B1232003656553N00519355WA0087000958
B1232013656557N00519349WA0086900957
B1232023656561N00519343WA0087000956
B1232033656565N00519338WA0087100956
B1232043656568N00519332WA0087200956
B1232053656572N00519327WA0087200957
B1232063656575N00519321WA0087200957
B1232073656578N00519315WA0087100957
B1232083656580N00519307WA0087000957
B1232093656580N00519299WA0087000957
B1232103656579N00519291WA0086900956
B1232113656577N00519284WA0086800956
B1232123656574N00519277WA0086700955
B1232133656570N00519272WA0086700955
B1232143656565N00519268WA0086500954
B1232153656560N00519265WA0086500952
B1232163656554N00519263WA0086300951
B1232173656549N00519262WA0086200950
B1232183656544N00519262WA0086100949
B1232193656539N00519262WA0086000948
B1232203656534N00519263WA0085800946
B1232213656530N00519265WA0085600944
B1232223656527N00519269WA0085400943
B1232233656524N00519272WA0085300941
B1232243656523N00519277WA0085100939
B1232253656522N00519281WA0085100938
B1232263656523N00519285WA0085000937
B1232273656524N00519289WA0084900936
B1232283656527N00519292WA0084800935
B1232293656531N00519293WA0084700934
B1232303656535N00519294WA0084600933
B1232313656539N00519294WA0084400933
B1232323656544N00519293WA0084500932
B1232333656549N00519292WA0084500932
B1232343656553N00519289WA0084500932
B1232353656558N00519286WA0084500932
B1232363656563N00519283WA0084400932
B1232373656568N00519280WA0084400931
B1232383656572N00519278WA0084400932
B1232393656577N00519274WA0084500931
B1232403656581N00519271WA0084500931
B1232413656585N00519267WA0084500932
B1232423656589N00519262WA0084300931
B1232433656592N00519256WA0084300931
B1232443656594N00519249WA0084100930
B1232453656596N00519241WA0084000929
B1232463656596N00519233WA0083800928
B1232473656595N00519224WA0083700927
B1232483656595N00519216WA0083600926
B1232493656595N00519207WA0083400925
B1232503656593N00519199WA0083400924
B1232513656591N00519191WA0083300922
B1232523656588N00519183WA0083300920
B1232533656585N00519175WA0083200919
B1232543656581N00519168WA0083200920
B1232553656578N00519162WA0083300921
B1232563656574N00519156WA0083300921
B1232573656571N00519150WA0083200920
B1232583656568N00519143WA0083000918
B1232593656564N00519136WA0082900916
B1233003656561N00519128WA0082700915
B1233013656559N00519120WA0082800914
B1233023656558N00519112WA0082900915
B1233033656556N00519105WA0082900915
B1233043656555N00519097WA0082900915
B1233053656553N00519089WA0082800915
B1233063656552N00519081WA0082600914
B1233073656552N00519072WA0082500914
B1233083656553N00519063WA0082500913
B1233093656555N00519055WA0082700914
B1233103656556N00519048WA0082800914
B1233113656557N00519041WA0082800914
B1233123656559N00519033WA0082700914
B1233133656562N00519026WA0082500913
B1233143656566N00519020WA0082500912
B1233153656571N00519017WA0082500911
B1233163656576N00519015WA0082400910
B1233173656580N00519014WA0082400909
B1233183656584N00519016WA0082300908
B1233193656587N00519018WA0082300908
B1233203656589N00519021WA0082400908
B1233213656591N00519024WA0082400908
B1233223656592N00519029WA0082500908
B1233233656592N00519034WA0082400908
B1233243656591N00519039WA0082500908
B1233253656591N00519044WA0082600908
B1233263656591N00519048WA0082700910
B1233273656592N00519051WA0082900911
B1233283656593N00519054WA0082900911
B1233293656593N00519058WA0082700910
B1233303656593N00519062WA0082500909
B1233313656593N00519066WA0082500909
B1233323656591N00519070WA0082400909
B1233333656588N00519073WA0082300908
B1233343656585N00519075WA0082000907
B1233353656581N00519077WA0082000906
B1233363656577N00519079WA0082000905
B1233373656574N00519081WA0081900904
B1233383656571N00519084WA0081800904
B1233393656569N00519087WA0081700903
B1233403656570N00519091WA0081600902
B1233413656572N00519095WA0081400900
B1233423656575N00519098WA0081200898
B1233433656580N00519099WA0081100896
B1233443656585N00519097WA0080700894
B1233453656590N00519092WA0080500892
B1233463656594N00519085WA0080200890
B1233473656595N00519076WA0079900888
B1233483656596N00519066WA0079800886
B1233493656597N00519057WA0079700884
B1233503656597N00519049WA0079800883
B1233513656599N00519041WA0079800882
B1233523656600N00519034WA0079600881
B1233533656601N00519027WA0079500880
B1233543656602N00519019WA0079300878
B1233553656603N00519010WA0079000876
B1233563656605N00519001WA0078800874
B1233573656608N00518993WA0078500873
B1233583656610N00518986WA0078500871
B1233593656610N00518978WA0078400870
B1234003656611N00518970WA0078200868
B1234013656613N00518961WA0078000866
B1234023656614N00518953WA0077900864
B1234033656615N00518943WA0077800863
B1234043656615N00518935WA0077800862
B1234053656615N00518928WA0077900862
B1234063656616N00518921WA0078000863
B1234073656618N00518915WA0078000863
B1234083656620N00518908WA0078000863
B1234093656623N00518902WA0078100862
B1234103656626N00518895WA0078300864
B1234113656627N00518889WA0078600866
B1234123656626N00518883WA0079000869
B1234133656623N00518877WA0079200872
B1234143656617N00518873WA0079200873
B1234153656611N00518874WA0079300874
B1234163656607N00518878WA0079500875
B1234173656604N00518883WA0079700877
B1234183656604N00518889WA0079800878
B1234193656608N00518892WA0079700880
B1234203656613N00518892WA0079800881
B1234213656618N00518889WA0079800881
B1234223656622N00518883WA0079900883
B1234233656625N00518877WA0080100885
B1234243656626N00518869WA0080300887
B1234253656626N00518862WA0080700888
B1234263656623N00518856WA0080800891
B1234273656619N00518853WA0081000892
B1234283656613N00518851WA0081100893
B1234293656607N00518853WA0081200894
B1234303656603N00518857WA0081300894
B1234313656600N00518862WA0081600896
B1234323656600N00518868WA0081600897
B1234333656602N00518872WA0081700900
B1234343656605N00518874WA0081700902
B1234353656609N00518874WA0081800902
B1234363656614N00518872WA0081700902
B1234373656619N00518869WA0081800903
B1234383656623N00518865WA0082100904
B1234393656627N00518860WA0082400907
B1234403656629N00518855WA0082500909
B1234413656631N00518849WA0082600911
B1234423656631N00518842WA0082700911
B1234433656629N00518835WA0082800912
B1234443656626N00518829WA0083000913
B1234453656621N00518825WA0083300914
B1234463656615N00518825WA0083400916
B1234473656610N00518827WA0083500917
B1234483656607N00518832WA0083600918
B1234493656606N00518838WA0083600918
B1234503656607N00518844WA0083700918
B1234513656612N00518847WA0083800919
B1234523656617N00518847WA0083700920
B1234533656622N00518844WA0083600920
B1234543656625N00518838WA0083800921
B1234553656627N00518831WA0083900922
B1234563656627N00518824WA0084200923
B1234573656626N00518817WA0084300925
B1234583656624N00518810WA0084600927
B1234593656621N00518804WA0084800929
B1235003656618N00518798WA0085000932
B1235013656614N00518793WA0085300933
B1235023656610N00518789WA0085500936
B1235033656604N00518787WA0085700939
B1235043656599N00518790WA0085800941
B1235053656594N00518794WA0085900941
B1235063656592N00518800WA0086100941
B1235073656593N00518806WA0086000942
B1235083656597N00518810WA0086200943
B1235093656602N00518811WA0086100943
B1235103656607N00518808WA0086000944
B1235113656611N00518803WA0086100945
B1235123656614N00518798WA0086200947
B1235133656615N00518792WA0086400948
B1235143656616N00518785WA0086600949
B1235153656616N00518779WA0086900951
B1235163656615N00518772WA0087200954
B1235173656612N00518766WA0087400957
B1235183656609N00518760WA0087900959
B1235193656604N00518757WA0088100962
B1235203656598N00518756WA0088300964
B1235213656592N00518759WA0088400966
B1235223656589N00518765WA0088600967
B1235233656588N00518771WA0088800968
B1235243656591N00518776WA0088700969
B1235253656596N00518778WA0088400969
B1235263656602N00518777WA0088300969
B1235273656608N00518773WA0088400968
B1235283656612N00518768WA0088600969
B1235293656615N00518763WA0088900971
B1235303656618N00518757WA0089100973
B1235313656620N00518751WA0089300976
B1235323656623N00518744WA0089500977
B1235333656625N00518737WA0089800980
B1235343656625N00518729WA0090400983
B1235353656624N00518722WA0090700988
B1235363656621N00518716WA0091000992
B1235373656616N00518712WA0091200995
B1235383656611N00518710WA0091500997
B1235393656606N00518712WA0091701001
B1235403656603N00518717WA0091901003
B1235413656603N00518722WA0092200997
B1235423656605N00518726WA0092601000
B1235433656609N00518728WA0093001004
B1235443656613N00518729WA0093201006
B1235453656618N00518728WA0093501009
B1235463656623N00518726WA0093901012
B1235473656626N00518722WA0094201015
B1235483656629N00518718WA0094701019
B1235493656629N00518712WA0095001024
B1235503656627N00518706WA0095201028
B1235513656622N00518701WA0095401032
B1235523656615N00518700WA0095801034
B1235533656611N00518702WA0096101038
B1235543656607N00518707WA0096301041
B1235553656607N00518713WA0096401043
B1235563656611N00518718WA0096601046
B1235573656615N00518721WA0097101049
B1235583656620N00518721WA0097401052
B1235593656624N00518718WA0097701056
B1236003656626N00518712WA0097901059
B1236013656626N00518704WA0098201062
B1236023656624N00518696WA0098401066
B1236033656619N00518688WA0098901070
B1236043656615N00518683WA0099401076
B1236053656610N00518679WA0099801081
B1236063656606N00518676WA0100201085
B1236073656601N00518674WA0100501088
B1236083656595N00518673WA0100701092
B1236093656589N00518673WA0101001094
B1236103656584N00518675WA0101301097
B1236113656579N00518678WA0101601100
B1236123656574N00518682WA0101701103
B1236133656572N00518688WA0101901106
B1236143656571N00518695WA0101801106
B1236153656572N00518701WA0101801107
B1236163656573N00518707WA0102201109
B1236173656575N00518711WA0102301111
B1236183656578N00518715WA0102301111
B1236193656582N00518718WA0102201111
B1236203656588N00518720WA0102201112
B1236213656594N00518720WA0102301112
B1236223656598N00518718WA0102601114
B1236233656603N00518713WA0102801115
B1236243656605N00518707WA0102801117
B1236253656607N00518701WA0103001119
B1236263656608N00518693WA0103301121
B1236273656609N00518687WA0103601123
B1236283656610N00518680WA0103901125
B1236293656610N00518673WA0104201127
B1236303656611N00518666WA0104501130
B1236313656611N00518659WA0104801133
B1236323656608N00518651WA0105001136
B1236333656603N00518646WA0105101138
B1236343656597N00518643WA0105301140
B1236353656591N00518646WA0105501142
B1236363656588N00518652WA0105701144
B1236373656590N00518659WA0105701145
B1236383656593N00518663WA0105901145
B1236393656598N00518663WA0106201146
B1236403656603N00518661WA0106401148
B1236413656606N00518654WA0106701150
B1236423656607N00518646WA0107101152
B1236433656605N00518638WA0107401155
B1236443656600N00518632WA0107601158
B1236453656594N00518630WA0107701160
B1236463656588N00518631WA0108101162
B1236473656584N00518635WA0108201164
B1236483656582N00518639WA0108401167
B1236493656581N00518644WA0108501164
B1236503656583N00518648WA0108701164
B1236513656587N00518652WA0108701164
B1236523656591N00518653WA0108801165
B1236533656596N00518652WA0109001166
B1236543656601N00518648WA0109301166
B1236553656604N00518643WA0109601168
B1236563656607N00518636WA0109901170
B1236573656608N00518627WA0110001172
B1236583656607N00518618WA0110201175
B1236593656604N00518610WA0110401178
B1237003656599N00518604WA0110701181
B1237013656593N00518602WA0111001185
B1237023656587N00518602WA0111101188
B1237033656583N00518606WA0111101190
B1237043656582N00518612WA0111201192
B1237053656582N00518619WA0111201194
B1237063656583N00518625WA0111301195
B1237073656585N00518630WA0111601197
B1237083656589N00518633WA0111801200
B1237093656595N00518634WA0112001202
B1237103656600N00518632WA0112201205
B1237113656605N00518629WA0112501207
B1237123656609N00518625WA0112801211
B1237133656613N00518618WA0113101215
B1237143656614N00518610WA0113401219
B1237153656613N00518602WA0113701222
B1237163656610N00518594WA0113801223
B1237173656605N00518589WA0113801224
B1237183656599N00518586WA0114001226
B1237193656594N00518588WA0114201229
B1237203656591N00518591WA0114401230
B1237213656590N00518597WA0114601228
B1237223656591N00518603WA0114701227
B1237233656594N00518606WA0114901228
B1237243656600N00518608WA0115101229
B1237253656605N00518606WA0115401231
B1237263656611N00518601WA0115601235
B1237273656614N00518594WA0115801238
B1237283656616N00518585WA0116201241
B1237293656616N00518575WA0116501244
B1237303656613N00518568WA0116601248
B1237313656609N00518563WA0116801250
B1237323656603N00518561WA0117001252
B1237333656597N00518562WA0116901254
B1237343656592N00518566WA0116901255
B1237353656589N00518572WA0117101257
B1237363656589N00518577WA0117201259
B1237373656591N00518581WA0117101261
B1237383656596N00518584WA0117201261
B1237393656602N00518584WA0117501258
B1237403656607N00518583WA0117901258
B1237413656611N00518580WA0118201259
B1237423656615N00518576WA0118401262
B1237433656619N00518572WA0118701264
B1237443656623N00518565WA0118901266
B1237453656626N00518558WA0119001268
B1237463656627N00518549WA0119101270
B1237473656626N00518541WA0119301271
B1237483656621N00518535WA0119301272
B1237493656615N00518531WA0119501275
B1237503656610N00518530WA0119701279
B1237513656605N00518532WA0119801281
B1237523656602N00518536WA0119901283
B1237533656601N00518541WA0119801283
B1237543656603N00518547WA0119701284
B1237553656607N00518551WA0119701284
B1237563656613N00518554WA0120001283
B1237573656619N00518555WA0120201285
B1237583656623N00518552WA0120601287
B1237593656626N00518549WA0121001290
B1238003656630N00518545WA0121301290
B1238013656633N00518541WA0121401291
B1238023656638N00518535WA0121401291
B1238033656642N00518528WA0121601292
B1238043656644N00518520WA0121701292
B1238053656642N00518512WA0121901293
B1238063656638N00518506WA0122101296
B1238073656632N00518503WA0122201299
B1238083656627N00518504WA0122201301
B1238093656623N00518507WA0122401303
B1238103656621N00518512WA0122501305
B1238113656621N00518517WA0122601306
B1238123656623N00518521WA0122901308
B1238133656626N00518525WA0123101310
B1238143656630N00518527WA0123101312
B1238153656634N00518529WA0123401314
B1238163656638N00518532WA0123601317
B1238173656641N00518534WA0123801321
B1238183656644N00518536WA0124001325
B1238193656648N00518536WA0124201328
B1238203656653N00518534WA0124301329
B1238213656657N00518528WA0124401330
B1238223656660N00518520WA0124501331
B1238233656660N00518510WA0124701332
B1238243656658N00518502WA0124801333
B1238253656654N00518496WA0125001336
B1238263656649N00518492WA0125101339
B1238273656643N00518491WA0125301340
B1238283656637N00518491WA0125401343
B1238293656633N00518493WA0125601345
B1238303656629N00518495WA0125901347
B1238313656625N00518497WA0126101343
B1238323656622N00518501WA0126201344
B1238333656621N00518507WA0126201344
B1238343656623N00518513WA0126201345
B1238353656626N00518518WA0126401346
B1238363656631N00518520WA0126601347
B1238373656637N00518519WA0126901349
B1238383656642N00518516WA0126901352
B1238393656646N00518509WA0127101354
B1238403656649N00518502WA0127101356
B1238413656651N00518493WA0127301357
B1238423656651N00518484WA0127501359
B1238433656649N00518476WA0127601362
B1238443656646N00518468WA0127801363
B1238453656641N00518463WA0128001365
B1238463656636N00518461WA0128101367
B1238473656630N00518460WA0128201368
B1238483656625N00518461WA0128401370
B1238493656620N00518462WA0128501373
B1238503656616N00518465WA0128601375
B1238513656613N00518470WA0128701376
B1238523656613N00518475WA0128901378
B1238533656615N00518480WA0129001379
B1238543656618N00518483WA0129101380
B1238553656623N00518484WA0129301382
B1238563656628N00518483WA0129401383
B1238573656633N00518480WA0129501385
B1238583656638N00518474WA0129801386
B1238593656641N00518466WA0129801386
B1239003656643N00518457WA0129601387
B1239013656643N00518448WA0129801389
B1239023656641N00518440WA0130001391
B1239033656639N00518433WA0130101392
B1239043656635N00518428WA0130201394
B1239053656630N00518424WA0130201395
B1239063656624N00518420WA0130301396
B1239073656619N00518417WA0130401397
B1239083656613N00518415WA0130501398
B1239093656607N00518415WA0130601400
B1239103656602N00518416WA0130701401
B1239113656598N00518420WA0130701402
B1239123656595N00518426WA0130901402
B1239133656595N00518432WA0131001403
B1239143656597N00518437WA0131101404
B1239153656600N00518442WA0131201406
B1239163656603N00518446WA0131401408
B1239173656606N00518448WA0131701410
B1239183656610N00518450WA0131901412
B1239193656614N00518450WA0132001414
B1239203656618N00518451WA0132001415
B1239213656623N00518451WA0132101416
B1239223656628N00518450WA0132201417
B1239233656632N00518448WA0132401417
B1239243656636N00518443WA0132501418
B1239253656640N00518436WA0132501418
B1239263656641N00518428WA0132401418
B1239273656640N00518419WA0132301418
B1239283656638N00518412WA0132401419
B1239293656635N00518406WA0132501421
B1239303656631N00518401WA0132601422
B1239313656626N00518397WA0132601423
B1239323656621N00518393WA0132601423
B1239333656616N00518391WA0132701424
B1239343656610N00518389WA0132801425
B1239353656606N00518388WA0132901426
B1239363656601N00518388WA0133101427
B1239373656597N00518389WA0133101427
B1239383656593N00518392WA0133201428
B1239393656590N00518396WA0133101428
B1239403656589N00518401WA0133001428
B1239413656589N00518406WA0133001428
B1239423656591N00518410WA0133101429
B1239433656594N00518415WA0133201429
B1239443656597N00518420WA0133401430
B1239453656600N00518423WA0133601432
B1239463656603N00518425WA0133701434
B1239473656606N00518427WA0133801435
B1239483656610N00518429WA0133901436
B1239493656614N00518432WA0134101437
B1239503656617N00518435WA0134201439
B1239513656621N00518438WA0134401440
B1239523656625N00518440WA0134601442
B1239533656629N00518442WA0134801444
B1239543656634N00518442WA0135001446
B1239553656638N00518440WA0135201448
B1239563656642N00518436WA0135401450
B1239573656646N00518430WA0135401450
B1239583656648N00518422WA0135601450
B1239593656648N00518414WA0135601451
B1240003656645N00518407WA0135601453
B1240013656641N00518403WA0135701453
B1240023656635N00518401WA0135701453
B1240033656630N00518402WA0135601454
B1240043656625N00518405WA0135601454
B1240053656623N00518410WA0135701454
B1240063656621N00518415WA0135801454
B1240073656621N00518421WA0136001456
B1240083656621N00518426WA0136301458
B1240093656623N00518431WA0136401459
B1240103656625N00518435WA0136501461
B1240113656627N00518439WA0136701462
B1240123656630N00518443WA0136701463
B1240133656633N00518446WA0136701463
B1240143656637N00518449WA0136601463
B1240153656642N00518450WA0136701463
B1240163656647N00518449WA0136901464
B1240173656652N00518445WA0137001465
B1240183656656N00518439WA0137001466
B1240193656658N00518431WA0137101465
B1240203656658N00518423WA0137301466
B1240213656656N00518416WA0137501469
B1240223656652N00518411WA0137501470
B1240233656647N00518407WA0137601471
B1240243656643N00518404WA0137901473
B1240253656638N00518402WA0138001474
B1240263656633N00518401WA0138101475
B1240273656628N00518401WA0138101475
B1240283656622N00518402WA0138001475
B1240293656617N00518405WA0138101476
B1240303656614N00518408WA0138201477
B1240313656611N00518413WA0138401479
B1240323656609N00518417WA0138601481
B1240333656609N00518422WA0138701483
B1240343656609N00518426WA0138701484
B1240353656611N00518431WA0138801485
B1240363656614N00518435WA0138901486
B1240373656618N00518436WA0138901487
B1240383656623N00518436WA0139001487
B1240393656628N00518432WA0139001487
B1240403656632N00518427WA0139001486
B1240413656635N00518421WA0138801485
B1240423656636N00518414WA0138701485
B1240433656636N00518407WA0138501484
B1240443656634N00518400WA0138501483
B1240453656630N00518393WA0138401483
B1240463656625N00518389WA0138401484
B1240473656621N00518386WA0138601485
B1240483656616N00518385WA0138801486
B1240493656612N00518385WA0138901487
B1240503656609N00518386WA0138901487
B1240513656605N00518388WA0138901486
B1240523656602N00518391WA0138901486
B1240533656600N00518395WA0138901486
B1240543656599N00518400WA0138801485
B1240553656600N00518404WA0138901485
B1240563656602N00518409WA0139001485
B1240573656604N00518414WA0139001485
B1240583656607N00518418WA0139001486
B1240593656611N00518422WA0139201488
B1241003656616N00518424WA0139301489
B1241013656620N00518425WA0139501490
B1241023656624N00518427WA0139501492
B1241033656627N00518429WA0139701493
B1241043656631N00518432WA0139701493
B1241053656633N00518436WA0139801493
B1241063656634N00518441WA0139601493
B1241073656635N00518447WA0139701493
B1241083656635N00518452WA0139801494
B1241093656636N00518456WA0140001495
B1241103656639N00518461WA0140001496
B1241113656643N00518466WA0140201497
B1241123656647N00518469WA0140301498
B1241133656651N00518472WA0140601500
B1241143656655N00518473WA0140701502
B1241153656659N00518473WA0140801503
B1241163656664N00518471WA0141001504
B1241173656668N00518466WA0141001505
B1241183656670N00518459WA0141001505
B1241193656669N00518452WA0141101505
B1241203656666N00518446WA0141301507
B1241213656661N00518442WA0141401508
B1241223656655N00518443WA0141501509
B1241233656650N00518447WA0141601510
B1241243656648N00518453WA0141701512
B1241253656648N00518459WA0141801513
B1241263656649N00518464WA0141901513
B1241273656653N00518468WA0142001513
B1241283656657N00518470WA0142001513
B1241293656663N00518471WA0142001513
B1241303656668N00518468WA0142101513
B1241313656673N00518463WA0142201513
B1241323656676N00518457WA0142201514
B1241333656676N00518449WA0142201514
B1241343656675N00518441WA0142301515
B1241353656672N00518435WA0142601518
B1241363656668N00518430WA0142801520
B1241373656663N00518428WA0142901522
B1241383656657N00518426WA0143001523
B1241393656652N00518427WA0143201525
B1241403656648N00518431WA0143401526
B1241413656645N00518436WA0143501527
B1241423656645N00518443WA0143501528
B1241433656648N00518448WA0143501529
B1241443656651N00518452WA0143401528
B1241453656656N00518454WA0143401528
B1241463656662N00518455WA0143401527
B1241473656667N00518452WA0143401527
B1241483656671N00518447WA0143301527
B1241493656673N00518440WA0143201528
B1241503656674N00518432WA0143201527
B1241513656673N00518424WA0143301527
B1241523656671N00518416WA0143501529
B1241533656668N00518409WA0143701531
B1241543656664N00518403WA0143901533
B1241553656660N00518398WA0144101534
B1241563656656N00518394WA0144301535
B1241573656650N00518390WA0144501537
B1241583656645N00518389WA0144601539
B1241593656640N00518389WA0144601540
B1242003656635N00518392WA0144601540
B1242013656630N00518397WA0144801541
B1242023656628N00518402WA0144901543
B1242033656627N00518408WA0145101545
B1242043656628N00518413WA0145201547
B1242053656631N00518417WA0145201548
B1242063656634N00518419WA0145301549
B1242073656639N00518420WA0145201550
B1242083656644N00518420WA0145101548
B1242093656649N00518417WA0145101548
B1242103656654N00518412WA0145001547
B1242113656657N00518406WA0145001547
B1242123656659N00518398WA0145101547
B1242133656660N00518390WA0145401549
B1242143656659N00518382WA0145601552
B1242153656658N00518374WA0145801554
B1242163656657N00518367WA0145901555
B1242173656654N00518360WA0146001557
B1242183656651N00518355WA0146101558
B1242193656646N00518352WA0146201559
B1242203656641N00518353WA0146201560
B1242213656637N00518357WA0146201560
B1242223656635N00518362WA0146201560
B1242233656636N00518368WA0146201560
B1242243656638N00518373WA0146301560
B1242253656643N00518376WA0146301560
B1242263656648N00518377WA0146401561
B1242273656653N00518377WA0146601561
B1242283656658N00518374WA0146701561
B1242293656662N00518370WA0147001563
B1242303656664N00518364WA0147101565
B1242313656665N00518358WA0147201566
B1242323656665N00518351WA0147201567
B1242333656662N00518346WA0147201567
B1242343656657N00518342WA0147201567
B1242353656650N00518341WA0147101568
B1242363656645N00518341WA0147301569
B1242373656641N00518344WA0147301570
B1242383656637N00518347WA0147401571
B1242393656636N00518352WA0147601571
B1242403656636N00518356WA0147601571
B1242413656637N00518361WA0147601572
B1242423656641N00518364WA0147501572
B1242433656645N00518367WA0147701572
B1242443656651N00518367WA0147701572
B1242453656656N00518364WA0147701572
B1242463656661N00518359WA0147701573
B1242473656665N00518352WA0147801574
B1242483656667N00518345WA0147901574
B1242493656669N00518338WA0148001575
B1242503656670N00518331WA0148101576
B1242513656669N00518324WA0148101577
B1242523656668N00518318WA0148101577
B1242533656665N00518313WA0148201577
B1242543656661N00518310WA0148201578
B1242553656657N00518309WA0148001578
B1242563656652N00518310WA0147801576
B1242573656647N00518313WA0147601575
B1242583656643N00518318WA0147401573
B1242593656641N00518324WA0147401572
B1243003656640N00518330WA0147401571
B1243013656640N00518336WA0147501571
B1243023656640N00518341WA0147501571
B1243033656641N00518346WA0147601572
B1243043656642N00518351WA0147701573
B1243053656644N00518356WA0147601573
B1243063656645N00518361WA0147601573
B1243073656645N00518367WA0147501572
B1243083656645N00518372WA0147401572
B1243093656645N00518378WA0147501571
B1243103656644N00518384WA0147501571
B1243113656643N00518390WA0147401570
B1243123656643N00518395WA0147301569
B1243133656644N00518401WA0147301569
B1243143656646N00518405WA0147301569
B1243153656649N00518409WA0147201568
B1243163656653N00518410WA0146901567
B1243173656659N00518410WA0146701566
B1243183656665N00518407WA0146701565
B1243193656669N00518401WA0146801564
B1243203656672N00518395WA0146801563
B1243213656673N00518388WA0146801562
B1243223656673N00518381WA0146801562
B1243233656673N00518375WA0146801562
B1243243656674N00518369WA0146701562
B1243253656676N00518363WA0146601562
B1243263656679N00518358WA0146501562
B1243273656682N00518352WA0146501561
B1243283656685N00518348WA0146601563
B1243293656687N00518343WA0146601563
B1243303656689N00518338WA0146501563
B1243313656689N00518332WA0146301562
B1243323656688N00518327WA0146101561
B1243333656684N00518321WA0146001559
B1243343656679N00518317WA0145701557
B1243353656673N00518315WA0145401555
B1243363656667N00518315WA0145401554
B1243373656663N00518315WA0145601555
B1243383656659N00518316WA0145601554
B1243393656654N00518316WA0145501553
B1243403656649N00518318WA0145101550
B1243413656643N00518321WA0144901548
B1243423656637N00518323WA0144701547
B1243433656632N00518324WA0144901546
B1243443656627N00518326WA0145101547
B1243453656622N00518329WA0145101547
B1243463656618N00518332WA0145101546
B1243473656613N00518335WA0145101546
B1243483656608N00518338WA0145001545
B1243493656602N00518340WA0145001544
B1243503656597N00518343WA0145001544
B1243513656592N00518346WA0145101544
B1243523656588N00518349WA0145101545
B1243533656582N00518351WA0145101545
B1243543656576N00518353WA0145101545
B1243553656570N00518355WA0145201545
B1243563656563N00518356WA0145301545
B1243573656557N00518357WA0145501547
B1243583656551N00518357WA0145701549
B1243593656545N00518356WA0145801551
B1244003656539N00518356WA0146001552
B1244013656533N00518357WA0146001553
B1244023656526N00518360WA0146001554
B1244033656521N00518363WA0146001554
B1244043656516N00518368WA0146101555
B1244053656513N00518373WA0146101556
B1244063656511N00518377WA0146101556
B1244073656510N00518382WA0146101556
B1244083656510N00518387WA0146001556
B1244093656511N00518392WA0145901555
B1244103656513N00518395WA0145801554
B1244113656517N00518398WA0145601553
B1244123656521N00518399WA0145601553
B1244133656525N00518399WA0145701554
B1244143656529N00518399WA0145901554
B1244153656533N00518399WA0146001555
B1244163656536N00518399WA0146101556
B1244173656538N00518401WA0146101556
B1244183656541N00518403WA0146201557
B1244193656543N00518406WA0146301558
B1244203656545N00518409WA0146301559
B1244213656547N00518411WA0146401560
B1244223656550N00518413WA0146501561
B1244233656553N00518414WA0146601561
B1244243656557N00518414WA0146701562
B1244253656561N00518411WA0146801563
B1244263656565N00518406WA0146901563
B1244273656567N00518399WA0147101564
B1244283656566N00518391WA0147301565
B1244293656563N00518383WA0147401566
B1244303656557N00518377WA0147301566
B1244313656550N00518374WA0147001566
B1244323656543N00518374WA0147001566
B1244333656537N00518376WA0147201567
B1244343656533N00518379WA0147401569
B1244353656530N00518384WA0147301569
B1244363656529N00518389WA0147401570
B1244373656529N00518394WA0147401570
B1244383656529N00518398WA0147501569
B1244393656530N00518402WA0147601569
B1244403656531N00518407WA0147701570
B1244413656532N00518412WA0147901570
B1244423656532N00518417WA0148001572
B1244433656533N00518422WA0148101573
B1244443656534N00518426WA0148201575
B1244453656537N00518428WA0148301577
B1244463656540N00518427WA0148301577
B1244473656544N00518424WA0148201577
B1244483656548N00518418WA0148201576
B1244493656549N00518410WA0148301576
B1244503656548N00518402WA0148201577
B1244513656545N00518394WA0148201577
B1244523656540N00518388WA0148401577
B1244533656534N00518385WA0148601578
B1244543656528N00518385WA0148601580
B1244553656522N00518387WA0148801581
B1244563656517N00518391WA0149001582
B1244573656513N00518395WA0149101584
B1244583656511N00518399WA0149301586
B1244593656511N00518403WA0149401588
B1245003656511N00518407WA0149301589
B1245013656513N00518411WA0149201590
B1245023656516N00518416WA0149101590
B1245033656518N00518419WA0149101591
B1245043656521N00518422WA0149301592
B1245053656524N00518425WA0149401593
B1245063656527N00518427WA0149501594
B1245073656529N00518429WA0149601594
B1245083656531N00518432WA0149601594
B1245093656534N00518434WA0149601594
B1245103656537N00518435WA0149601594
B1245113656540N00518434WA0149601594
B1245123656543N00518430WA0149601594
B1245133656546N00518423WA0149401593
B1245143656547N00518414WA0149201592
B1245153656545N00518405WA0149101591
B1245163656542N00518396WA0149301592
B1245173656539N00518388WA0149601594
B1245183656535N00518381WA0149901597
B1245193656531N00518375WA0150101599
B1245203656526N00518370WA0150101600
B1245213656521N00518365WA0150101601
B1245223656515N00518362WA0150201602
B1245233656509N00518361WA0150201602
B1245243656503N00518362WA0150201601
B1245253656498N00518365WA0150001601
B1245263656493N00518369WA0150001601
B1245273656490N00518373WA0150101601
B1245283656489N00518377WA0150101600
B1245293656490N00518382WA0149901599
B1245303656492N00518385WA0149801597
B1245313656496N00518386WA0149701597
B1245323656499N00518384WA0149701596
B1245333656503N00518379WA0149601595
B1245343656505N00518374WA0149701595
B1245353656507N00518368WA0149801596
B1245363656506N00518361WA0149901596
B1245373656505N00518353WA0149901596
B1245383656503N00518346WA0150001597
B1245393656500N00518339WA0150201598
B1245403656497N00518333WA0150301600
B1245413656493N00518327WA0150301601
B1245423656488N00518323WA0150301601
B1245433656482N00518322WA0150201601
B1245443656476N00518324WA0150001599
B1245453656472N00518328WA0149801598
B1245463656469N00518333WA0149701597
B1245473656467N00518338WA0149701597
B1245483656467N00518343WA0149701596
B1245493656467N00518349WA0149601595
B1245503656467N00518354WA0149601595
B1245513656467N00518359WA0149701595
B1245523656468N00518364WA0149701595
B1245533656469N00518370WA0149601594
B1245543656471N00518376WA0149601594
B1245553656472N00518382WA0149701594
B1245563656475N00518386WA0149601594
B1245573656478N00518388WA0149401593
B1245583656482N00518390WA0149101591
B1245593656486N00518392WA0149001590
B1246003656490N00518395WA0148901589
B1246013656494N00518397WA0148901588
B1246023656498N00518398WA0148801587
B1246033656503N00518400WA0148701586
B1246043656507N00518403WA0148801586
B1246053656510N00518405WA0148901587
B1246063656514N00518408WA0148901586
B1246073656518N00518411WA0148801586
B1246083656522N00518413WA0148801585
B1246093656527N00518414WA0148801585
B1246103656532N00518413WA0148801585
B1246113656537N00518411WA0148901586
B1246123656541N00518410WA0149101587
B1246133656546N00518409WA0149101588
B1246143656551N00518409WA0149201588
B1246153656555N00518411WA0149201589
B1246163656559N00518414WA0149301590
B1246173656561N00518420WA0149401590
B1246183656561N00518427WA0149401590
B1246193656558N00518433WA0149601591
B1246203656554N00518437WA0149701592
B1246213656548N00518439WA0149901593
B1246223656543N00518437WA0150201594
B1246233656538N00518433WA0150401596
B1246243656535N00518427WA0150501596
B1246253656534N00518420WA0150601597
B1246263656535N00518413WA0150601598
B1246273656537N00518407WA0150801599
B1246283656541N00518403WA0150901600
B1246293656546N00518402WA0150901601
B1246303656550N00518403WA0151001601
B1246313656555N00518406WA0151101601
B1246323656559N00518411WA0151201602
B1246333656561N00518417WA0151201603
B1246343656561N00518424WA0151301605
B1246353656558N00518429WA0151501606
B1246363656553N00518434WA0151701607
B1246373656548N00518435WA0151901609
B1246383656542N00518435WA0152001610
B1246393656537N00518431WA0152001612
B1246403656533N00518425WA0152001612
B1246413656531N00518418WA0152101612
B1246423656530N00518410WA0152201613
B1246433656532N00518403WA0152201614
B1246443656536N00518398WA0152301615
B1246453656542N00518395WA0152301615
B1246463656547N00518394WA0152501616
B1246473656552N00518394WA0152801618
B1246483656557N00518394WA0153001621
B1246493656561N00518393WA0153201624
B1246503656565N00518394WA0153301626
B1246513656570N00518396WA0153401627
B1246523656574N00518399WA0153401628
B1246533656577N00518404WA0153501628
B1246543656579N00518410WA0153501629
B1246553656579N00518416WA0153601630
B1246563656576N00518422WA0153601630
B1246573656572N00518426WA0153801631
B1246583656567N00518428WA0154001633
B1246593656561N00518427WA0154101635
B1247003656557N00518424WA0154101636
B1247013656552N00518418WA0154101636
B1247023656549N00518412WA0154101636
B1247033656546N00518405WA0154201636
B1247043656547N00518397WA0154201637
B1247053656549N00518390WA0154101637
B1247063656554N00518385WA0154001636
B1247073656559N00518381WA0154101635
B1247083656564N00518378WA0154401636
B1247093656569N00518376WA0154801639
B1247103656573N00518374WA0154901641
B1247113656578N00518372WA0155001642
B1247123656583N00518370WA0155101643
B1247133656589N00518369WA0155201644
B1247143656594N00518370WA0155201645
B1247153656600N00518372WA0155301646
B1247163656604N00518377WA0155201646
B1247173656606N00518383WA0155101645
B1247183656605N00518390WA0154901645
B1247193656602N00518396WA0154901644
B1247203656599N00518400WA0155101644
B1247213656596N00518402WA0155201645
B1247223656592N00518403WA0155301646
B1247233656588N00518402WA0155201646
B1247243656583N00518399WA0155101644
B1247253656579N00518394WA0155001643
B1247263656576N00518388WA0155101643
B1247273656575N00518382WA0155401644
B1247283656576N00518376WA0155501644
B1247293656580N00518370WA0155601645
B1247303656585N00518365WA0155601645
B1247313656590N00518360WA0155901646
B1247323656593N00518355WA0156001649
B1247333656594N00518348WA0156201651
B1247343656592N00518341WA0156201652
B1247353656588N00518336WA0156301653
B1247363656583N00518335WA0156401654
B1247373656578N00518338WA0156301654
B1247383656575N00518343WA0156501655
B1247393656575N00518350WA0156601657
B1247403656578N00518356WA0156801658
B1247413656584N00518358WA0156901658
B1247423656591N00518358WA0157001658
B1247433656596N00518355WA0157101659
B1247443656600N00518348WA0157301661
B1247453656602N00518341WA0157401664
B1247463656602N00518335WA0157601666
B1247473656601N00518329WA0157701668
B1247483656598N00518326WA0157701668
B1247493656594N00518323WA0157801669
B1247503656589N00518323WA0157901669
B1247513656585N00518325WA0157901670
B1247523656581N00518329WA0157901671
B1247533656581N00518334WA0158001671
B1247543656582N00518339WA0158101671
B1247553656584N00518345WA0158301671
B1247563656587N00518350WA0158601672
B1247573656592N00518354WA0158801672
B1247583656596N00518357WA0159001673
B1247593656601N00518357WA0159101676
B1248003656606N00518355WA0159101677
B1248013656609N00518350WA0158901677
B1248023656611N00518344WA0158701676
B1248033656611N00518337WA0158701676
B1248043656610N00518331WA0158701677
B1248053656607N00518327WA0158701677
B1248063656604N00518323WA0158801678
B1248073656600N00518321WA0158801679
B1248083656596N00518319WA0158901680
B1248093656592N00518318WA0158901681
B1248103656588N00518320WA0158901682
B1248113656585N00518323WA0158901682
B1248123656583N00518328WA0158901682
B1248133656583N00518334WA0158901683
B1248143656585N00518341WA0158901683
B1248153656587N00518348WA0159201683
B1248163656590N00518353WA0159501689
B1248173656592N00518356WA0159801693
B1248183656595N00518359WA0159801695
B1248193656597N00518362WA0159801695
B1248203656599N00518365WA0159701695
B1248213656601N00518370WA0159501694
B1248223656604N00518374WA0159301693
B1248233656608N00518376WA0159101693
B1248243656615N00518372WA0158701690
B1248253656620N00518367WA0158401686
B1248263656623N00518359WA0158301684
B1248273656625N00518352WA0158301682
B1248283656625N00518345WA0158201681
B1248293656625N00518338WA0158101680
B1248303656624N00518330WA0158101679
B1248313656623N00518323WA0158001678
B1248323656623N00518315WA0158001677
B1248333656622N00518307WA0158201676
B1248343656622N00518300WA0158301675
B1248353656622N00518292WA0158501675
B1248363656623N00518284WA0158501676
B1248373656622N00518276WA0158601678
B1248383656621N00518268WA0158701680
B1248393656619N00518262WA0158801682
B1248403656616N00518258WA0159001684
B1248413656613N00518256WA0159201687
B1248423656610N00518256WA0159301689
B1248433656608N00518258WA0159301690
B1248443656605N00518262WA0159301691
B1248453656604N00518268WA0159301691
B1248463656604N00518274WA0159401692
B1248473656606N00518279WA0159601693
B1248483656610N00518284WA0159801694
B1248493656616N00518285WA0159901695
B1248503656622N00518283WA0159701694
B1248513656628N00518277WA0159601693
B1248523656634N00518271WA0159501693
B1248533656637N00518263WA0159701694
B1248543656639N00518255WA0159701695
B1248553656640N00518248WA0159801695
B1248563656639N00518241WA0159901696
B1248573656637N00518235WA0160001696
B1248583656635N00518230WA0160001697
B1248593656633N00518227WA0160101698
B1249003656630N00518225WA0160001698
B1249013656626N00518226WA0159901697
B1249023656622N00518228WA0159801696
B1249033656619N00518233WA0159801696
B1249043656618N00518238WA0159801696
B1249053656617N00518244WA0159901696
B1249063656617N00518250WA0160001697
B1249073656617N00518255WA0160101698
B1249083656618N00518261WA0160301700
B1249093656621N00518266WA0160401701
B1249103656624N00518270WA0160401701
B1249113656629N00518272WA0160401702
B1249123656635N00518272WA0160401701
B1249133656642N00518268WA0160201700
B1249143656647N00518260WA0160001699
B1249153656649N00518251WA0159901698
B1249163656649N00518243WA0159901698
B1249173656647N00518236WA0160001698
B1249183656643N00518232WA0160101698
B1249193656639N00518231WA0160101699
B1249203656635N00518232WA0160201699
B1249213656633N00518236WA0160201699
B1249223656632N00518240WA0160301700
B1249233656632N00518245WA0160401700
B1249243656634N00518250WA0160401700
B1249253656636N00518255WA0160401700
B1249263656639N00518259WA0160401700
B1249273656644N00518261WA0160201701
B1249283656650N00518261WA0160001700
B1249293656657N00518258WA0160001699
B1249303656663N00518252WA0159901698
B1249313656668N00518245WA0159901697
B1249323656673N00518238WA0160001698
B1249333656677N00518231WA0160101698
B1249343656682N00518225WA0160101698
B1249353656686N00518218WA0160101698
B1249363656689N00518209WA0160001698
B1249373656693N00518201WA0159901698
B1249383656696N00518193WA0159901698
B1249393656698N00518185WA0159901698
B1249403656701N00518178WA0159701696
B1249413656704N00518170WA0159501695
B1249423656708N00518162WA0159501694
B1249433656711N00518155WA0159601693
B1249443656713N00518148WA0159601693
B1249453656715N00518141WA0159601693
B1249463656716N00518134WA0159601694
B1249473656718N00518127WA0159501693
B1249483656719N00518121WA0159301692
B1249493656719N00518113WA0159101691
B1249503656719N00518106WA0159001690
B1249513656720N00518099WA0158901689
B1249523656722N00518092WA0158901689
B1249533656724N00518085WA0158801688
B1249543656726N00518078WA0158901688
B1249553656728N00518071WA0158901688
B1249563656730N00518065WA0159001688
B1249573656731N00518058WA0159001688
B1249583656731N00518052WA0158901688
B1249593656732N00518047WA0158801688
B1250003656732N00518041WA0158701687
B1250013656733N00518034WA0158501686
B1250023656733N00518027WA0158301685
B1250033656735N00518020WA0158201683
B1250043656738N00518013WA0158101683
B1250053656741N00518008WA0158001682
B1250063656745N00518003WA0157901681
B1250073656749N00517999WA0157801680
B1250083656753N00517994WA0157601678
B1250093656757N00517989WA0157301676
B1250103656761N00517984WA0157201673
B1250113656766N00517979WA0156901670
B1250123656771N00517974WA0156701668
B1250133656775N00517968WA0156701666
B1250143656778N00517964WA0156601665
B1250153656781N00517959WA0156601665
B1250163656784N00517954WA0156501664
B1250173656788N00517949WA0156201662
B1250183656792N00517944WA0155801658
B1250193656796N00517938WA0155501655
B1250203656801N00517932WA0155301652
B1250213656805N00517925WA0155101650
B1250223656809N00517919WA0155001648
B1250233656814N00517913WA0154801647
B1250243656819N00517906WA0154801646
B1250253656822N00517900WA0154701645
B1250263656826N00517893WA0154601644
B1250273656829N00517887WA0154401643
B1250283656833N00517881WA0154101641
B1250293656838N00517875WA0153901638
B1250303656842N00517867WA0153801636
B1250313656846N00517859WA0153601634
B1250323656850N00517852WA0153701634
B1250333656853N00517846WA0153701634
B1250343656857N00517839WA0153701634
B1250353656860N00517833WA0153601633
B1250363656863N00517825WA0153501633
B1250373656866N00517818WA0153501632
B1250383656869N00517812WA0153501633
B1250393656872N00517806WA0153401632
B1250403656875N00517800WA0153301631
B1250413656879N00517795WA0153101630
B1250423656884N00517791WA0152801628
B1250433656890N00517788WA0152501626
B1250443656895N00517785WA0152501624
B1250453656901N00517782WA0152401622
B1250463656907N00517779WA0152501622
B1250473656912N00517776WA0152601622
B1250483656917N00517773WA0152601622
B1250493656923N00517771WA0152601623
B1250503656928N00517770WA0152701623
B1250513656933N00517769WA0152601623
B1250523656939N00517768WA0152501623
B1250533656945N00517766WA0152501622
B1250543656950N00517764WA0152401621
B1250553656956N00517761WA0152401622
B1250563656961N00517759WA0152501622
B1250573656966N00517757WA0152701623
B1250583656971N00517754WA0152701623
B1250593656977N00517751WA0152801623
B1251003656982N00517750WA0152901624
B1251013656988N00517749WA0152901624
B1251023656994N00517748WA0152901625
B1251033656999N00517746WA0153001625
B1251043657004N00517744WA0152901625
B1251053657009N00517740WA0152901625
B1251063657013N00517737WA0152901625
B1251073657016N00517733WA0152701625
B1251083657020N00517728WA0152601624
B1251093657023N00517722WA0152301623
B1251103657026N00517716WA0152101620
B1251113657029N00517710WA0151901618
B1251123657032N00517705WA0151701617
B1251133657034N00517699WA0151601616
B1251143657037N00517694WA0151401614
B1251153657040N00517689WA0151201611
B1251163657043N00517683WA0150901608
B1251173657047N00517677WA0150701606
B1251183657050N00517673WA0150501604
B1251193657054N00517668WA0150401603
B1251203657057N00517664WA0150101601
B1251213657060N00517659WA0149901598
B1251223657063N00517654WA0149501595
B1251233657067N00517649WA0149301593
B1251243657071N00517644WA0149201591
B1251253657076N00517640WA0149101590
B1251263657079N00517635WA0148901588
B1251273657083N00517629WA0148701587
B1251283657086N00517624WA0148601585
B1251293657089N00517618WA0148401583
B1251303657092N00517613WA0148201581
B1251313657095N00517608WA0148001579
B1251323657098N00517602WA0147701577
B1251333657102N00517597WA0147301574
B1251343657106N00517591WA0147001570
B1251353657110N00517586WA0146801567
B1251363657114N00517581WA0146601565
B1251373657118N00517576WA0146501563
B1251383657122N00517570WA0146301562
B1251393657126N00517564WA0146101560
B1251403657130N00517559WA0146001558
B1251413657134N00517553WA0145901557
B1251423657138N00517547WA0145701555
B1251433657142N00517541WA0145501554
B1251443657146N00517535WA0145401552
B1251453657150N00517529WA0145301551
B1251463657153N00517523WA0145101550
B1251473657157N00517517WA0144901548
B1251483657160N00517510WA0144701546
B1251493657163N00517503WA0144401544
B1251503657166N00517495WA0144301542
B1251513657170N00517488WA0144101540
B1251523657174N00517482WA0144101540
B1251533657178N00517477WA0144201539
B1251543657181N00517472WA0144201539
B1251553657183N00517466WA0144001538
B1251563657185N00517460WA0143801536
B1251573657188N00517453WA0143601534
B1251583657192N00517447WA0143301532
B1251593657195N00517441WA0143201530
B1252003657198N00517436WA0143101529
B1252013657201N00517431WA0142801527
B1252023657203N00517425WA0142501524
B1252033657206N00517419WA0142201521
B1252043657208N00517414WA0142001518
B1252053657212N00517410WA0141901517
B1252063657215N00517407WA0141801515
B1252073657218N00517404WA0141601514
B1252083657221N00517400WA0141301511
B1252093657224N00517396WA0141101509
B1252103657229N00517393WA0140801506
B1252113657233N00517390WA0140501503
B1252123657237N00517388WA0140401501
B1252133657241N00517386WA0140301500
B1252143657245N00517384WA0140201498
B1252153657250N00517382WA0139901496
B1252163657255N00517380WA0139801494
B1252173657260N00517378WA0139601492
B1252183657266N00517376WA0139401490
B1252193657271N00517373WA0139201488
B1252203657276N00517370WA0139101486
B1252213657280N00517366WA0138901484
B1252223657285N00517362WA0138801483
B1252233657289N00517358WA0138701482
B1252243657293N00517354WA0138601481
B1252253657297N00517350WA0138401480
B1252263657301N00517346WA0138301478
B1252273657305N00517341WA0138301478
B1252283657309N00517338WA0138401477
B1252293657313N00517334WA0138401477
B1252303657317N00517331WA0138401477
B1252313657320N00517327WA0138401478
B1252323657324N00517323WA0138401478
B1252333657327N00517319WA0138301478
B1252343657330N00517315WA0138301478
B1252353657334N00517311WA0138201477
B1252363657338N00517307WA0138301477
B1252373657342N00517303WA0138301477
B1252383657345N00517298WA0138201477
B1252393657349N00517294WA0138101476
B1252403657353N00517289WA0138101476
B1252413657356N00517285WA0138001476
B1252423657360N00517281WA0138101476
B1252433657364N00517277WA0138101475
B1252443657368N00517273WA0138101475
B1252453657373N00517270WA0138101476
B1252463657377N00517267WA0138201476
B1252473657382N00517264WA0138201477
B1252483657386N00517262WA0138101476
B1252493657390N00517259WA0138001476
B1252503657395N00517255WA0137901475
B1252513657399N00517252WA0137901474
B1252523657404N00517248WA0137801474
B1252533657408N00517244WA0137901474
B1252543657413N00517241WA0138001474
B1252553657417N00517238WA0138101475
B1252563657421N00517234WA0138101476
B1252573657425N00517230WA0138001475
B1252583657430N00517226WA0137901475
B1252593657435N00517223WA0137901475
B1253003657440N00517220WA0138001475
B1253013657445N00517219WA0138101476
B1253023657450N00517217WA0138201477
B1253033657455N00517215WA0138101477
B1253043657460N00517212WA0137901476
B1253053657466N00517210WA0137901475
B1253063657471N00517207WA0137901475
B1253073657475N00517203WA0138001475
B1253083657479N00517200WA0138001475
B1253093657483N00517196WA0138001475
B1253103657488N00517192WA0137901475
B1253113657492N00517188WA0137801474
B1253123657497N00517184WA0137801474
B1253133657501N00517180WA0137901474
B1253143657505N00517176WA0137901474
B1253153657509N00517172WA0137901475
B1253163657512N00517169WA0137901475
B1253173657517N00517165WA0137801474
B1253183657521N00517161WA0137701473
B1253193657526N00517157WA0137601472
B1253203657530N00517153WA0137601472
B1253213657535N00517150WA0137701472
B1253223657540N00517148WA0137701472
B1253233657546N00517145WA0137701472
B1253243657551N00517143WA0137601471
B1253253657557N00517141WA0137601472
B1253263657562N00517139WA0137701472
B1253273657567N00517136WA0137801473
B1253283657572N00517134WA0137801473
B1253293657577N00517132WA0137901473
B1253303657581N00517129WA0137901474
B1253313657584N00517125WA0138001475
B1253323657586N00517121WA0137901475
B1253333657588N00517115WA0137701475
B1253343657589N00517108WA0137601474
B1253353657592N00517101WA0137501473
B1253363657596N00517096WA0137301471
B1253373657600N00517091WA0137301471
B1253383657603N00517086WA0137201470
B1253393657606N00517081WA0137001469
B1253403657610N00517076WA0136801467
B1253413657614N00517071WA0136501465
B1253423657619N00517068WA0136201462
B1253433657625N00517066WA0135901460
B1253443657631N00517064WA0135801457
B1253453657637N00517062WA0135701454
B1253463657642N00517059WA0135701454
B1253473657645N00517056WA0135601453
B1253483657648N00517051WA0135501452
B1253493657651N00517046WA0135301450
B1253503657655N00517040WA0135101448
B1253513657660N00517034WA0134801445
B1253523657664N00517026WA0134801444
B1253533657667N00517020WA0134901444
B1253543657670N00517014WA0135001445
B1253553657674N00517010WA0135001445
B1253563657679N00517007WA0134801444
B1253573657685N00517006WA0134501441
B1253583657691N00517004WA0134301439
B1253593657697N00517000WA0134101437
B1254003657703N00516996WA0134201437
B1254013657707N00516992WA0134301438
B1254023657711N00516989WA0134301438
B1254033657715N00516984WA0134001438
B1254043657720N00516979WA0133801436
B1254053657724N00516973WA0133701435
B1254063657728N00516967WA0133601434
B1254073657731N00516960WA0133701434
B1254083657733N00516954WA0133701434
B1254093657736N00516949WA0133701434
B1254103657740N00516942WA0133501432
B1254113657744N00516936WA0133301430
B1254123657748N00516930WA0133101428
B1254133657752N00516924WA0133001427
B1254143657755N00516918WA0133001426
B1254153657759N00516912WA0132901426
B1254163657763N00516907WA0132701425
B1254173657767N00516901WA0132601423
B1254183657771N00516895WA0132401421
B1254193657774N00516888WA0132201419
B1254203657775N00516881WA0132201418
B1254213657776N00516873WA0132101417
B1254223657777N00516866WA0132001416
B1254233657779N00516858WA0131701414
B1254243657782N00516851WA0131401411
B1254253657785N00516844WA0131201409
B1254263657788N00516836WA0131001407
B1254273657790N00516829WA0130801406
B1254283657792N00516821WA0130701404
B1254293657794N00516813WA0130701403
B1254303657797N00516806WA0130701403
B1254313657799N00516799WA0130701403
B1254323657802N00516793WA0130601402
B1254333657803N00516785WA0130401402
B1254343657805N00516778WA0130201400
B1254353657807N00516769WA0130201399
B1254363657808N00516761WA0130101398
B1254373657809N00516753WA0130101397
B1254383657810N00516745WA0130001397
B1254393657811N00516738WA0129901396
B1254403657813N00516730WA0129801394
B1254413657815N00516722WA0129701393
B1254423657818N00516715WA0129501392
B1254433657820N00516708WA0129501391
B1254443657823N00516701WA0129501391
B1254453657826N00516695WA0129401390
B1254463657831N00516690WA0129301389
B1254473657836N00516686WA0129101387
B1254483657841N00516681WA0129001385
B1254493657846N00516675WA0128901384
B1254503657850N00516670WA0128801384
B1254513657855N00516666WA0128801383
B1254523657860N00516661WA0128701382
B1254533657865N00516657WA0128601381
B1254543657871N00516655WA0128501381
B1254553657876N00516653WA0128401379
B1254563657883N00516652WA0128101377
B1254573657889N00516650WA0128001375
B1254583657895N00516648WA0127901374
B1254593657901N00516645WA0127801373
B1255003657906N00516642WA0127801372
B1255013657911N00516639WA0127901372
B1255023657916N00516636WA0127801372
B1255033657922N00516632WA0127601370
B1255043657927N00516628WA0127501368
B1255053657932N00516623WA0127301367
B1255063657937N00516618WA0127201366
B1255073657941N00516613WA0127101365
B1255083657945N00516607WA0126901364
B1255093657949N00516600WA0126901363
B1255103657953N00516594WA0126901362
B1255113657957N00516589WA0126901362
B1255123657961N00516583WA0126901361
B1255133657965N00516578WA0126801361
B1255143657968N00516572WA0126601360
B1255153657973N00516567WA0126601359
B1255163657977N00516562WA0126401358
B1255173657982N00516558WA0126201357
B1255183657987N00516555WA0125901355
B1255193657992N00516550WA0125601351
B1255203657997N00516545WA0125401349
B1255213658001N00516539WA0125301347
B1255223658004N00516534WA0125401347
B1255233658005N00516529WA0125401347
B1255243658006N00516523WA0125301346
B1255253658006N00516517WA0125001345
B1255263658007N00516510WA0124801343
B1255273658008N00516502WA0124601341
B1255283658010N00516496WA0124301340
B1255293658011N00516489WA0124201339
B1255303658012N00516483WA0124001337
B1255313658013N00516476WA0123701336
B1255323658014N00516469WA0123501333
B1255333658015N00516463WA0123101330
B1255343658016N00516456WA0122801327
B1255353658017N00516449WA0122701325
B1255363658017N00516443WA0122501323
B1255373658016N00516437WA0122401321
B1255383658016N00516430WA0122201320
B1255393658016N00516424WA0122001318
B1255403658018N00516419WA0121801315
B1255413658020N00516414WA0121501313
B1255423658022N00516408WA0121301311
B1255433658024N00516403WA0121001308
B1255443658027N00516398WA0120801306
B1255453658030N00516394WA0120601303
B1255463658032N00516389WA0120401300
B1255473658034N00516383WA0120001297
B1255483658036N00516378WA0119701295
B1255493658038N00516372WA0119501292
B1255503658042N00516368WA0119301289
B1255513658046N00516364WA0118901286
B1255523658050N00516360WA0118601282
B1255533658054N00516354WA0118301279
B1255543658057N00516348WA0118101276
B1255553658061N00516342WA0117901275
B1255563658065N00516336WA0117901274
B1255573658068N00516330WA0117901273
B1255583658071N00516324WA0117701272
B1255593658074N00516318WA0117501270
B1256003658078N00516312WA0117201267
B1256013658081N00516305WA0116801264
B1256023658084N00516299WA0116501261
B1256033658086N00516292WA0116401259
B1256043658088N00516286WA0116201256
B1256053658089N00516278WA0115901253
B1256063658091N00516270WA0115601250
B1256073658093N00516262WA0115301248
B1256083658095N00516256WA0115201246
B1256093658097N00516249WA0115301245
B1256103658098N00516243WA0115301245
B1256113658099N00516236WA0115101243
B1256123658100N00516229WA0114801240
B1256133658101N00516221WA0114401238
B1256143658102N00516213WA0114101235
B1256153658103N00516206WA0114001233
B1256163658104N00516199WA0114001232
B1256173658106N00516191WA0113801231
B1256183658108N00516184WA0113701229
B1256193658109N00516176WA0113501227
B1256203658110N00516169WA0113401226
B1256213658110N00516161WA0113301225
B1256223658110N00516153WA0113201224
B1256233658109N00516145WA0113001223
B1256243658108N00516137WA0112801221
B1256253658106N00516129WA0112601219
B1256263658105N00516122WA0112501218
B1256273658104N00516114WA0112501216
B1256283658104N00516106WA0112301215
B1256293658106N00516099WA0112001214
B1256303658108N00516092WA0111801213
B1256313658110N00516085WA0111701211
B1256323658111N00516078WA0111501210
B1256333658113N00516071WA0111401208
B1256343658116N00516064WA0111201206
B1256353658119N00516057WA0111001204
B1256363658122N00516051WA0111001202
B1256373658126N00516045WA0110901201
B1256383658130N00516040WA0110901200
B1256393658135N00516036WA0110701199
B1256403658140N00516031WA0110501197
B1256413658145N00516026WA0110301195
B1256423658150N00516020WA0110201193
B1256433658155N00516015WA0110201192
B1256443658159N00516009WA0110101191
B1256453658164N00516003WA0110201192
B1256463658168N00515998WA0110401192
B1256473658173N00515994WA0110501193
B1256483658178N00515990WA0110601194
B1256493658183N00515988WA0110701195
B1256503658188N00515985WA0110701195
B1256513658193N00515982WA0110801196
B1256523658198N00515978WA0110901197
B1256533658203N00515973WA0111001197
B1256543658208N00515967WA0111101198
B1256553658211N00515960WA0111201199
B1256563658213N00515953WA0111201200
B1256573658214N00515944WA0111201201
B1256583658213N00515936WA0111301201
B1256593658210N00515929WA0111401202
B1257003658206N00515923WA0111501203
B1257013658201N00515921WA0111601204
B1257023658197N00515921WA0111701205
B1257033658193N00515923WA0111701206
B1257043658191N00515926WA0111901207
B1257053658190N00515930WA0111901207
B1257063658192N00515934WA0111901207
B1257073658196N00515936WA0111601205
B1257083658201N00515938WA0111501203
B1257093658207N00515939WA0111501203
B1257103658212N00515939WA0111701204
B1257113658217N00515939WA0111901206
B1257123658222N00515940WA0112001207
B1257133658227N00515940WA0112101208
B1257143658231N00515940WA0112201208
B1257153658236N00515939WA0112301210
B1257163658241N00515936WA0112401211
B1257173658245N00515931WA0112501212
B1257183658247N00515923WA0112501213
B1257193658248N00515914WA0112501214
B1257203658246N00515906WA0112501213
B1257213658242N00515899WA0112501213
B1257223658237N00515895WA0112501214
B1257233658232N00515892WA0112601215
B1257243658227N00515892WA0112701216
B1257253658223N00515893WA0112901217
B1257263658220N00515896WA0113001218
B1257273658218N00515900WA0113101219
B1257283658217N00515903WA0113101220
B1257293658217N00515907WA0113301221
B1257303658219N00515911WA0113301222
B1257313658222N00515915WA0113301222
B1257323658227N00515917WA0113301222
B1257333658232N00515918WA0113401222
B1257343658238N00515918WA0113501223
B1257353658244N00515917WA0113601224
B1257363658249N00515915WA0113801226
B1257373658254N00515913WA0113801227
B1257383658259N00515909WA0113901228
B1257393658264N00515903WA0114001229
B1257403658265N00515895WA0114101230
B1257413658265N00515886WA0114201230
B1257423658263N00515878WA0114101230
B1257433658259N00515872WA0114101231
B1257443658254N00515868WA0114301231
B1257453658249N00515868WA0114301232
B1257463658246N00515871WA0114401233
B1257473658244N00515874WA0114401233
B1257483658244N00515879WA0114501234
B1257493658245N00515883WA0114701235
B1257503658248N00515886WA0114801236
B1257513658252N00515888WA0114901237
B1257523658257N00515888WA0114801237
B1257533658263N00515885WA0114901237
B1257543658268N00515880WA0114801237
B1257553658271N00515872WA0114901237
B1257563658273N00515863WA0115001238
B1257573658273N00515854WA0115201240
B1257583658272N00515846WA0115301241
B1257593658269N00515839WA0115401243
B1258003658265N00515834WA0115401244
B1258013658261N00515830WA0115501245
B1258023658256N00515827WA0115601246
B1258033658252N00515826WA0115601247
B1258043658248N00515829WA0115501247
B1258053658246N00515834WA0115401247
B1258063658246N00515840WA0115301247
B1258073658247N00515846WA0115601249
B1258083658249N00515850WA0115901250
B1258093658251N00515853WA0116101252
B1258103658253N00515857WA0116201253
B1258113658256N00515860WA0116301254
B1258123658260N00515864WA0116301254
B1258133658263N00515867WA0116401255
B1258143658267N00515871WA0116501255
B1258153658271N00515873WA0116501256
B1258163658275N00515875WA0116601257
B1258173658280N00515875WA0116601257
B1258183658286N00515872WA0116601257
B1258193658291N00515866WA0116601256
B1258203658294N00515858WA0116701256
B1258213658294N00515850WA0116701257
B1258223658293N00515842WA0116801258
B1258233658290N00515835WA0116901258
B1258243658286N00515829WA0117001259
B1258253658282N00515826WA0117001260
B1258263658277N00515825WA0117201261
B1258273658273N00515826WA0117301262
B1258283658270N00515829WA0117301262
B1258293658268N00515833WA0117401263
B1258303658268N00515838WA0117501264
B1258313658269N00515842WA0117601264
B1258323658271N00515847WA0117701265
B1258333658275N00515850WA0117801266
B1258343658280N00515851WA0117901265
B1258353658285N00515850WA0117901266
B1258363658290N00515846WA0117901266
B1258373658295N00515840WA0117901266
B1258383658298N00515833WA0117901266
B1258393658300N00515825WA0118001267
B1258403658300N00515817WA0118101268
B1258413658299N00515810WA0118201269
B1258423658295N00515803WA0118201269
B1258433658292N00515797WA0118201270
B1258443658287N00515793WA0118301271
B1258453658282N00515791WA0118401272
B1258463658277N00515790WA0118501273
B1258473658273N00515791WA0118601275
B1258483658270N00515793WA0118801276
B1258493658267N00515796WA0118901278
B1258503658266N00515800WA0119001279
B1258513658265N00515805WA0119001280
B1258523658266N00515810WA0119201282
B1258533658268N00515814WA0119301283
B1258543658272N00515818WA0119301284
B1258553658276N00515821WA0119401285
B1258563658280N00515822WA0119401285
B1258573658285N00515821WA0119601286
B1258583658290N00515817WA0119601286
B1258593658294N00515811WA0119501287
B1259003658298N00515803WA0119501287
B1259013658301N00515796WA0119701288
B1259023658304N00515789WA0119901290
B1259033658305N00515781WA0120001291
B1259043658306N00515774WA0120101292
B1259053658304N00515765WA0120101293
B1259063658301N00515758WA0120101294
B1259073658297N00515752WA0120201294
B1259083658292N00515750WA0120201295
B1259093658287N00515751WA0120201295
B1259103658283N00515753WA0120301295
B1259113658280N00515756WA0120401297
B1259123658277N00515759WA0120601299
B1259133658275N00515762WA0120701300
B1259143658274N00515766WA0120801301
B1259153658274N00515771WA0120801302
B1259163658274N00515777WA0120901303
B1259173658276N00515781WA0121001303
B1259183658280N00515785WA0121101304
B1259193658284N00515786WA0121201305
B1259203658289N00515786WA0121301305
B1259213658294N00515783WA0121201305
B1259223658299N00515778WA0121401305
B1259233658303N00515771WA0121301305
B1259243658305N00515763WA0121401306
B1259253658305N00515755WA0121501307
B1259263658304N00515747WA0121601308
B1259273658302N00515741WA0121701309
B1259283658298N00515736WA0121801310
B1259293658293N00515734WA0121801311
B1259303658288N00515733WA0121901312
B1259313658284N00515734WA0122001313
B1259323658280N00515736WA0122101314
B1259333658277N00515739WA0122201315
B1259343658275N00515742WA0122201315
B1259353658273N00515747WA0122201315
B1259363658271N00515751WA0122201316
B1259373658269N00515755WA0122401318
B1259383658266N00515757WA0122601320
B1259393658264N00515760WA0122701321
B1259403658261N00515762WA0122801322
B1259413658259N00515765WA0122901324
B1259423658256N00515768WA0123001324
B1259433658255N00515772WA0123101325
B1259443658255N00515776WA0123101326
B1259453658258N00515781WA0123101326
B1259463658263N00515784WA0123101325
B1259473658269N00515785WA0123201325
B1259483658275N00515784WA0123301326
B1259493658280N00515780WA0123401326
B1259503658284N00515773WA0123501327
B1259513658287N00515766WA0123601327
B1259523658288N00515759WA0123801328
B1259533658287N00515751WA0123801330
B1259543658286N00515745WA0123901331
B1259553658283N00515739WA0124101332
B1259563658279N00515734WA0124101332
B1259573658274N00515732WA0124101333
B1259583658270N00515731WA0124301335
B1259593658266N00515732WA0124301336
B1300003658264N00515735WA0124401336
B1300013658262N00515739WA0124501337
B1300023658262N00515744WA0124501338
B1300033658264N00515749WA0124501338
B1300043658266N00515753WA0124501339
B1300053658269N00515756WA0124501339
B1300063658274N00515759WA0124601340
B1300073658278N00515761WA0124601339
B1300083658284N00515761WA0124501338
B1300093658289N00515760WA0124501338
B1300103658295N00515755WA0124401337
B1300113658300N00515748WA0124401336
B1300123658302N00515740WA0124501336
B1300133658303N00515731WA0124501338
B1300143658302N00515724WA0124801340
B1300153658301N00515716WA0124901341
B1300163658299N00515709WA0125001342
B1300173658296N00515702WA0125101343
B1300183658293N00515697WA0125201344
B1300193658289N00515693WA0125301345
B1300203658284N00515691WA0125301346
B1300213658280N00515691WA0125301347
B1300223658276N00515692WA0125401348
B1300233658272N00515695WA0125601349
B1300243658270N00515700WA0125801350
B1300253658270N00515705WA0125801351
B1300263658272N00515710WA0125801353
B1300273658276N00515713WA0125901354
B1300283658280N00515715WA0125801354
B1300293658286N00515715WA0125801354
B1300303658292N00515711WA0125601351
B1300313658297N00515706WA0125501350
B1300323658301N00515699WA0125501349
B1300333658305N00515691WA0125701349
B1300343658309N00515684WA0125901350
B1300353658312N00515677WA0126001351
B1300363658314N00515671WA0126201352
B1300373658315N00515664WA0126301353
B1300383658317N00515657WA0126401354
B1300393658318N00515650WA0126401354
B1300403658319N00515642WA0126501355
B1300413658319N00515635WA0126501356
B1300423658316N00515628WA0126501356
B1300433658311N00515624WA0126501356
B1300443658306N00515622WA0126601356
B1300453658301N00515623WA0126801357
B1300463658298N00515625WA0127201360
B1300473658296N00515629WA0127401363
B1300483658297N00515634WA0127601365
B1300493658300N00515638WA0127701367
B1300503658305N00515641WA0127801368
B1300513658311N00515641WA0128001369
B1300523658316N00515638WA0128301370
B1300533658321N00515632WA0128301372
B1300543658323N00515624WA0128201372
B1300553658322N00515615WA0128101373
B1300563658319N00515607WA0128101372
B1300573658315N00515600WA0128201372
B1300583658311N00515596WA0128401373
B1300593658306N00515594WA0128601375
B1301003658300N00515592WA0129001379
B1301013658295N00515592WA0129401383
B1301023658291N00515592WA0129701386
B1301033658288N00515595WA0130101389
B1301043658287N00515600WA0130201391
B1301053658289N00515605WA0130201393
B1301063658295N00515608WA0130501389
B1301073658302N00515608WA0130701389
B1301083658307N00515603WA0130801390
B1301093658310N00515596WA0130901392
B1301103658310N00515587WA0131101395
B1301113658306N00515580WA0131401397
B1301123658301N00515576WA0131601399
B1301133658296N00515576WA0131901402
B1301143658292N00515579WA0132001404
B1301153658290N00515585WA0132201406
B1301163658291N00515592WA0132501403
B1301173658295N00515597WA0132801405
B1301183658301N00515600WA0133101406
B1301193658306N00515600WA0133301409
B1301203658312N00515598WA0133601411
B1301213658316N00515593WA0133801413
B1301223658319N00515586WA0133901415
B1301233658319N00515578WA0134101418
B1301243658316N00515571WA0134101419
B1301253658310N00515565WA0134201422
B1301263658304N00515562WA0134601426
B1301273658299N00515563WA0134901430
B1301283658295N00515566WA0135301435
B1301293658294N00515570WA0135601438
B1301303658294N00515575WA0135701435
B1301313658296N00515580WA0136001436
B1301323658301N00515584WA0136001436
B1301333658307N00515584WA0136101437
B1301343658312N00515582WA0136401438
B1301353658316N00515577WA0136601441
B1301363658318N00515570WA0136901445
B1301373658317N00515562WA0137001447
B1301383658313N00515556WA0137101448
B1301393658308N00515552WA0137201450
B1301403658302N00515551WA0137401452
B1301413658297N00515553WA0137601454
B1301423658295N00515558WA0137801457
B1301433658295N00515564WA0138101460
B1301443658298N00515569WA0138301462
B1301453658304N00515571WA0138601464
B1301463658309N00515570WA0138901467
B1301473658314N00515567WA0139101471
B1301483658318N00515561WA0139301474
B1301493658319N00515553WA0139401477
B1301503658317N00515546WA0139501480
B1301513658313N00515540WA0139501481
B1301523658307N00515537WA0139601483
B1301533658302N00515537WA0139801485
B1301543658298N00515539WA0140101488
B1301553658296N00515543WA0140401491
B1301563658296N00515548WA0140601493
B1301573658298N00515553WA0140801496
B1301583658301N00515558WA0141001497
B1301593658305N00515561WA0141301500
B1302003658310N00515561WA0141501503
B1302013658315N00515558WA0141701505
B1302023658319N00515552WA0141801507
B1302033658320N00515544WA0141901508
B1302043658319N00515536WA0142001510
B1302053658315N00515530WA0142101512
B1302063658310N00515526WA0142201514
B1302073658305N00515523WA0142501516
B1302083658300N00515523WA0142801520
B1302093658296N00515524WA0143001522
B1302103658293N00515528WA0143101524
B1302113658291N00515534WA0143301525
B1302123658291N00515540WA0143601528
B1302133658293N00515543WA0143801531
B1302143658296N00515546WA0143801532
B1302153658301N00515546WA0143901534
B1302163658306N00515544WA0144101535
B1302173658311N00515540WA0144401537
B1302183658314N00515534WA0144601539
B1302193658314N00515526WA0144701540
B1302203658312N00515519WA0144801541
B1302213658309N00515513WA0145001543
B1302223658304N00515509WA0145201545
B1302233658300N00515507WA0145401548
B1302243658295N00515506WA0145601550
B1302253658291N00515509WA0145701551
B1302263658289N00515513WA0145901552
B1302273658289N00515518WA0146001553
B1302283658290N00515524WA0146101555
B1302293658293N00515528WA0146201556
B1302303658297N00515532WA0146401558
B1302313658301N00515533WA0146601560
B1302323658306N00515532WA0146801561
B1302333658311N00515527WA0146901562
B1302343658315N00515520WA0147101563
B1302353658316N00515512WA0147001564
B1302363658315N00515504WA0147201565
B1302373658312N00515497WA0147401567
B1302383658308N00515491WA0147601569
B1302393658304N00515486WA0147901572
B1302403658299N00515482WA0148101575
B1302413658295N00515481WA0148201577
B1302423658290N00515481WA0148401578
B1302433658286N00515484WA0148501579
B1302443658284N00515489WA0148501579
B1302453658284N00515496WA0148501579
B1302463658288N00515500WA0148501580
B1302473658293N00515502WA0148601581
B1302483658299N00515501WA0148901581
B1302493658303N00515498WA0149101583
B1302503658307N00515493WA0149301585
B1302513658309N00515487WA0149501587
B1302523658311N00515480WA0149701588
B1302533658312N00515472WA0149801590
B1302543658312N00515464WA0149901592
B1302553658310N00515456WA0150001593
B1302563658307N00515450WA0150101593
B1302573658302N00515447WA0150201594
B1302583658297N00515447WA0150201595
B1302593658293N00515450WA0150301596
B1303003658289N00515454WA0150501598
B1303013658285N00515457WA0151001601
B1303023658281N00515458WA0151201603
B1303033658277N00515456WA0151201604
B1303043658272N00515451WA0151201604
B1303053658268N00515444WA0151201603
B1303063658266N00515434WA0151201603
B1303073658267N00515426WA0151301603
B1303083658271N00515418WA0151501605
B1303093658276N00515413WA0151701607
B1303103658281N00515411WA0151901608
B1303113658287N00515412WA0152001608
B1303123658291N00515416WA0152101609
B1303133658292N00515422WA0152001610
B1303143658291N00515429WA0152001610
B1303153658288N00515435WA0152201610
B1303163658284N00515439WA0152301610
B1303173658280N00515440WA0152401611
B1303183658275N00515439WA0152701614
B1303193658271N00515437WA0152801617
B1303203658267N00515433WA0152801618
B1303213658263N00515428WA0152801619
B1303223658260N00515420WA0152701619
B1303233658260N00515411WA0152601620
B1303243658262N00515403WA0152601619
B1303253658266N00515395WA0153001620
B1303263658269N00515389WA0153501622
B1303273658271N00515383WA0153701625
B1303283658274N00515376WA0153901627
B1303293658276N00515369WA0154001629
B1303303658278N00515362WA0154101630
B1303313658278N00515355WA0154101631
B1303323658277N00515348WA0154101632
B1303333658272N00515341WA0154101632
B1303343658266N00515336WA0154001630
B1303353658259N00515333WA0153701630
B1303363658251N00515333WA0153701630
B1303373658245N00515333WA0154101631
B1303383658240N00515336WA0154301634
B1303393658235N00515339WA0154701636
B1303403658231N00515343WA0154901638
B1303413658227N00515347WA0155201640
B1303423658223N00515351WA0155401642
B1303433658222N00515355WA0155601645
B1303443658222N00515359WA0155701647
B1303453658224N00515363WA0155901648
B1303463658230N00515362WA0155801648
B1303473658236N00515359WA0155701648
B1303483658240N00515352WA0155901649
B1303493658241N00515344WA0156101651
B1303503658238N00515336WA0156201653
B1303513658233N00515330WA0156401654
B1303523658227N00515327WA0156501654
B1303533658220N00515326WA0156701655
B1303543658215N00515327WA0157001657
B1303553658211N00515330WA0157101659
B1303563658209N00515335WA0157201657
B1303573658210N00515340WA0157301657
B1303583658212N00515345WA0157401658
B1303593658216N00515347WA0157501658
B1304003658220N00515348WA0157501658
B1304013658225N00515347WA0157601659
B1304023658230N00515344WA0157701660
B1304033658234N00515339WA0157801662
B1304043658237N00515332WA0158001664
B1304053658239N00515324WA0158201666
B1304063658239N00515316WA0158501669
B1304073658237N00515309WA0158701671
B1304083658233N00515303WA0158801672
B1304093658227N00515299WA0158801674
B1304103658221N00515296WA0158901675
B1304113658214N00515297WA0159001675
B1304123658209N00515301WA0159201677
B1304133658207N00515307WA0159301679
B1304143658208N00515312WA0159501682
B1304153658211N00515315WA0159701684
B1304163658215N00515316WA0159801685
B1304173658220N00515314WA0159901687
B1304183658224N00515308WA0160001689
B1304193658226N00515300WA0160201691
B1304203658223N00515292WA0160301692
B1304213658218N00515285WA0160401693
B1304223658212N00515281WA0160501694
B1304233658205N00515280WA0160601695
B1304243658200N00515283WA0160601696
B1304253658197N00515288WA0160701697
B1304263658197N00515293WA0160901697
B1304273658199N00515298WA0161101698
B1304283658202N00515300WA0161201701
B1304293658207N00515299WA0161201702
B1304303658212N00515295WA0161101703
B1304313658215N00515289WA0161301705
B1304323658216N00515281WA0161601707
B1304333658214N00515273WA0161801709
B1304343658210N00515267WA0161901710
B1304353658204N00515262WA0162001710
B1304363658198N00515260WA0162201712
B1304373658192N00515261WA0162401714
B1304383658187N00515265WA0162501716
B1304393658185N00515270WA0162601716
B1304403658185N00515276WA0162601716
B1304413658187N00515281WA0162801718
B1304423658190N00515284WA0163001719
B1304433658195N00515284WA0163101720
B1304443658200N00515281WA0163101722
B1304453658204N00515276WA0163201723
B1304463658207N00515269WA0163301724
B1304473658208N00515262WA0163501726
B1304483658208N00515254WA0163601728
B1304493658205N00515246WA0163701729
B1304503658201N00515239WA0163901730
B1304513658195N00515234WA0164001732
B1304523658189N00515232WA0164101734
B1304533658183N00515233WA0164201735
B1304543658178N00515236WA0164401736
B1304553658175N00515240WA0164601738
B1304563658174N00515246WA0164601739
B1304573658175N00515252WA0164601740
B1304583658177N00515256WA0164701741
B1304593658181N00515258WA0164901742
B1305003658186N00515255WA0165001744
B1305013658190N00515249WA0165001745
B1305023658191N00515241WA0165101745
B1305033658191N00515233WA0165201746
B1305043658189N00515224WA0165401749
B1305053658185N00515218WA0165601751
B1305063658179N00515213WA0165601752
B1305073658173N00515212WA0165701753
B1305083658167N00515213WA0165801754
B1305093658162N00515216WA0165901755
B1305103658159N00515221WA0166001756
B1305113658158N00515227WA0166101757
B1305123658158N00515233WA0166201758
B1305133658161N00515237WA0166401759
B1305143658164N00515238WA0166401760
B1305153658168N00515236WA0166401761
B1305163658172N00515231WA0166501762
B1305173658174N00515224WA0166701764
B1305183658174N00515215WA0166701765
B1305193658171N00515207WA0166801766
B1305203658167N00515200WA0167001767
B1305213658161N00515195WA0167101768
B1305223658155N00515193WA0167301770
B1305233658149N00515194WA0167301771
B1305243658143N00515196WA0167401772
B1305253658139N00515201WA0167401772
B1305263658136N00515208WA0167401772
B1305273658137N00515214WA0167501772
B1305283658139N00515220WA0167601772
B1305293658142N00515223WA0167801773
B1305303658146N00515223WA0167901773
B1305313658150N00515221WA0168101774
B1305323658153N00515216WA0168001775
B1305333658156N00515209WA0168001775
B1305343658156N00515201WA0168101775
B1305353658155N00515193WA0168201777
B1305363658151N00515186WA0168301778
B1305373658145N00515182WA0168401779
B1305383658139N00515181WA0168401779
B1305393658133N00515182WA0168401779
B1305403658127N00515185WA0168501780
B1305413658124N00515191WA0168601782
B1305423658122N00515197WA0168701783
B1305433658123N00515203WA0168801784
B1305443658125N00515207WA0168801784
B1305453658129N00515209WA0168901783
B1305463658133N00515209WA0168901784
B1305473658137N00515207WA0168901784
B1305483658141N00515205WA0169001785
B1305493658145N00515204WA0169101786
B1305503658149N00515202WA0169301788
B1305513658152N00515202WA0169501789
B1305523658156N00515202WA0169501791
B1305533658159N00515202WA0169501792
B1305543658162N00515203WA0169701792
B1305553658166N00515204WA0169701793
B1305563658169N00515203WA0169701794
B1305573658172N00515201WA0169601794
B1305583658175N00515197WA0169601793
B1305593658177N00515190WA0169501793
B1306003658177N00515184WA0169601793
B1306013658174N00515177WA0169501793
B1306023658169N00515173WA0169501792
B1306033658163N00515170WA0169501792
B1306043658157N00515170WA0169501792
B1306053658151N00515171WA0169501792
B1306063658146N00515174WA0169501793
B1306073658141N00515177WA0169501793
B1306083658137N00515181WA0169501793
B1306093658133N00515187WA0169501792
B1306103658132N00515193WA0169601792
B1306113658133N00515198WA0169501793
B1306123658136N00515202WA0169401793
B1306133658141N00515204WA0169201793
B1306143658146N00515204WA0169301793
B1306153658151N00515202WA0169501793
B1306163658155N00515201WA0169601795
B1306173658158N00515199WA0169701795
B1306183658162N00515196WA0169701796
B1306193658166N00515194WA0169601796
B1306203658170N00515191WA0169601795
B1306213658174N00515189WA0169501795
B1306223658179N00515187WA0169501795
B1306233658183N00515186WA0169601795
B1306243658188N00515185WA0169701796
B1306253658192N00515185WA0169701796
B1306263658196N00515185WA0169701797
B1306273658200N00515187WA0169701796
B1306283658204N00515190WA0169601796
B1306293658208N00515193WA0169501795
B1306303658211N00515197WA0169601795
B1306313658215N00515201WA0169601795
B1306323658219N00515203WA0169601795
B1306333658222N00515206WA0169701795
B1306343658225N00515209WA0169801796
B1306353658227N00515214WA0169801796
B1306363658227N00515220WA0169701795
B1306373658227N00515227WA0169601795
B1306383658226N00515234WA0169701795
B1306393658227N00515239WA0169801796
B1306403658229N00515244WA0169801796
B1306413658232N00515247WA0169701795
B1306423658236N00515249WA0169601795
B1306433658241N00515249WA0169601794
B1306443658245N00515247WA0169501793
B1306453658250N00515244WA0169301792
B1306463658254N00515239WA0169201790
B1306473658258N00515235WA0169101790
B1306483658261N00515231WA0169101789
B1306493658264N00515226WA0169001788
B1306503658268N00515221WA0168901786
B1306513658272N00515217WA0168801785
B1306523658278N00515214WA0168801785
B1306533658283N00515213WA0168901785
B1306543658289N00515211WA0168901785
B1306553658294N00515210WA0169101787
B1306563658299N00515208WA0169301788
B1306573658304N00515206WA0169401790
B1306583658309N00515204WA0169401790
B1306593658315N00515201WA0169401791
B1307003658321N00515197WA0169501791
B1307013658327N00515194WA0169501792
B1307023658333N00515190WA0169701794
B1307033658338N00515187WA0170101796
B1307043658343N00515186WA0170301799
B1307053658348N00515186WA0170501801
B1307063658352N00515188WA0170701803
B1307073658355N00515192WA0170901805
B1307083658354N00515197WA0171001806
B1307093658351N00515201WA0171201807
B1307103658347N00515202WA0171401809
B1307113658342N00515202WA0171901811
B1307123658338N00515199WA0172101815
B1307133658335N00515193WA0172301818
B1307143658332N00515186WA0172301820
B1307153658332N00515177WA0172401821
B1307163658332N00515168WA0172601822
B1307173658334N00515159WA0172901826
B1307183658338N00515153WA0173201829
B1307193658342N00515149WA0173201831
B1307203658347N00515147WA0173301833
B1307213658354N00515145WA0173401834
B1307223658360N00515144WA0173701834
B1307233658365N00515144WA0173901837
B1307243658370N00515145WA0174201840
B1307253658373N00515148WA0174401842
B1307263658376N00515152WA0174401844
B1307273658377N00515158WA0174601846
B1307283658375N00515162WA0174901848
B1307293658372N00515165WA0175201850
B1307303658367N00515165WA0175301852
B1307313658361N00515162WA0175301853
B1307323658357N00515155WA0175501854
B1307333658355N00515147WA0175801856
B1307343658355N00515139WA0176101859
B1307353658357N00515130WA0176101860
B1307363658362N00515122WA0176201861
B1307373658368N00515116WA0176301861
B1307383658374N00515113WA0176401863
B1307393658381N00515113WA0176601864
B1307403658386N00515116WA0176701864
B1307413658389N00515122WA0176901865
B1307423658390N00515128WA0177001866
B1307433658390N00515133WA0177201867
B1307443658388N00515137WA0177401868
B1307453658384N00515139WA0177501869
B1307463658378N00515139WA0177501870
B1307473658373N00515136WA0177701871
B1307483658369N00515131WA0177901873
B1307493658366N00515124WA0178201875
B1307503658366N00515116WA0178401877
B1307513658367N00515109WA0178601879
B1307523658369N00515102WA0178701882
B1307533658373N00515096WA0178801883
B1307543658379N00515092WA0178801884
B1307553658386N00515091WA0178901885
B1307563658393N00515091WA0179001885
B1307573658399N00515093WA0179301888
B1307583658404N00515095WA0179601892
B1307593658408N00515098WA0179801894
B1308003658411N00515102WA0179901896
B1308013658412N00515107WA0180001898
B1308023658411N00515113WA0180001899
B1308033658409N00515118WA0180001899
B1308043658405N00515122WA0180101900
B1308053658401N00515124WA0180201901
B1308063658396N00515123WA0180401902
B1308073658391N00515120WA0180501903
B1308083658388N00515115WA0180601904
B1308093658385N00515109WA0180701905
B1308103658383N00515102WA0180901905
B1308113658383N00515094WA0181101907
B1308123658385N00515086WA0181301909
B1308133658387N00515080WA0181501910
B1308143658391N00515074WA0181601912
B1308153658396N00515069WA0181601912
B1308163658402N00515065WA0181701913
B1308173658408N00515062WA0181901914
B1308183658414N00515062WA0182001916
B1308193658419N00515063WA0182101918
B1308203658424N00515066WA0182201920
B1308213658428N00515070WA0182201920
B1308223658432N00515075WA0182201920
B1308233658434N00515081WA0182301921
B1308243658435N00515087WA0182401922
B1308253658436N00515092WA0182601924
B1308263658436N00515098WA0182701925
B1308273658435N00515104WA0182701925
B1308283658433N00515110WA0182801925
B1308293658430N00515115WA0182901925
B1308303658426N00515118WA0182901926
B1308313658421N00515118WA0183001926
B1308323658416N00515117WA0183101927
B1308333658412N00515113WA0183201928
B1308343658410N00515107WA0183401929
B1308353658408N00515101WA0183501930
B1308363658408N00515094WA0183701931
B1308373658408N00515086WA0183801932
B1308383658409N00515079WA0184001934
B1308393658410N00515072WA0184101935
B1308403658411N00515066WA0184201936
B1308413658415N00515059WA0184201937
B1308423658419N00515053WA0184201936
B1308433658425N00515049WA0184301936
B1308443658431N00515045WA0184501938
B1308453658436N00515044WA0184601941
B1308463658442N00515046WA0184601942
B1308473658446N00515049WA0184601942
B1308483658451N00515054WA0184501941
B1308493658454N00515061WA0184501941
B1308503658456N00515067WA0184501941
B1308513658458N00515073WA0184701942
B1308523658460N00515079WA0184801944
B1308533658462N00515084WA0184901945
B1308543658463N00515090WA0184901945
B1308553658464N00515097WA0184901945
B1308563658463N00515103WA0184901945
B1308573658462N00515109WA0185001945
B1308583658460N00515114WA0185101946
B1308593658457N00515118WA0185201946
B1309003658454N00515121WA0185301947
B1309013658451N00515124WA0185401949
B1309023658447N00515127WA0185401949
B1309033658443N00515130WA0185401949
B1309043658439N00515132WA0185601950
B1309053658434N00515133WA0185701952
B1309063658430N00515134WA0185901953
B1309073658426N00515135WA0186101954
B1309083658423N00515136WA0186201956
B1309093658419N00515138WA0186401957
B1309103658416N00515140WA0186501960
B1309113658413N00515143WA0186801963
B1309123658412N00515148WA0187001965
B1309133658413N00515153WA0187001966
B1309143658417N00515158WA0187001965
B1309153658422N00515162WA0187101964
B1309163658429N00515163WA0187101964
B1309173658437N00515162WA0187101965
B1309183658443N00515158WA0187201966
B1309193658448N00515151WA0187201966
B1309203658451N00515144WA0187501967
B1309213658453N00515137WA0187701969
B1309223658454N00515131WA0188001973
B1309233658454N00515125WA0188201975
B1309243658452N00515120WA0188201977
B1309253658450N00515115WA0188301980
B1309263658446N00515113WA0188401981
B1309273658441N00515113WA0188401982
B1309283658437N00515117WA0188601982
B1309293658436N00515122WA0188701984
B1309303658438N00515129WA0188801986
B1309313658442N00515134WA0188901987
B1309323658448N00515136WA0188901987
B1309333658455N00515135WA0189001989
B1309343658461N00515131WA0189201988
B1309353658465N00515124WA0189201989
B1309363658466N00515116WA0189301990
B1309373658464N00515109WA0189401991
B1309383658461N00515105WA0189501993
B1309393658458N00515104WA0189601993
B1309403658453N00515106WA0189701994
B1309413658450N00515110WA0189701995
B1309423658450N00515117WA0189801994
B1309433658453N00515124WA0189901994
B1309443658457N00515129WA0190001995
B1309453658463N00515133WA0190001996
B1309463658469N00515134WA0190101996
B1309473658476N00515132WA0190201997
B1309483658482N00515128WA0190301997
B1309493658487N00515123WA0190401998
B1309503658491N00515117WA0190501999
B1309513658493N00515111WA0190502001
B1309523658492N00515105WA0190502002
B1309533658491N00515099WA0190502002
B1309543658487N00515095WA0190502003
B1309553658483N00515093WA0190602003
B1309563658479N00515095WA0190502003
B1309573658476N00515099WA0190502003
B1309583658475N00515105WA0190302003
B1309593658475N00515111WA0190302003
B1310003658477N00515117WA0190502003
B1310013658478N00515123WA0190702003
B1310023658479N00515128WA0190802004
B1310033658480N00515134WA0191002004
B1310043658480N00515139WA0191002004
B1310053658478N00515143WA0191002005
B1310063658476N00515147WA0191202005
B1310073658474N00515152WA0191202007
B1310083658472N00515156WA0191402008
B1310093658472N00515162WA0191502009
B1310103658473N00515167WA0191402010
B1310113658475N00515174WA0191302010
B1310123658480N00515180WA0191302010
B1310133658485N00515186WA0191302010
B1310143658491N00515190WA0191402011
B1310153658497N00515193WA0191502012
B1310163658504N00515194WA0191602014
B1310173658510N00515194WA0191602015
B1310183658516N00515194WA0191702016
B1310193658522N00515194WA0191702016
B1310203658528N00515193WA0191702017
B1310213658535N00515192WA0191802017
B1310223658541N00515191WA0191802017
B1310233658546N00515188WA0191802018
B1310243658549N00515183WA0191702017
B1310253658551N00515177WA0191602016
B1310263658551N00515171WA0191402014
B1310273658548N00515167WA0191202013
B1310283658543N00515166WA0191002012
B1310293658538N00515166WA0190902011
B1310303658534N00515169WA0190902010
B1310313658529N00515173WA0191002010
B1310323658526N00515178WA0191102009
B1310333658524N00515182WA0191202010
B1310343658523N00515188WA0191202010
B1310353658522N00515194WA0191202010
B1310363658522N00515201WA0191202010
B1310373658522N00515207WA0191102010
B1310383658523N00515214WA0191002010
B1310393658524N00515220WA0191002010
B1310403658525N00515227WA0190902009
B1310413658526N00515234WA0190702008
B1310423658529N00515241WA0190602007
B1310433658533N00515248WA0190502005
B1310443658538N00515254WA0190402004
B1310453658544N00515258WA0190402003
B1310463658550N00515259WA0190202003
B1310473658556N00515258WA0190202002
B1310483658562N00515257WA0190202002
B1310493658568N00515254WA0190102001
B1310503658573N00515251WA0190002000
B1310513658578N00515247WA0189901999
B1310523658583N00515243WA0189801998
B1310533658587N00515238WA0189601997
B1310543658589N00515233WA0189501996
B1310553658591N00515226WA0189301994
B1310563658593N00515220WA0189101991
B1310573658594N00515213WA0189001990
B1310583658595N00515207WA0189101991
B1310593658595N00515202WA0189101991
B1311003658596N00515195WA0189001990
B1311013658597N00515188WA0188801989
B1311023658598N00515180WA0188701987
B1311033658600N00515173WA0188701986
B1311043658602N00515167WA0188701986
B1311053658605N00515160WA0188701987
B1311063658607N00515154WA0188601986
B1311073658610N00515148WA0188401985
B1311083658614N00515142WA0188401984
B1311093658617N00515136WA0188401984
B1311103658621N00515130WA0188301983
B1311113658624N00515124WA0188301983
B1311123658627N00515118WA0188101982
B1311133658630N00515111WA0187901981
B1311143658633N00515104WA0187901980
B1311153658637N00515098WA0187801980
B1311163658641N00515093WA0187801979
B1311173658645N00515087WA0187601978
B1311183658648N00515080WA0187501976
B1311193658651N00515074WA0187301975
B1311203658654N00515067WA0187001973
B1311213658656N00515060WA0186801971
B1311223658658N00515054WA0186701969
B1311233658660N00515048WA0186501967
B1311243658662N00515041WA0186201964
B1311253658664N00515034WA0186001961
B1311263658664N00515027WA0185701959
B1311273658665N00515020WA0185601957
B1311283658665N00515014WA0185301955
B1311293658664N00515008WA0185101953
B1311303658664N00515001WA0184801950
B1311313658664N00514994WA0184501948
B1311323658664N00514988WA0184301945
B1311333658665N00514981WA0184101944
B1311343658666N00514974WA0184001942
B1311353658669N00514967WA0183901940
B1311363658671N00514961WA0183701938
B1311373658672N00514954WA0183601936
B1311383658673N00514947WA0183201934
B1311393658673N00514940WA0182901931
B1311403658675N00514934WA0182701929
B1311413658678N00514927WA0182501927
B1311423658681N00514921WA0182201925
B1311433658683N00514915WA0182001922
B1311443658685N00514908WA0181701919
B1311453658688N00514900WA0181401916
B1311463658690N00514893WA0181301914
B1311473658693N00514887WA0181301912
B1311483658695N00514881WA0181201912
B1311493658696N00514876WA0181101910
B1311503658698N00514870WA0180701908
B1311513658700N00514863WA0180401905
B1311523658702N00514856WA0180101902
B1311533658703N00514849WA0180001900
B1311543658704N00514843WA0179901899
B1311553658704N00514837WA0179901898
B1311563658704N00514831WA0179701898
B1311573658704N00514825WA0179501896
B1311583658705N00514819WA0179201894
B1311593658706N00514812WA0179001892
B1312003658706N00514806WA0178801890
B1312013658707N00514799WA0178701888
B1312023658708N00514793WA0178701887
B1312033658710N00514787WA0178501886
B1312043658712N00514780WA0178301884
B1312053658715N00514773WA0178201883
B1312063658719N00514767WA0178101882
B1312073658723N00514762WA0178101881
B1312083658726N00514757WA0178001880
B1312093658729N00514752WA0177901879
B1312103658733N00514747WA0177601877
B1312113658737N00514741WA0177401874
B1312123658740N00514735WA0177201873
B1312133658744N00514730WA0177201872
B1312143658747N00514725WA0177101871
B1312153658750N00514720WA0177101870
B1312163658753N00514715WA0177001868
B1312173658755N00514710WA0176801867
B1312183658758N00514705WA0176701866
B1312193658760N00514700WA0176701865
B1312203658763N00514696WA0176601864
B1312213658766N00514692WA0176501864
B1312223658769N00514688WA0176501863
B1312233658773N00514684WA0176501863
B1312243658776N00514680WA0176601863
B1312253658780N00514677WA0176601862
B1312263658784N00514673WA0176501862
B1312273658788N00514669WA0176501862
B1312283658791N00514666WA0176401861
B1312293658795N00514662WA0176401861
B1312303658799N00514658WA0176301860
B1312313658802N00514654WA0176101859
B1312323658806N00514649WA0176001858
B1312333658810N00514645WA0175801856
B1312343658813N00514641WA0175701855
B1312353658816N00514636WA0175501853
B1312363658819N00514630WA0175301851
B1312373658822N00514625WA0175101849
B1312383658824N00514619WA0175001848
B1312393658826N00514614WA0175001847
B1312403658828N00514609WA0174801846
B1312413658830N00514604WA0174601844
B1312423658832N00514598WA0174501843
B1312433658836N00514593WA0174401841
B1312443658839N00514588WA0174301840
B1312453658842N00514582WA0174201839
B1312463658845N00514577WA0174001838
B1312473658848N00514572WA0173901837
B1312483658852N00514567WA0173701836
B1312493658856N00514562WA0173501834
B1312503658859N00514556WA0173301832
B1312513658861N00514551WA0173201831
B1312523658864N00514547WA0173201830
B1312533658866N00514543WA0173101829
B1312543658869N00514538WA0172801827
B1312553658872N00514532WA0172601825
B1312563658874N00514526WA0172301823
B1312573658876N00514520WA0172201821
B1312583658878N00514515WA0172201820
B1312593658880N00514511WA0172101819
B1313003658882N00514506WA0171901818
B1313013658884N00514501WA0171701816
B1313023658886N00514495WA0171501813
B1313033658889N00514489WA0171301811
B1313043658891N00514483WA0171201810
B1313053658893N00514477WA0171201809
B1313063658895N00514471WA0171101809
B1313073658896N00514466WA0171101809
B1313083658898N00514461WA0171001809
B1313093658899N00514455WA0171001808
B1313103658901N00514449WA0170901807
B1313113658902N00514443WA0170901806
B1313123658903N00514438WA0170801806
B1313133658903N00514432WA0170701805
B1313143658904N00514425WA0170601804
B1313153658904N00514419WA0170601804
B1313163658905N00514413WA0170701803
B1313173658907N00514407WA0170601803
B1313183658908N00514401WA0170401802
B1313193658911N00514395WA0170301801
B1313203658912N00514388WA0170301800
B1313213658914N00514382WA0170301801
B1313223658915N00514376WA0170401801
B1313233658915N00514370WA0170401802
B1313243658916N00514364WA0170401802
B1313253658917N00514357WA0170401802
B1313263658919N00514351WA0170201802
B1313273658920N00514345WA0170301802
B1313283658922N00514340WA0170401803
B1313293658924N00514335WA0170401802
B1313303658926N00514330WA0170201801
B1313313658929N00514323WA0170001799
B1313323658932N00514317WA0170001798
B1313333658934N00514311WA0170101799
B1313343658936N00514305WA0170201799
B1313353658938N00514299WA0170201799
B1313363658940N00514292WA0170001798
B1313373658941N00514284WA0169901797
B1313383658942N00514276WA0169801796
B1313393658943N00514268WA0169601795
B1313403658944N00514261WA0169701795
B1313413658945N00514254WA0169801796
B1313423658947N00514247WA0169901796
B1313433658950N00514240WA0169801795
B1313443658953N00514234WA0169801795
B1313453658956N00514228WA0169701795
B1313463658959N00514222WA0169701794
B1313473658962N00514216WA0169801794
B1313483658963N00514210WA0169701794
B1313493658965N00514204WA0169601794
B1313503658968N00514197WA0169501793
B1313513658970N00514190WA0169401791
B1313523658973N00514183WA0169301790
B1313533658975N00514176WA0169301790
B1313543658976N00514170WA0169201790
B1313553658978N00514164WA0169301790
B1313563658979N00514159WA0169301790
B1313573658982N00514153WA0169201789
B1313583658984N00514147WA0169001788
B1313593658985N00514140WA0168701785
B1314003658986N00514134WA0168601784
B1314013658986N00514128WA0168501783
B1314023658987N00514122WA0168501783
B1314033658988N00514117WA0168401782
B1314043658989N00514111WA0168301781
B1314053658991N00514106WA0168101779
B1314063658992N00514100WA0167901778
B1314073658994N00514094WA0167701776
B1314083658996N00514087WA0167501774
B1314093658998N00514080WA0167401773
B1314103658999N00514073WA0167301771
B1314113659000N00514067WA0167201771
B1314123659002N00514061WA0167101771
B1314133659005N00514055WA0166901769
B1314143659009N00514049WA0166801766
B1314153659012N00514041WA0166801765
B1314163659013N00514034WA0166701765
B1314173659015N00514028WA0166801765
B1314183659017N00514022WA0166901765
B1314193659019N00514017WA0166801765
B1314203659022N00514011WA0166901765
B1314213659024N00514006WA0166701765
B1314223659027N00514001WA0166601764
B1314233659031N00513996WA0166401763
B1314243659034N00513991WA0166201761
B1314253659037N00513985WA0166101760
B1314263659039N00513978WA0166001758
B1314273659042N00513972WA0165901757
B1314283659044N00513966WA0165801756
B1314293659047N00513959WA0165701755
B1314303659049N00513954WA0165701754
B1314313659051N00513949WA0165701754
B1314323659053N00513944WA0165601753
B1314333659056N00513939WA0165401751
B1314343659058N00513933WA0165101749
B1314353659061N00513928WA0164901747
B1314363659064N00513923WA0164901746
B1314373659068N00513920WA0164801745
B1314383659072N00513919WA0164601744
B1314393659077N00513918WA0164401742
B1314403659081N00513916WA0164101738
B1314413659086N00513913WA0163801736
B1314423659091N00513910WA0163601733
B1314433659096N00513908WA0163301731
B1314443659101N00513905WA0163101728
B1314453659105N00513904WA0163001726
B1314463659109N00513905WA0162701724
B1314473659114N00513909WA0162201721
B1314483659117N00513916WA0161601717
B1314493659119N00513924WA0161001712
B1314503659118N00513932WA0160901708
B1314513659117N00513939WA0160901707
B1314523659116N00513946WA0161001706
B1314533659116N00513952WA0160901705
B1314543659116N00513959WA0160601702
B1314553659116N00513968WA0160301699
B1314563659115N00513976WA0160001697
B1314573659114N00513983WA0159901695
B1314583659115N00513990WA0160001695
B1314593659116N00513997WA0160001694
B1315003659117N00514003WA0159801692
B1315013659118N00514010WA0159501690
B1315023659119N00514017WA0159401688
B1315033659119N00514025WA0159101686
B1315043659119N00514034WA0158801684
B1315053659119N00514042WA0158601681
B1315063659119N00514050WA0158601680
B1315073659119N00514058WA0158601680
B1315083659120N00514065WA0158501679
B1315093659121N00514072WA0158401677
B1315103659123N00514079WA0158201676
B1315113659125N00514087WA0158001674
B1315123659126N00514094WA0157801672
B1315133659127N00514101WA0157801671
B1315143659127N00514107WA0157701671
B1315153659127N00514114WA0157501669
B1315163659128N00514121WA0157401668
B1315173659129N00514127WA0157201666
B1315183659130N00514134WA0157001664
B1315193659131N00514140WA0156801663
B1315203659132N00514147WA0156601660
B1315213659133N00514155WA0156301658
B1315223659132N00514162WA0156201656
B1315233659132N00514170WA0156301656
B1315243659132N00514177WA0156501657
B1315253659132N00514183WA0156601659
B1315263659132N00514190WA0156601659
B1315273659132N00514196WA0156701659
B1315283659131N00514203WA0156701660
B1315293659131N00514209WA0156901661
B1315303659132N00514215WA0157001662
B1315313659133N00514221WA0157101662
B1315323659134N00514227WA0157201663
B1315333659134N00514233WA0157301664
B1315343659133N00514238WA0157401665
B1315353659129N00514243WA0157301666
B1315363659124N00514245WA0157201665
B1315373659119N00514243WA0157101664
B1315383659115N00514238WA0157001664
B1315393659113N00514232WA0157101664
B1315403659113N00514225WA0157301664
B1315413659114N00514219WA0157501665
B1315423659116N00514213WA0157601665
B1315433659118N00514207WA0157701665
B1315443659120N00514201WA0157701666
B1315453659122N00514196WA0157701666
B1315463659126N00514191WA0157601666
B1315473659132N00514189WA0157501665
B1315483659138N00514188WA0157401664
B1315493659143N00514190WA0157401664
B1315503659148N00514195WA0157401665
B1315513659150N00514201WA0157401664
B1315523659151N00514208WA0157401664
B1315533659151N00514215WA0157501664
B1315543659150N00514221WA0157701664
B1315553659150N00514227WA0157901665
B1315563659150N00514233WA0158001666
B1315573659150N00514240WA0158201667
B1315583659150N00514246WA0158301669
B1315593659151N00514252WA0158401670
B1316003659151N00514258WA0158501672
B1316013659153N00514265WA0158601673
B1316023659156N00514270WA0158701674
B1316033659161N00514272WA0158701676
B1316043659168N00514272WA0158801676
B1316053659173N00514269WA0158801676
B1316063659177N00514264WA0158901677
B1316073659179N00514257WA0159001678
B1316083659177N00514250WA0159001679
B1316093659174N00514244WA0158901678
B1316103659169N00514239WA0159001678
B1316113659164N00514237WA0159201680
B1316123659159N00514238WA0159401682
B1316133659155N00514241WA0159501683
B1316143659151N00514244WA0159701685
B1316153659148N00514249WA0159801686
B1316163659145N00514254WA0159901687
B1316173659144N00514259WA0159901688
B1316183659143N00514265WA0159901689
B1316193659145N00514271WA0159901690
B1316203659148N00514277WA0159801690
B1316213659154N00514282WA0159801691
B1316223659159N00514283WA0159901692
B1316233659165N00514282WA0159901692
B1316243659169N00514278WA0160001693
B1316253659172N00514272WA0160101694
B1316263659174N00514266WA0160201695
B1316273659174N00514260WA0160201696
B1316283659173N00514253WA0160301696
B1316293659171N00514248WA0160301697
B1316303659169N00514242WA0160501698
B1316313659167N00514237WA0160601699
B1316323659165N00514233WA0160601700
B1316333659163N00514228WA0160701701
B1316343659160N00514223WA0160801701
B1316353659158N00514219WA0160901702
B1316363659155N00514214WA0160901703
B1316373659152N00514211WA0161101704
B1316383659149N00514209WA0161101705
B1316393659145N00514209WA0161101706
B1316403659141N00514212WA0160901705
B1316413659138N00514217WA0160701704
B1316423659137N00514224WA0160501703
B1316433659139N00514231WA0160301700
B1316443659142N00514238WA0160101697
B1316453659147N00514244WA0159701695
B1316463659153N00514249WA0159701693
B1316473659159N00514252WA0160001693
B1316483659164N00514255WA0160301693
B1316493659169N00514258WA0160501693
B1316503659173N00514261WA0160601695
B1316513659177N00514264WA0160601695
B1316523659181N00514267WA0160601696
B1316533659186N00514268WA0160601697
B1316543659192N00514266WA0160501696
B1316553659196N00514261WA0160201694
B1316563659200N00514254WA0160001693
B1316573659201N00514246WA0159901693
B1316583659202N00514239WA0160101693
B1316593659201N00514233WA0160301693
B1317003659199N00514227WA0160401693
B1317013659196N00514222WA0160301693
B1317023659192N00514218WA0160201692
B1317033659188N00514214WA0160301692
B1317043659184N00514211WA0160301692
B1317053659181N00514207WA0160301692
B1317063659177N00514201WA0160101692
B1317073659175N00514196WA0160001692
B1317083659174N00514190WA0160101693
B1317093659173N00514184WA0160101694
B1317103659172N00514179WA0160101694
B1317113659171N00514173WA0159901692
B1317123659170N00514167WA0159601691
B1317133659168N00514161WA0159301688
B1317143659168N00514153WA0159101686
B1317153659167N00514146WA0158901684
B1317163659167N00514140WA0158901683
B1317173659165N00514134WA0158701683
B1317183659163N00514128WA0158601681
B1317193659162N00514122WA0158401679
B1317203659162N00514115WA0158101677
B1317213659163N00514108WA0158001675
B1317223659164N00514102WA0157701673
B1317233659165N00514096WA0157601672
B1317243659166N00514089WA0157401670
B1317253659167N00514083WA0157201668
B1317263659169N00514075WA0157101666
B1317273659172N00514068WA0156801663
B1317283659175N00514062WA0156701662
B1317293659178N00514056WA0156701661
B1317303659181N00514051WA0156601660
B1317313659185N00514045WA0156401659
B1317323659188N00514040WA0156201657
B1317333659192N00514033WA0156001654
B1317343659196N00514027WA0155701652
B1317353659200N00514020WA0155501650
B1317363659203N00514014WA0155401649
B1317373659206N00514008WA0155301648
B1317383659209N00514003WA0155201647
B1317393659212N00513997WA0155001645
B1317403659216N00513990WA0154601643
B1317413659219N00513983WA0154301640
B1317423659223N00513976WA0154101637
B1317433659225N00513968WA0154101635
B1317443659228N00513962WA0154101634
B1317453659231N00513955WA0154001633
B1317463659234N00513948WA0153801632
B1317473659237N00513941WA0153701630
B1317483659240N00513934WA0153601629
B1317493659243N00513927WA0153501628
B1317503659247N00513921WA0153501628
B1317513659250N00513915WA0153501628
B1317523659252N00513909WA0153401628
B1317533659255N00513901WA0153101626
B1317543659257N00513894WA0152901624
B1317553659259N00513886WA0152601622
B1317563659262N00513877WA0152301619
B1317573659264N00513869WA0152101617
B1317583659267N00513860WA0152001615
B1317593659270N00513853WA0152101614
B1318003659272N00513845WA0152101613
B1318013659275N00513838WA0152101613
B1318023659278N00513831WA0151901612
B1318033659281N00513823WA0151801611
B1318043659284N00513815WA0151601609
B1318053659287N00513805WA0151601608
B1318063659289N00513796WA0151601608
B1318073659292N00513788WA0151601608
B1318083659295N00513780WA0151701609
B1318093659298N00513772WA0151701609
B1318103659300N00513764WA0151701609
B1318113659303N00513755WA0151601609
B1318123659306N00513746WA0151501608
B1318133659309N00513739WA0151701609
B1318143659312N00513732WA0152101611
B1318153659315N00513725WA0152201613
B1318163659317N00513718WA0152301615
B1318173659320N00513710WA0152301615
B1318183659323N00513702WA0152301615
B1318193659326N00513693WA0152501616
B1318203659328N00513686WA0152801618
B1318213659329N00513678WA0153001620
B1318223659330N00513671WA0153501623
B1318233659331N00513664WA0153801627
B1318243659333N00513656WA0154101630
B1318253659336N00513649WA0154401634
B1318263659338N00513642WA0154601637
B1318273659337N00513636WA0154901640
B1318283659335N00513631WA0155101642
B1318293659330N00513628WA0155101644
B1318303659324N00513631WA0154801645
B1318313659321N00513638WA0154701645
B1318323659321N00513646WA0154801645
B1318333659324N00513652WA0154801646
B1318343659329N00513657WA0155001647
B1318353659335N00513659WA0155301648
B1318363659340N00513660WA0155601650
B1318373659346N00513662WA0156001653
B1318383659350N00513664WA0156201656
B1318393659354N00513665WA0156301654
B1318403659360N00513664WA0156501653
B1318413659367N00513661WA0156501653
B1318423659372N00513656WA0156601654
B1318433659376N00513650WA0156801655
B1318443659378N00513643WA0156901656
B1318453659380N00513637WA0157101658
B1318463659383N00513630WA0157201660
B1318473659385N00513623WA0157301662
B1318483659387N00513617WA0157401663
B1318493659387N00513611WA0157401665
B1318503659386N00513605WA0157401666
B1318513659383N00513600WA0157401666
B1318523659378N00513597WA0157301665
B1318533659374N00513595WA0157401666
B1318543659369N00513593WA0157701668
B1318553659364N00513593WA0157801669
B1318563659359N00513593WA0158001671
B1318573659355N00513595WA0158201672
B1318583659351N00513598WA0158301674
B1318593659347N00513603WA0158601676
B1319003659346N00513609WA0158601677
B1319013659347N00513615WA0158701678
B1319023659351N00513621WA0158701678
B1319033659356N00513625WA0158701678
B1319043659362N00513628WA0158901679
B1319053659369N00513629WA0159001681
B1319063659376N00513627WA0159201683
B1319073659382N00513624WA0159501686
B1319083659386N00513619WA0159701688
B1319093659390N00513614WA0159801690
B1319103659393N00513608WA0159901692
B1319113659396N00513602WA0159901693
B1319123659398N00513594WA0159801693
B1319133659398N00513587WA0159801694
B1319143659396N00513581WA0159901694
B1319153659393N00513576WA0159901694
B1319163659389N00513574WA0159901694
B1319173659384N00513573WA0160001694
B1319183659380N00513570WA0160201696
B1319193659377N00513567WA0160301697
B1319203659373N00513564WA0160401698
B1319213659369N00513560WA0160301698
B1319223659365N00513556WA0160301698
B1319233659361N00513554WA0160301697
B1319243659357N00513553WA0160401698
B1319253659353N00513552WA0160501698
B1319263659349N00513554WA0160501699
B1319273659346N00513556WA0160601700
B1319283659343N00513559WA0160601701
B1319293659341N00513564WA0160701700
B1319303659341N00513570WA0160801700
B1319313659343N00513574WA0161101700
B1319323659346N00513578WA0161301701
B1319333659350N00513580WA0161501702
B1319343659356N00513581WA0161601704
B1319353659362N00513579WA0161601704
B1319363659367N00513574WA0161701705
B1319373659371N00513567WA0161801706
B1319383659373N00513559WA0161801707
B1319393659372N00513550WA0162001709
B1319403659370N00513543WA0162101710
B1319413659366N00513538WA0162101711
B1319423659362N00513536WA0162001712
B1319433659356N00513535WA0162001710
B1319443659351N00513533WA0162101711
B1319453659347N00513533WA0162301712
B1319463659343N00513532WA0162401713
B1319473659339N00513533WA0162501715
B1319483659334N00513534WA0162501715
B1319493659328N00513535WA0162601716
B1319503659323N00513538WA0163001717
B1319513659321N00513541WA0163301719
B1319523659320N00513545WA0163501721
B1319533659320N00513550WA0163501722
B1319543659322N00513554WA0163501720
B1319553659325N00513559WA0163401720
B1319563659329N00513562WA0163601720
B1319573659335N00513563WA0163601721
B1319583659341N00513560WA0163701722
B1319593659346N00513555WA0163801723
B1320003659350N00513547WA0163901724
B1320013659352N00513539WA0164001725
B1320023659353N00513532WA0164201729
B1320033659352N00513525WA0164501731
B1320043659350N00513519WA0164501733
B1320053659348N00513511WA0164601734
B1320063659345N00513504WA0164601735
B1320073659341N00513499WA0164601737
B1320083659337N00513496WA0164601738
B1320093659333N00513496WA0164601737
B1320103659328N00513499WA0164301736
B1320113659324N00513503WA0164301735
B1320123659321N00513508WA0164301734
B1320133659320N00513514WA0164301735
B1320143659321N00513519WA0164401736
B1320153659323N00513524WA0164601737
B1320163659325N00513528WA0164601737
B1320173659329N00513532WA0164701738
B1320183659333N00513534WA0164701738
B1320193659339N00513534WA0164801738
B1320203659346N00513532WA0164901738
B1320213659352N00513529WA0164901741
B1320223659357N00513524WA0165201743
B1320233659361N00513519WA0165401746
B1320243659364N00513514WA0165501748
B1320253659366N00513507WA0165501749
B1320263659367N00513500WA0165401749
B1320273659366N00513492WA0165301749
B1320283659363N00513485WA0165201749
B1320293659358N00513480WA0165001749
B1320303659353N00513478WA0165001749
B1320313659348N00513478WA0165101748
B1320323659345N00513480WA0165101748
B1320333659342N00513484WA0165001747
B1320343659340N00513489WA0164901748
B1320353659339N00513494WA0165001747
B1320363659338N00513499WA0165001747
B1320373659338N00513504WA0165101747
B1320383659338N00513508WA0165201747
B1320393659338N00513513WA0165201747
B1320403659337N00513518WA0165201748
B1320413659335N00513523WA0165301748
B1320423659333N00513528WA0165301748
B1320433659330N00513534WA0165301748
B1320443659329N00513538WA0165501750
B1320453659327N00513543WA0165701751
B1320463659324N00513549WA0165901752
B1320473659321N00513554WA0165901753
B1320483659318N00513559WA0165701753
B1320493659316N00513564WA0165701753
B1320503659317N00513569WA0165601753
B1320513659320N00513574WA0165401753
B1320523659327N00513575WA0165001751
B1320533659334N00513572WA0165101750
B1320543659338N00513567WA0165401751
B1320553659340N00513561WA0165601752
B1320563659340N00513555WA0165701754
B1320573659341N00513548WA0165801754
B1320583659341N00513540WA0165901754
B1320593659342N00513532WA0166001755
B1321003659342N00513525WA0166201756
B1321013659342N00513518WA0166301758
B1321023659340N00513512WA0166401759
B1321033659336N00513506WA0166401759
B1321043659331N00513502WA0166501760
B1321053659326N00513500WA0166601761
B1321063659321N00513500WA0166701762
B1321073659316N00513504WA0166701762
B1321083659314N00513511WA0166601762
B1321093659315N00513517WA0166601761
B1321103659320N00513521WA0166501760
B1321113659325N00513522WA0166501760
B1321123659330N00513519WA0166701759
B1321133659334N00513515WA0166901759
B1321143659336N00513510WA0167201760
B1321153659338N00513504WA0167201763
B1321163659339N00513497WA0167101764
B1321173659340N00513490WA0167001763
B1321183659341N00513481WA0166801764
B1321193659342N00513473WA0166901764
B1321203659342N00513466WA0167201765
B1321213659343N00513459WA0167401766
B1321223659343N00513452WA0167601767
B1321233659344N00513446WA0167701768
B1321243659344N00513439WA0167601765
B1321253659345N00513432WA0167401764
B1321263659346N00513426WA0167301764
B1321273659346N00513419WA0167101763
B1321283659346N00513412WA0166901762
B1321293659347N00513405WA0166801760
B1321303659348N00513398WA0166601759
B1321313659351N00513391WA0166301758
B1321323659354N00513384WA0166101756
B1321333659357N00513377WA0166101757
B1321343659359N00513371WA0166301757
B1321353659361N00513366WA0166301758
B1321363659363N00513360WA0166101757
B1321373659365N00513355WA0165801756
B1321383659367N00513349WA0165601753
B1321393659370N00513342WA0165401751
B1321403659374N00513335WA0165201750
B1321413659377N00513329WA0165401750
B1321423659378N00513324WA0165501751
B1321433659377N00513318WA0165501750
B1321443659376N00513313WA0165501750
B1321453659375N00513307WA0165401749
B1321463659375N00513300WA0165301749
B1321473659375N00513295WA0165301749
B1321483659376N00513289WA0165401749
B1321493659377N00513283WA0165401749
B1321503659378N00513277WA0165201749
B1321513659380N00513271WA0165201748
B1321523659382N00513265WA0165201748
B1321533659383N00513259WA0165301748
B1321543659384N00513253WA0165201748
B1321553659386N00513247WA0165101748
B1321563659389N00513241WA0164901746
B1321573659391N00513234WA0164801744
B1321583659393N00513227WA0164601743
B1321593659394N00513220WA0164601742
B1322003659396N00513213WA0164601742
B1322013659397N00513207WA0164501741
B1322023659399N00513201WA0164201739
B1322033659401N00513195WA0163901737
B1322043659405N00513189WA0163501733
B1322053659410N00513184WA0163001729
B1322063659416N00513178WA0162701725
B1322073659421N00513173WA0162401722
B1322083659427N00513168WA0162201719
B1322093659433N00513162WA0161901716
B1322103659439N00513157WA0161601713
B1322113659445N00513151WA0161301711
B1322123659452N00513146WA0161001708
B1322133659458N00513142WA0160801706
B1322143659465N00513138WA0160801704
B1322153659472N00513134WA0160601702
B1322163659478N00513130WA0160501699
B1322173659485N00513124WA0160301698
B1322183659491N00513119WA0160101695
B1322193659497N00513113WA0159801693
B1322203659503N00513106WA0159601691
B1322213659510N00513100WA0159401689
B1322223659516N00513094WA0159201686
B1322233659522N00513089WA0159001685
B1322243659527N00513085WA0158901683
B1322253659533N00513079WA0158501681
B1322263659538N00513073WA0158101677
B1322273659544N00513066WA0157701674
B1322283659550N00513060WA0157501671
B1322293659556N00513054WA0157401669
B1322303659562N00513049WA0157401668
B1322313659568N00513045WA0157401668
B1322323659574N00513042WA0157501668
B1322333659580N00513039WA0157501668
B1322343659586N00513037WA0157601668
B1322353659592N00513034WA0157701668
B1322363659599N00513031WA0157601668
B1322373659605N00513027WA0157401668
B1322383659611N00513023WA0157601669
B1322393659615N00513019WA0157701670
B1322403659620N00513014WA0157801670
B1322413659624N00513007WA0157701670
B1322423659629N00513001WA0157701670
B1322433659634N00512996WA0157701670
B1322443659639N00512992WA0157701670
B1322453659645N00512988WA0157701671
B1322463659650N00512984WA0157801671
B1322473659656N00512980WA0157701671
B1322483659661N00512975WA0157501671
B1322493659667N00512969WA0157601670
B1322503659673N00512963WA0157701670
B1322513659679N00512958WA0157801671
B1322523659685N00512956WA0158001673
B1322533659691N00512955WA0158001674
B1322543659697N00512955WA0158101674
B1322553659702N00512954WA0158101674
B1322563659708N00512951WA0158101674
B1322573659713N00512946WA0158101674
B1322583659716N00512939WA0158101675
B1322593659719N00512933WA0158201675
B1323003659720N00512927WA0158401677
B1323013659721N00512921WA0158401678
B1323023659722N00512914WA0158301678
B1323033659723N00512908WA0158101677
B1323043659725N00512901WA0157901676
B1323053659727N00512895WA0157601675
B1323063659728N00512890WA0157501673
B1323073659731N00512885WA0157401672
B1323083659733N00512880WA0157201670
B1323093659736N00512874WA0157101668
B1323103659738N00512869WA0157001666
B1323113659739N00512863WA0156901664
B1323123659741N00512857WA0156801663
B1323133659743N00512852WA0156701662
B1323143659745N00512847WA0156501661
B1323153659747N00512842WA0156401660
B1323163659749N00512836WA0156301658
B1323173659751N00512830WA0156101656
B1323183659754N00512824WA0155901655
B1323193659757N00512819WA0155801653
B1323203659760N00512814WA0155801653
B1323213659763N00512810WA0155801652
B1323223659766N00512806WA0155701652
B1323233659769N00512801WA0155501651
B1323243659773N00512796WA0155201648
B1323253659777N00512791WA0154901645
B1323263659782N00512786WA0154701643
B1323273659786N00512782WA0154601641
B1323283659789N00512777WA0154601640
B1323293659792N00512772WA0154601640
B1323303659795N00512767WA0154501639
B1323313659798N00512762WA0154401638
B1323323659802N00512758WA0154301637
B1323333659806N00512755WA0154301636
B1323343659810N00512751WA0154201637
B1323353659813N00512748WA0154201636
B1323363659816N00512743WA0154101636
B1323373659821N00512739WA0153901634
B1323383659825N00512734WA0153801633
B1323393659829N00512730WA0153801632
B1323403659833N00512726WA0153801632
B1323413659836N00512723WA0153601632
B1323423659841N00512720WA0153301630
B1323433659845N00512717WA0152901626
B1323443659850N00512713WA0152401622
B1323453659855N00512709WA0152101617
B1323463659860N00512706WA0151901615
B1323473659866N00512704WA0151601612
B1323483659872N00512703WA0151301610
B1323493659877N00512702WA0151101607
B1323503659884N00512701WA0150701603
B1323513659890N00512700WA0150301599
B1323523659896N00512698WA0150001595
B1323533659903N00512695WA0149601592
B1323543659909N00512691WA0149301588
B1323553659916N00512687WA0149001585
B1323563659922N00512683WA0148901583
B1323573659926N00512679WA0149001583
B1323583659930N00512675WA0149001583
B1323593659934N00512672WA0148801582
B1324003659938N00512668WA0148701581
B1324013659943N00512665WA0148601579
B1324023659948N00512662WA0148501577
B1324033659953N00512660WA0148401576
B1324043659957N00512656WA0148301575
B1324053659961N00512652WA0148301575
B1324063659965N00512649WA0148201574
B1324073659969N00512646WA0148201573
B1324083659974N00512645WA0148001572
B1324093659979N00512645WA0147901571
B1324103659984N00512647WA0147901570
B1324113659990N00512648WA0147801569
B1324123659996N00512647WA0147901569
B1324133700000N00512645WA0148201570
B1324143700003N00512643WA0148201572
B1324153700007N00512642WA0148001572
B1324163700011N00512641WA0147801571
B1324173700017N00512638WA0147701570
B1324183700022N00512634WA0147601569
B1324193700025N00512628WA0148001570
B1324203700026N00512622WA0148301573
B1324213700026N00512617WA0148501574
B1324223700027N00512611WA0148701576
B1324233700028N00512606WA0148901578
B1324243700029N00512601WA0149201581
B1324253700030N00512596WA0149501584
B1324263700029N00512591WA0149901587
B1324273700027N00512586WA0150401591
B1324283700024N00512583WA0150801594
B1324293700018N00512580WA0151201598
B1324303700012N00512581WA0151201601
B1324313700006N00512584WA0151201603
B1324323700001N00512589WA0151401605
B1324333659997N00512596WA0151801607
B1324343659995N00512602WA0151901609
B1324353659995N00512609WA0152001611
B1324363659997N00512615WA0152201612
B1324373700000N00512620WA0152401614
B1324383700004N00512623WA0152601616
B1324393700008N00512623WA0152801617
B1324403700012N00512621WA0152901618
B1324413700015N00512618WA0153101621
B1324423700018N00512615WA0153501623
B1324433700020N00512611WA0153601622
B1324443700024N00512607WA0153901622
B1324453700027N00512603WA0154201623
B1324463700028N00512599WA0154501625
B1324473700027N00512594WA0154701627
B1324483700025N00512588WA0155001628
B1324493700021N00512582WA0155301633
B1324503700017N00512578WA0155701639
B1324513700014N00512576WA0156001643
B1324523700010N00512574WA0156101646
B1324533700004N00512573WA0156001648
B1324543659999N00512575WA0155901649
B1324553659993N00512581WA0155801650
B1324563659990N00512589WA0155701651
B1324573659989N00512598WA0155801650
B1324583659990N00512607WA0156101652
B1324593659992N00512614WA0156501655
B1325003659993N00512620WA0156901659
B1325013659994N00512625WA0157001661
B1325023659995N00512631WA0157001662
B1325033659999N00512637WA0157001662
B1325043700005N00512642WA0157101663
B1325053700010N00512645WA0157201663
B1325063700016N00512645WA0157401666
B1325073700020N00512642WA0157501667
B1325083700022N00512635WA0157501667
B1325093700021N00512627WA0157401666
B1325103700018N00512619WA0157601667
B1325113700014N00512614WA0158001673
B1325123700009N00512612WA0158401675
B1325133700004N00512612WA0158701678
B1325143659998N00512614WA0158901681
B1325153659993N00512618WA0159101683
B1325163659989N00512624WA0159401684
B1325173659987N00512630WA0159301686
B1325183659986N00512638WA0159401686
B1325193659988N00512646WA0159201686
B1325203659992N00512652WA0159201686
B1325213659999N00512656WA0159201686
B1325223700004N00512655WA0159301686
B1325233700008N00512650WA0159301687
B1325243700010N00512643WA0159501688
B1325253700010N00512636WA0159701689
B1325263700012N00512630WA0160001692
B1325273700015N00512624WA0160301694
B1325283700018N00512619WA0160501697
B1325293700021N00512613WA0160801700
B1325303700023N00512608WA0161201704
B1325313700025N00512601WA0161601707
B1325323700026N00512595WA0162101710
B1325333700027N00512588WA0162601715
B1325343700027N00512581WA0163101720
B1325353700025N00512574WA0163501724
B1325363700021N00512568WA0163601728
B1325373700015N00512564WA0163701730
B1325383700008N00512562WA0163901731
B1325393700002N00512564WA0164301734
B1325403659998N00512568WA0164801739
B1325413659994N00512573WA0165301743
B1325423659993N00512578WA0165801748
B1325433659993N00512581WA0166001752
B1325443659994N00512585WA0166001753
B1325453659995N00512590WA0166201754
B1325463659996N00512596WA0166201755
B1325473659997N00512602WA0166501758
B1325483700000N00512606WA0166901761
B1325493700005N00512606WA0167001763
B1325503700011N00512603WA0167101764
B1325513700015N00512598WA0167401765
B1325523700017N00512592WA0167701767
B1325533700019N00512587WA0168101773
B1325543700019N00512581WA0168501777
B1325553700018N00512575WA0168701780
B1325563700016N00512570WA0168801783
B1325573700011N00512566WA0168901784
B1325583700004N00512566WA0169001785
B1325593659999N00512569WA0169101787
B1326003659995N00512576WA0169301789
B1326013659993N00512585WA0169401789
B1326023659996N00512591WA0169501790
B1326033700000N00512596WA0169801792
B1326043700005N00512596WA0170101795
B1326053700010N00512593WA0170401798
B1326063700013N00512588WA0170801801
B1326073700016N00512583WA0171101803
B1326083700017N00512577WA0171601806
B1326093700019N00512573WA0171901810
B1326103700020N00512567WA0172001813
B1326113700018N00512561WA0172001808
B1326123700014N00512557WA0172001808
B1326133700008N00512554WA0171901809
B1326143700002N00512554WA0172101810
B1326153659997N00512557WA0172401812
B1326163659994N00512561WA0172401813
B1326173659992N00512568WA0172301813
B1326183659992N00512576WA0172501814
B1326193659993N00512583WA0172601815
B1326203659996N00512588WA0172901817
B1326213700000N00512591WA0173001818
B1326223700005N00512592WA0173301820
B1326233700010N00512590WA0173401822
B1326243700014N00512586WA0173601825
B1326253700018N00512581WA0173801828
B1326263700020N00512576WA0174101830
B1326273700020N00512570WA0174201831
B1326283700019N00512563WA0174501833
B1326293700017N00512557WA0174701834
B1326303700012N00512552WA0174601836
B1326313700006N00512551WA0174501837
B1326323700000N00512552WA0174501838
B1326333659995N00512556WA0174401838
B1326343659992N00512563WA0174401838
B1326353659989N00512571WA0174601838
B1326363659988N00512578WA0174701841
B1326373659987N00512584WA0174901843
B1326383659989N00512589WA0174901846
B1326393659992N00512593WA0174901844
B1326403659997N00512598WA0175001844
B1326413700001N00512601WA0175201845
B1326423700006N00512602WA0175601846
B1326433700010N00512600WA0176101850
B1326443700014N00512597WA0176201851
B1326453700018N00512593WA0176201853
B1326463700021N00512588WA0176401855
B1326473700024N00512583WA0176401857
B1326483700025N00512577WA0176601858
B1326493700025N00512570WA0176601859
B1326503700023N00512564WA0176801860
B1326513700019N00512560WA0176901862
B1326523700014N00512558WA0177001864
B1326533700009N00512558WA0177101865
B1326543700004N00512561WA0177101866
B1326553700000N00512565WA0177101867
B1326563659995N00512570WA0177001867
B1326573659992N00512576WA0176901867
B1326583659989N00512583WA0176801866
B1326593659987N00512590WA0176801866
B1327003659986N00512597WA0176801866
B1327013659986N00512605WA0176801866
B1327023659988N00512613WA0176701865
B1327033659991N00512620WA0176701865
B1327043659994N00512628WA0177101866
B1327053659997N00512634WA0177501873
B1327063700000N00512637WA0178001880
B1327073700003N00512639WA0178201883
B1327083700006N00512642WA0178401885
B1327093700010N00512645WA0178501887
B1327103700014N00512648WA0178601889
B1327113700018N00512650WA0178801890
B1327123700021N00512649WA0178801891
B1327133700024N00512645WA0178701892
B1327143700026N00512639WA0178601891
B1327153700026N00512633WA0178701891
B1327163700025N00512628WA0178901892
B1327173700022N00512623WA0179101892
B1327183700019N00512621WA0179101893
B1327193700014N00512618WA0179201891
B1327203700008N00512618WA0179301891
B1327213700002N00512618WA0179401891
B1327223659996N00512621WA0179601893
B1327233659993N00512627WA0179701894
B1327243659991N00512634WA0179701895
B1327253659992N00512643WA0179701896
B1327263659994N00512651WA0179801896
B1327273659998N00512657WA0179901897
B1327283700002N00512662WA0180201898
B1327293700005N00512666WA0180601901
B1327303700007N00512670WA0180801903
B1327313700010N00512673WA0180701905
B1327323700014N00512677WA0180701905
B1327333700019N00512677WA0180601903
B1327343700023N00512675WA0180601903
B1327353700027N00512673WA0180801903
B1327363700030N00512670WA0180801904
B1327373700032N00512665WA0180901905
B1327383700034N00512660WA0181001905
B1327393700035N00512654WA0181101905
B1327403700035N00512648WA0181301907
B1327413700035N00512644WA0181601909
B1327423700032N00512639WA0181901911
B1327433700029N00512635WA0181901913
B1327443700023N00512632WA0182001914
B1327453700018N00512632WA0182101915
B1327463700012N00512634WA0182101916
B1327473700009N00512640WA0182101917
B1327483700007N00512647WA0182101918
B1327493700009N00512654WA0182201918
B1327503700012N00512659WA0182201917
B1327513700017N00512661WA0182301917
B1327523700022N00512660WA0182301919
B1327533700027N00512658WA0182401920
B1327543700030N00512654WA0182601922
B1327553700033N00512650WA0182701923
B1327563700035N00512646WA0182901922
B1327573700035N00512642WA0182901922
B1327583700034N00512636WA0182701922
B1327593700033N00512631WA0182901922
B1328003700032N00512625WA0183001922
B1328013700030N00512619WA0183001922
B1328023700028N00512613WA0183001922
B1328033700026N00512607WA0183001922
B1328043700024N00512601WA0182901922
B1328053700023N00512594WA0182901922
B1328063700024N00512588WA0182801923
B1328073700027N00512582WA0182801924
B1328083700031N00512578WA0182901924
B1328093700035N00512574WA0183001924
B1328103700040N00512571WA0183001925
B1328113700045N00512568WA0182901925
B1328123700049N00512565WA0183101926
B1328133700054N00512561WA0183301926
B1328143700060N00512557WA0183401927
B1328153700064N00512553WA0183601929
B1328163700067N00512549WA0183801932
B1328173700069N00512544WA0183801933
B1328183700069N00512538WA0183701934
B1328193700069N00512530WA0183601934
B1328203700069N00512523WA0183601934
B1328213700069N00512516WA0183601934
B1328223700069N00512510WA0183701935
B1328233700072N00512504WA0183701935
B1328243700075N00512498WA0183701935
B1328253700078N00512493WA0183601934
B1328263700082N00512488WA0183501933
B1328273700086N00512483WA0183401932
B1328283700089N00512477WA0183601932
B1328293700092N00512472WA0183701934
B1328303700094N00512467WA0183901935
B1328313700096N00512461WA0184001936
B1328323700098N00512455WA0184201937
B1328333700100N00512449WA0184301938
B1328343700102N00512444WA0184401940
B1328353700105N00512439WA0184501941
B1328363700108N00512434WA0184601941
B1328373700111N00512430WA0184601942
B1328383700114N00512425WA0184701943
B1328393700117N00512420WA0184801944
B1328403700119N00512414WA0184901945
B1328413700122N00512408WA0184901946
B1328423700126N00512402WA0185001946
B1328433700131N00512398WA0185001947
B1328443700136N00512394WA0185101948
B1328453700141N00512393WA0185301951
B1328463700145N00512393WA0185501952
B1328473700148N00512395WA0185601953
B1328483700152N00512399WA0185501953
B1328493700153N00512404WA0185401952
B1328503700153N00512410WA0185401952
B1328513700151N00512415WA0185501952
B1328523700147N00512419WA0185601952
B1328533700142N00512421WA0185601952
B1328543700137N00512420WA0185701953
B1328553700132N00512416WA0185601953
B1328563700130N00512409WA0185401952
B1328573700129N00512400WA0185301951
B1328583700130N00512393WA0185501951
B1328593700132N00512387WA0185801954
B1329003700134N00512383WA0186001956
B1329013700138N00512379WA0186001956
B1329023700141N00512374WA0185701956
B1329033700146N00512370WA0185601956
B1329043700151N00512364WA0185701956
B1329053700154N00512360WA0186001958
B1329063700157N00512357WA0186201957
B1329073700161N00512354WA0186301957
B1329083700164N00512350WA0186101957
B1329093700168N00512344WA0185901956
B1329103700173N00512338WA0185501955
B1329113700177N00512331WA0185601954
B1329123700180N00512326WA0185901955
B1329133700183N00512321WA0186001956
B1329143700186N00512315WA0186001956
B1329153700189N00512308WA0185801956
B1329163700192N00512301WA0185601955
B1329173700196N00512294WA0185501955
B1329183700200N00512288WA0185801957
B1329193700203N00512283WA0186001960
B1329203700205N00512277WA0186101961
B1329213700209N00512270WA0186001960
B1329223700212N00512263WA0185901959
B1329233700216N00512256WA0185901960
B1329243700220N00512250WA0186201962
B1329253700223N00512246WA0186601966
B1329263700226N00512241WA0186601968
B1329273700229N00512235WA0186501968
B1329283700232N00512228WA0186101965
B1329293700236N00512220WA0186001963
B1329303700240N00512213WA0185901962
B1329313700243N00512206WA0186101964
B1329323700245N00512201WA0186401966
B1329333700248N00512196WA0186401967
B1329343700252N00512191WA0186301967
B1329353700257N00512185WA0185801965
B1329363700262N00512179WA0185701964
B1329373700266N00512174WA0185801963
B1329383700271N00512169WA0185801962
B1329393700275N00512163WA0185801962
B1329403700279N00512158WA0185701961
B1329413700283N00512153WA0185601960
B1329423700287N00512147WA0185501959
B1329433700291N00512141WA0185501958
B1329443700295N00512134WA0185401957
B1329453700298N00512127WA0185301956
B1329463700300N00512120WA0185601956
B1329473700303N00512114WA0185701957
B1329483700306N00512109WA0185801957
B1329493700311N00512104WA0185801957
B1329503700315N00512098WA0185801956
B1329513700319N00512092WA0185801955
B1329523700323N00512085WA0185701956
B1329533700325N00512079WA0185701957
B1329543700327N00512073WA0185801957
B1329553700328N00512067WA0185701957
B1329563700329N00512061WA0185501957
B1329573700330N00512053WA0185301955
B1329583700331N00512045WA0185101954
B1329593700332N00512037WA0185001952
B1330003700333N00512029WA0185001951
B1330013700335N00512021WA0185201951
B1330023700336N00512014WA0185301953
B1330033700337N00512007WA0185501954
B1330043700338N00512000WA0185501955
B1330053700339N00511992WA0185401955
B1330063700340N00511984WA0185301954
B1330073700342N00511976WA0185201953
B1330083700344N00511969WA0185301953
B1330093700346N00511962WA0185401953
B1330103700348N00511954WA0185401953
B1330113700350N00511947WA0185601954
B1330123700351N00511940WA0185701955
B1330133700353N00511933WA0185801956
B1330143700356N00511926WA0185801956
B1330153700358N00511919WA0185901957
B1330163700360N00511912WA0186101958
B1330173700362N00511904WA0186201960
B1330183700363N00511897WA0186401962
B1330193700365N00511890WA0186601964
B1330203700368N00511883WA0186701965
B1330213700372N00511877WA0186801966
B1330223700376N00511870WA0186801966
B1330233700381N00511864WA0186901967
B1330243700385N00511857WA0186901968
B1330253700388N00511850WA0187101969
B1330263700391N00511843WA0187101970
B1330273700394N00511836WA0187201971
B1330283700397N00511829WA0187201971
B1330293700400N00511822WA0187101972
B1330303700403N00511814WA0187201972
B1330313700406N00511807WA0187401972
B1330323700408N00511800WA0187501974
B1330333700411N00511794WA0187601977
B1330343700414N00511787WA0187701978
B1330353700418N00511781WA0187601979
B1330363700422N00511774WA0187701979
B1330373700427N00511767WA0187901979
B1330383700431N00511760WA0188001980
B1330393700435N00511753WA0188201981
B1330403700439N00511745WA0188301982
B1330413700442N00511738WA0188501984
B1330423700446N00511731WA0188701986
B1330433700449N00511724WA0188801987
B1330443700453N00511717WA0188901988
B1330453700457N00511710WA0189101989
B1330463700462N00511704WA0189201991
B1330473700466N00511698WA0189401992
B1330483700470N00511693WA0189501994
B1330493700474N00511686WA0189501995
B1330503700479N00511680WA0189601995
B1330513700484N00511674WA0189701996
B1330523700490N00511671WA0189801997
B1330533700496N00511669WA0189901998
B1330543700502N00511670WA0189901998
B1330553700508N00511673WA0190001997
B1330563700512N00511678WA0190001996
B1330573700514N00511683WA0190101997
B1330583700513N00511688WA0190201997
B1330593700512N00511693WA0190401999
B1331003700511N00511696WA0190602000
B1331013700510N00511700WA0190802002
B1331023700509N00511704WA0190902003
B1331033700507N00511707WA0190902004
B1331043700503N00511710WA0190902005
B1331053700499N00511711WA0190902005
B1331063700495N00511710WA0190802006
B1331073700491N00511707WA0190902007
B1331083700488N00511704WA0191202009
B1331093700485N00511700WA0191402010
B1331103700483N00511695WA0191502012
B1331113700480N00511690WA0191602013
B1331123700479N00511684WA0191702014
B1331133700479N00511676WA0191802015
B1331143700480N00511669WA0191802015
B1331153700484N00511661WA0191802016
B1331163700488N00511654WA0191802016
B1331173700494N00511650WA0191802016
B1331183700501N00511648WA0191702015
B1331193700508N00511648WA0191602014
B1331203700515N00511651WA0191602013
B1331213700520N00511655WA0191602012
B1331223700524N00511661WA0191702013
B1331233700527N00511665WA0191902013
B1331243700529N00511670WA0192002015
B1331253700530N00511675WA0192102016
B1331263700529N00511680WA0192102016
B1331273700526N00511683WA0192102016
B1331283700523N00511685WA0192102015
B1331293700519N00511685WA0192102016
B1331303700515N00511681WA0192202016
B1331313700512N00511676WA0192202016
B1331323700510N00511669WA0192202016
B1331333700510N00511662WA0192202018
B1331343700509N00511655WA0192302019
B1331353700509N00511648WA0192302019
B1331363700508N00511641WA0192302019
B1331373700506N00511634WA0192202019
B1331383700505N00511626WA0192202019
B1331393700505N00511618WA0192102019
B1331403700506N00511611WA0192202018
B1331413700507N00511603WA0192102018
B1331423700507N00511596WA0192002018
B1331433700507N00511589WA0191802017
B1331443700507N00511581WA0191602016
B1331453700507N00511574WA0191302014
B1331463700508N00511566WA0191102011
B1331473700508N00511558WA0191002010
B1331483700508N00511551WA0190902008
B1331493700507N00511544WA0190702008
B1331503700507N00511537WA0190602006
B1331513700507N00511528WA0190402004
B1331523700508N00511519WA0190102002
B1331533700510N00511510WA0190102001
B1331543700512N00511502WA0190302000
B1331553700513N00511495WA0190502002
B1331563700513N00511487WA0190502003
B1331573700513N00511479WA0190402002
B1331583700514N00511471WA0190302002
B1331593700515N00511463WA0190402001
B1332003700517N00511455WA0190402001
B1332013700519N00511447WA0190102001
B1332023700521N00511439WA0190002001
B1332033700524N00511432WA0190102001
B1332043700526N00511424WA0190202001
B1332053700529N00511417WA0190102000
B1332063700530N00511409WA0190001999
B1332073700532N00511401WA0189601997
B1332083700533N00511392WA0189401996
B1332093700534N00511383WA0189201994
B1332103700536N00511374WA0189301993
B1332113700537N00511366WA0189301993
B1332123700538N00511358WA0189301992
B1332133700539N00511350WA0189401992
B1332143700540N00511343WA0189301992
B1332153700543N00511336WA0189301993
B1332163700546N00511331WA0189401994
B1332173700550N00511326WA0189401994
B1332183700552N00511319WA0189301994
B1332193700553N00511312WA0188801992
B1332203700554N00511305WA0188601990
B1332213700555N00511299WA0188501988
B1332223700555N00511294WA0188301986
B1332233700555N00511289WA0188101985
B1332243700557N00511284WA0187901982
B1332253700559N00511277WA0187401978
B1332263700561N00511270WA0187001974
B1332273700563N00511263WA0186801971
B1332283700564N00511257WA0186601968
B1332293700564N00511252WA0186401966
B1332303700563N00511246WA0186201964
B1332313700563N00511239WA0185901961
B1332323700564N00511231WA0185701959
B1332333700564N00511225WA0185701957
B1332343700564N00511219WA0185801958
B1332353700563N00511214WA0185701957
B1332363700563N00511208WA0185601956
B1332373700562N00511202WA0185401955
B1332383700561N00511196WA0185201954
B1332393700560N00511191WA0185201953
B1332403700558N00511185WA0185101952
B1332413700557N00511178WA0184901950
B1332423700557N00511172WA0184901949
B1332433700557N00511166WA0184901949
B1332443700558N00511160WA0184801948
B1332453700559N00511153WA0184701947
B1332463700560N00511147WA0184601946
B1332473700563N00511141WA0184501945
B1332483700565N00511135WA0184501944
B1332493700567N00511129WA0184301944
B1332503700567N00511122WA0184101943
B1332513700568N00511115WA0183901941
B1332523700568N00511108WA0183901940
B1332533700570N00511101WA0184001939
B1332543700571N00511096WA0184001941
B1332553700572N00511090WA0184001941
B1332563700573N00511085WA0183701939
B1332573700574N00511078WA0183401936
B1332583700576N00511072WA0183101934
B1332593700580N00511065WA0182801931
B1333003700584N00511060WA0182801930
B1333013700588N00511055WA0182601928
B1333023700590N00511048WA0182501926
B1333033700592N00511041WA0182401924
B1333043700593N00511033WA0182301923
B1333053700593N00511027WA0182501923
B1333063700595N00511021WA0182501924
B1333073700597N00511014WA0182501924
B1333083700599N00511007WA0182401923
B1333093700602N00511000WA0182301922
B1333103700604N00510992WA0182301921
B1333113700606N00510985WA0182401922
B1333123700607N00510978WA0182501924
B1333133700607N00510972WA0182501925
B1333143700608N00510966WA0182301923
B1333153700610N00510959WA0182001921
B1333163700612N00510951WA0181701917
B1333173700614N00510943WA0181501914
B1333183700616N00510936WA0181601913
B1333193700616N00510928WA0181601915
B1333203700616N00510921WA0181701916
B1333213700614N00510913WA0181701916
B1333223700612N00510905WA0181801916
B1333233700611N00510897WA0181901917
B1333243700609N00510890WA0182001919
B1333253700607N00510882WA0182101919
B1333263700605N00510874WA0182101920
B1333273700603N00510865WA0181901920
B1333283700602N00510857WA0181901920
B1333293700601N00510848WA0182201921
B1333303700601N00510841WA0182501923
B1333313700602N00510834WA0182701925
B1333323700601N00510827WA0183001928
B1333333700600N00510820WA0183101929
B1333343700597N00510813WA0183201931
B1333353700593N00510806WA0183401932
B1333363700588N00510802WA0183401934
B1333373700582N00510801WA0183501935
B1333383700577N00510800WA0183601935
B1333393700572N00510800WA0183601936
B1333403700568N00510801WA0183401935
B1333413700564N00510804WA0183201934
B1333423700560N00510810WA0182901932
B1333433700559N00510818WA0182701931
B1333443700561N00510824WA0182401929
B1333453700566N00510827WA0182201927
B1333463700572N00510828WA0182101925
B1333473700576N00510826WA0182301924
B1333483700580N00510823WA0182501926
B1333493700582N00510818WA0182601927
B1333503700583N00510812WA0182701928
B1333513700584N00510806WA0182801928
B1333523700586N00510800WA0182801929
B1333533700588N00510793WA0182801929
B1333543700590N00510787WA0182801930
B1333553700591N00510780WA0182801931
B1333563700593N00510773WA0182801931
B1333573700595N00510766WA0182801931
B1333583700597N00510759WA0182901931
B1333593700600N00510752WA0183001930
B1334003700603N00510745WA0182901930
B1334013700606N00510739WA0183101931
B1334023700608N00510732WA0183401934
B1334033700609N00510724WA0183701937
B1334043700608N00510717WA0184001940
B1334053700608N00510709WA0184301942
B1334063700607N00510700WA0184501944
B1334073700607N00510692WA0184701947
B1334083700608N00510685WA0185001949
B1334093700609N00510678WA0185301951
B1334103700610N00510672WA0185501953
B1334113700611N00510665WA0185601954
B1334123700612N00510658WA0185501955
B1334133700612N00510652WA0185501956
B1334143700609N00510646WA0185201957
B1334153700603N00510644WA0184901951
B1334163700597N00510645WA0184601949
B1334173700592N00510650WA0184401947
B1334183700589N00510656WA0184401947
B1334193700588N00510662WA0184601948
B1334203700590N00510667WA0184701948
B1334213700592N00510673WA0184601948
B1334223700594N00510679WA0184601947
B1334233700597N00510685WA0184701947
B1334243700600N00510691WA0184701947
B1334253700602N00510698WA0184901948
B1334263700603N00510704WA0185101949
B1334273700605N00510710WA0185301951
B1334283700606N00510716WA0185501953
B1334293700606N00510722WA0185701955
B1334303700606N00510729WA0185801956
B1334313700607N00510735WA0186001958
B1334323700609N00510741WA0186101959
B1334333700614N00510745WA0186201960
B1334343700621N00510746WA0186301961
B1334353700627N00510741WA0186001960
B1334363700629N00510732WA0185701960
B1334373700629N00510721WA0186101960
B1334383700626N00510714WA0186601962
B1334393700621N00510710WA0187101966
B1334403700615N00510708WA0187201969
B1334413700608N00510705WA0187601971
B1334423700604N00510700WA0187801974
B1334433700602N00510694WA0187901977
B1334443700601N00510687WA0188001977
B1334453700599N00510681WA0188101978
B1334463700597N00510675WA0188301980
B1334473700594N00510669WA0188501982
B1334483700591N00510663WA0188601984
B1334493700586N00510658WA0188801986
B1334503700582N00510654WA0188901987
B1334513700577N00510653WA0189001989
B1334523700572N00510654WA0189001989
B1334533700567N00510658WA0188701987
B1334543700561N00510660WA0188801986
B1334553700555N00510660WA0188701986
B1334563700549N00510657WA0188401986
B1334573700543N00510651WA0188101984
B1334583700539N00510643WA0187801982
B1334593700536N00510634WA0187501978
B1335003700534N00510625WA0187201974
B1335013700532N00510618WA0186901971
B1335023700529N00510611WA0186601969
B1335033700527N00510605WA0186301966
B1335043700525N00510599WA0186101963
B1335053700522N00510592WA0185801961
B1335063700517N00510585WA0185601957
B1335073700513N00510578WA0185301955
B1335083700511N00510571WA0185301956
B1335093700509N00510565WA0185301955
B1335103700508N00510559WA0185201955
B1335113700507N00510554WA0185101954
B1335123700506N00510547WA0184801952
B1335133700507N00510539WA0184701950
B1335143700506N00510532WA0184701950
B1335153700505N00510526WA0185001951
B1335163700503N00510519WA0184801951
B1335173700502N00510513WA0184601950
B1335183700500N00510507WA0184301948
B1335193700499N00510501WA0184101945
B1335203700496N00510495WA0184001943
B1335213700494N00510488WA0183901942
B1335223700492N00510481WA0184001942
B1335233700491N00510475WA0184101942
B1335243700489N00510470WA0184101942
B1335253700488N00510464WA0184001942
B1335263700486N00510457WA0183901940
B1335273700484N00510448WA0183701938
B1335283700482N00510440WA0183701938
B1335293700479N00510433WA0184001938
B1335303700477N00510426WA0184101939
B1335313700474N00510419WA0184301941
B1335323700473N00510412WA0184301942
B1335333700473N00510405WA0184201942
B1335343700475N00510397WA0184201941
B1335353700478N00510389WA0184101941
B1335363700480N00510381WA0184201942
B1335373700481N00510374WA0184401944
B1335383700480N00510365WA0184401944
B1335393700478N00510357WA0184401944
B1335403700475N00510348WA0184401945
B1335413700473N00510342WA0184501945
B1335423700470N00510336WA0184501946
B1335433700467N00510329WA0184501946
B1335443700465N00510323WA0184301945
B1335453700463N00510317WA0184101943
B1335463700460N00510311WA0183801941
B1335473700457N00510305WA0183501939
B1335483700454N00510299WA0183201936
B1335493700451N00510293WA0183101934
B1335503700448N00510287WA0182901933
B1335513700446N00510281WA0182801931
B1335523700444N00510275WA0182501929
B1335533700441N00510268WA0182101925
B1335543700437N00510260WA0181701921
B1335553700433N00510252WA0181301917
B1335563700430N00510244WA0181101914
B1335573700426N00510238WA0181001912
B1335583700423N00510232WA0180801911
B1335593700419N00510227WA0180601909
B1336003700415N00510221WA0180301906
B1336013700411N00510214WA0180001903
B1336023700407N00510207WA0179701899
B1336033700404N00510200WA0179501896
B1336043700401N00510194WA0179301894
B1336053700398N00510188WA0179201893
B1336063700396N00510182WA0179001891
B1336073700394N00510176WA0178701888
B1336083700391N00510170WA0178301885
B1336093700388N00510164WA0178001882
B1336103700384N00510158WA0177601878
B1336113700381N00510153WA0177401875
B1336123700377N00510147WA0177101873
B1336133700374N00510142WA0176901871
B1336143700371N00510136WA0176601869
B1336153700369N00510129WA0176401865
B1336163700366N00510122WA0176101862
B1336173700363N00510116WA0175801859
B1336183700359N00510109WA0175501856
B1336193700357N00510102WA0175401853
B1336203700355N00510094WA0175101851
B1336213700353N00510086WA0174901849
B1336223700351N00510079WA0174701846
B1336233700349N00510071WA0174401844
B1336243700346N00510064WA0174201841
B1336253700343N00510057WA0174001839
B1336263700341N00510049WA0173701837
B1336273700338N00510042WA0173401834
B1336283700334N00510036WA0173201832
B1336293700331N00510030WA0172901829
B1336303700327N00510024WA0172701827
B1336313700325N00510018WA0172501825
B1336323700322N00510011WA0172301823
B1336333700320N00510004WA0172101820
B1336343700317N00509997WA0171801817
B1336353700315N00509990WA0171701816
B1336363700313N00509983WA0171601815
B1336373700311N00509978WA0171401814
B1336383700308N00509973WA0171201812
B1336393700305N00509968WA0171001810
B1336403700303N00509963WA0170601806
B1336413700299N00509956WA0170301803
B1336423700296N00509950WA0170001800
B1336433700293N00509944WA0169901798
B1336443700291N00509938WA0169801797
B1336453700288N00509932WA0169701796
B1336463700285N00509927WA0169601795
B1336473700282N00509922WA0169501794
B1336483700278N00509918WA0169301792
B1336493700274N00509914WA0169101790
B1336503700269N00509910WA0168901788
B1336513700265N00509906WA0168701786
B1336523700261N00509901WA0168501784
B1336533700257N00509896WA0168301782
B1336543700253N00509891WA0168101780
B1336553700249N00509885WA0167901778
B1336563700246N00509879WA0167601776
B1336573700242N00509873WA0167301773
B1336583700239N00509866WA0167101770
B1336593700235N00509861WA0166901768
B1337003700232N00509855WA0166701766
B1337013700228N00509850WA0166401764
B1337023700226N00509843WA0166201762
B1337033700223N00509836WA0166001760
B1337043700221N00509829WA0165801758
B1337053700218N00509823WA0165601756
B1337063700214N00509816WA0165401754
B1337073700211N00509809WA0165201752
B1337083700207N00509803WA0165201750
B1337093700202N00509797WA0165001749
B1337103700198N00509792WA0164801748
B1337113700194N00509786WA0164701746
B1337123700190N00509780WA0164601745
B1337133700187N00509775WA0164401743
B1337143700183N00509769WA0164301741
B1337153700180N00509762WA0164101740
B1337163700176N00509756WA0164001738
B1337173700173N00509750WA0163901737
B1337183700170N00509744WA0163701736
B1337193700166N00509738WA0163501734
B1337203700163N00509731WA0163301732
B1337213700159N00509724WA0163201730
B1337223700156N00509718WA0163101729
B1337233700152N00509712WA0163001728
B1337243700149N00509706WA0162901727
B1337253700145N00509700WA0162701726
B1337263700141N00509694WA0162501724
B1337273700137N00509688WA0162201722
B1337283700132N00509682WA0161901719
B1337293700128N00509675WA0161701716
B1337303700124N00509668WA0161601714
B1337313700120N00509662WA0161401713
B1337323700116N00509656WA0161301711
B1337333700111N00509650WA0161101710
B1337343700107N00509644WA0160901708
B1337353700103N00509637WA0160801706
B1337363700099N00509630WA0160701705
B1337373700094N00509623WA0160601704
B1337383700090N00509616WA0160601702
B1337393700086N00509610WA0160501702
B1337403700082N00509603WA0160401701
B1337413700079N00509597WA0160201700
B1337423700075N00509591WA0160001698
B1337433700070N00509586WA0159601696
B1337443700065N00509580WA0159401694
B1337453700061N00509573WA0159301692
B1337463700056N00509567WA0159301691
B1337473700052N00509560WA0159301690
B1337483700047N00509553WA0159301689
B1337493700043N00509546WA0159201688
B1337503700039N00509538WA0159101688
B1337513700034N00509531WA0159001687
B1337523700029N00509525WA0158901687
B1337533700025N00509519WA0158801685
B1337543700020N00509514WA0158701684
B1337553700015N00509509WA0158501683
B1337563700010N00509503WA0158301681
B1337573700005N00509496WA0158101679
B1337583659999N00509489WA0158001678
B1337593659994N00509483WA0158201678
B1338003659989N00509476WA0158201679
B1338013659985N00509471WA0158401680
B1338023659982N00509466WA0158401681
B1338033659979N00509461WA0158301682
B1338043659975N00509456WA0158101681
B1338053659971N00509451WA0157801678
B1338063659966N00509444WA0157401676
B1338073659961N00509438WA0157501674
B1338083659956N00509432WA0157601674
B1338093659952N00509427WA0157701674
B1338103659948N00509423WA0157701674
B1338113659943N00509418WA0157601674
B1338123659938N00509413WA0157601672
B1338133659932N00509408WA0157501671
B1338143659927N00509403WA0157401671
B1338153659921N00509399WA0157601671
B1338163659916N00509395WA0157501672
B1338173659911N00509391WA0157401672
B1338183659906N00509386WA0157401671
B1338193659900N00509379WA0157201669
B1338203659895N00509374WA0157201668
B1338213659891N00509369WA0157201668
B1338223659886N00509365WA0157201668
B1338233659882N00509362WA0157201668
B1338243659877N00509358WA0156901667
B1338253659872N00509353WA0156601665
B1338263659866N00509347WA0156501663
B1338273659861N00509341WA0156401661
B1338283659856N00509334WA0156401660
B1338293659852N00509328WA0156401660
B1338303659848N00509322WA0156401660
B1338313659845N00509316WA0156301659
B1338323659841N00509310WA0156101658
B1338333659836N00509304WA0155801656
B1338343659831N00509298WA0155601654
B1338353659826N00509292WA0155501653
B1338363659822N00509286WA0155401651
B1338373659817N00509280WA0155301650
B1338383659812N00509274WA0155101649
B1338393659807N00509269WA0154901647
B1338403659802N00509263WA0154701645
B1338413659797N00509256WA0154601643
B1338423659792N00509250WA0154501642
B1338433659789N00509243WA0154601642
B1338443659785N00509236WA0154601642
B1338453659782N00509230WA0154401641
B1338463659777N00509224WA0154201640
B1338473659772N00509217WA0154101638
B1338483659767N00509211WA0154001637
B1338493659763N00509204WA0153901636
B1338503659759N00509197WA0153801635
B1338513659755N00509191WA0153701634
B1338523659750N00509184WA0153601632
B1338533659745N00509177WA0153501631
B1338543659740N00509171WA0153401631
B1338553659736N00509166WA0153201630
B1338563659733N00509160WA0153001629
B1338573659730N00509153WA0152601627
B1338583659726N00509146WA0152401624
B1338593659722N00509137WA0152201621
B1339003659720N00509128WA0152101619
B1339013659718N00509121WA0152101617
B1339023659717N00509114WA0152101617
B1339033659715N00509108WA0152101617
B1339043659713N00509102WA0151901616
B1339053659711N00509096WA0151601614
B1339063659709N00509089WA0151401611
B1339073659705N00509081WA0151201609
B1339083659702N00509072WA0151101607
B1339093659700N00509064WA0151101606
B1339103659698N00509055WA0151201606
B1339113659697N00509048WA0151201607
B1339123659696N00509041WA0151301608
B1339133659697N00509034WA0151301608
B1339143659700N00509027WA0151201605
B1339153659703N00509022WA0151001603
B1339163659706N00509017WA0151101602
B1339173659709N00509013WA0151201603
B1339183659710N00509009WA0151201604
B1339193659711N00509003WA0151201603
B1339203659712N00508996WA0151001602
B1339213659714N00508989WA0151001602
B1339223659715N00508982WA0151201603
B1339233659717N00508977WA0151501606
B1339243659719N00508973WA0151601607
B1339253659723N00508972WA0151601607
B1339263659727N00508971WA0151601606
B1339273659731N00508972WA0151701606
B1339283659734N00508974WA0151801607
B1339293659737N00508977WA0152001608
B1339303659738N00508981WA0152101609
B1339313659738N00508986WA0152101610
B1339323659737N00508991WA0152201610
B1339333659736N00508995WA0152201611
B1339343659736N00508999WA0151901610
B1339353659735N00509002WA0151801610
B1339363659735N00509004WA0151601610
B1339373659733N00509008WA0151401607
B1339383659731N00509012WA0151201605
B1339393659726N00509015WA0151101603
B1339403659719N00509015WA0151101602
B1339413659711N00509014WA0151001601
B1339423659704N00509010WA0151001600
B1339433659697N00509007WA0151001600
B1339443659691N00509004WA0150901599
B1339453659685N00509000WA0150901599
B1339463659678N00508994WA0151001599
B1339473659673N00508989WA0150901600
B1339483659669N00508984WA0151101600
B1339493659664N00508979WA0151001600
B1339503659658N00508974WA0150801600
B1339513659651N00508970WA0150501597
B1339523659644N00508966WA0150301595
B1339533659638N00508961WA0150201594
B1339543659632N00508956WA0150101593
B1339553659627N00508950WA0150001592
B1339563659623N00508944WA0150001592
B1339573659621N00508937WA0150001592
B1339583659619N00508929WA0149801590
B1339593659618N00508921WA0149401589
B1340003659617N00508911WA0149201587
B1340013659615N00508902WA0149001584
B1340023659612N00508893WA0148901582
B1340033659610N00508885WA0148701581
B1340043659607N00508877WA0148601580
B1340053659604N00508870WA0148401578
B1340063659601N00508862WA0148301576
B1340073659598N00508855WA0148101574
B1340083659595N00508847WA0147901572
B1340093659592N00508838WA0147801570
B1340103659589N00508830WA0147801569
B1340113659586N00508823WA0147801569
B1340123659583N00508816WA0147601568
B1340133659580N00508809WA0147401567
B1340143659577N00508801WA0147201564
B1340153659575N00508794WA0147101562
B1340163659573N00508787WA0147001561
B1340173659571N00508780WA0146801560
B1340183659570N00508774WA0146601559
B1340193659568N00508767WA0146301557
B1340203659566N00508759WA0146001554
B1340213659564N00508752WA0145801551
B1340223659562N00508746WA0145701550
B1340233659561N00508740WA0145601548
B1340243659559N00508734WA0145401547
B1340253659558N00508728WA0145101545
B1340263659556N00508720WA0144801542
B1340273659555N00508713WA0144501539
B1340283659553N00508705WA0144101535
B1340293659551N00508698WA0143901533
B1340303659548N00508691WA0143801531
B1340313659546N00508684WA0143601529
B1340323659544N00508677WA0143301526
B1340333659542N00508670WA0143001524
B1340343659539N00508662WA0142701520
B1340353659536N00508655WA0142301517
B1340363659533N00508647WA0142001514
B1340373659530N00508640WA0141801512
B1340383659527N00508632WA0141601509
B1340393659525N00508624WA0141501508
B1340403659523N00508617WA0141401506
B1340413659520N00508611WA0141101505
B1340423659516N00508605WA0140701503
B1340433659512N00508600WA0140501501
B1340443659509N00508593WA0140201498
B1340453659506N00508585WA0140001495
B1340463659503N00508578WA0139801493
B1340473659500N00508571WA0139501490
B1340483659496N00508564WA0139301488
B1340493659493N00508557WA0139301486
B1340503659490N00508550WA0139101484
B1340513659487N00508544WA0139001483
B1340523659485N00508537WA0138701481
B1340533659482N00508531WA0138301478
B1340543659478N00508523WA0138001474
B1340553659475N00508516WA0137701471
B1340563659472N00508508WA0137501469
B1340573659469N00508501WA0137201466
B1340583659467N00508494WA0136901463
B1340593659464N00508487WA0136501460
B1341003659461N00508480WA0136201457
B1341013659458N00508473WA0135901454
B1341023659454N00508467WA0135601451
B1341033659449N00508461WA0135501448
B1341043659444N00508456WA0135201445
B1341053659440N00508451WA0135201444
B1341063659436N00508445WA0135001443
B1341073659432N00508440WA0134801441
B1341083659428N00508434WA0134401438
B1341093659423N00508427WA0134101434
B1341103659418N00508420WA0133801431
B1341113659414N00508413WA0133701430
B1341123659411N00508406WA0133701430
B1341133659408N00508399WA0133501430
B1341143659406N00508391WA0133301428
B1341153659403N00508384WA0133101425
B1341163659399N00508376WA0132701423
B1341173659396N00508367WA0132501421
B1341183659394N00508360WA0132401419
B1341193659392N00508352WA0132401419
B1341203659390N00508345WA0132301417
B1341213659387N00508337WA0132101415
B1341223659385N00508329WA0132001413
B1341233659382N00508321WA0131801411
B1341243659379N00508313WA0131701410
B1341253659376N00508305WA0131601408
B1341263659374N00508298WA0131601408
B1341273659372N00508291WA0131601407
B1341283659370N00508284WA0131601407
B1341293659368N00508276WA0131601406
B1341303659367N00508267WA0131601406
B1341313659366N00508259WA0131701407
B1341323659366N00508251WA0132001409
B1341333659364N00508244WA0132101410
B1341343659363N00508239WA0132201412
B1341353659360N00508234WA0132201412
B1341363659358N00508228WA0132301413
B1341373659356N00508220WA0132301413
B1341383659354N00508212WA0132201412
B1341393659353N00508203WA0132301413
B1341403659350N00508196WA0132401414
B1341413659347N00508189WA0132501414
B1341423659344N00508182WA0132601415
B1341433659342N00508175WA0132801416
B1341443659341N00508167WA0133101418
B1341453659341N00508158WA0133401420
B1341463659343N00508150WA0133701424
B1341473659344N00508143WA0134201428
B1341483659345N00508136WA0134601432
B1341493659347N00508129WA0134801436
B1341503659351N00508121WA0135101439
B1341513659356N00508115WA0135301441
B1341523659364N00508113WA0135501442
B1341533659372N00508114WA0135601443
B1341543659378N00508117WA0135601445
B1341553659382N00508122WA0135801446
B1341563659383N00508128WA0136001448
B1341573659382N00508132WA0136201450
B1341583659379N00508135WA0136401452
B1341593659374N00508134WA0136601453
B1342003659370N00508130WA0136801455
B1342013659368N00508121WA0137001457
B1342023659368N00508111WA0137501458
B1342033659371N00508103WA0138001464
B1342043659374N00508098WA0138501471
B1342053659376N00508092WA0138801476
B1342063659378N00508087WA0139001479
B1342073659381N00508081WA0139101479
B1342083659386N00508073WA0139401480
B1342093659392N00508068WA0139501482
B1342103659398N00508065WA0139601484
B1342113659404N00508064WA0139801485
B1342123659409N00508066WA0140001487
B1342133659413N00508068WA0140101488
B1342143659415N00508072WA0140101489
B1342153659417N00508077WA0140101489
B1342163659417N00508082WA0140101489
B1342173659415N00508087WA0140101490
B1342183659412N00508090WA0140001490
B1342193659407N00508090WA0140201491
B1342203659402N00508087WA0140601491
B1342213659399N00508084WA0140901493
B1342223659396N00508081WA0141201496
B1342233659394N00508077WA0141401499
B1342243659391N00508074WA0141601501
B1342253659387N00508072WA0141601503
B1342263659383N00508072WA0141801505
B1342273659378N00508072WA0142101507
B1342283659374N00508073WA0142401511
B1342293659373N00508078WA0142601514
B1342303659373N00508083WA0142901516
B1342313659375N00508088WA0143201520
B1342323659378N00508093WA0143501522
B1342333659382N00508095WA0143801526
B1342343659387N00508097WA0144001528
B1342353659394N00508097WA0144201529
B1342363659401N00508097WA0144401531
B1342373659407N00508095WA0144401531
B1342383659413N00508089WA0144701534
B1342393659416N00508083WA0144901536
B1342403659417N00508074WA0145101537
B1342413659417N00508066WA0145301539
B1342423659414N00508059WA0145601543
B1342433659410N00508055WA0145801545
B1342443659405N00508053WA0146101548
B1342453659401N00508053WA0146401551
B1342463659398N00508054WA0146701555
B1342473659395N00508057WA0147001557
B1342483659393N00508061WA0147201560
B1342493659391N00508065WA0147501562
B1342503659391N00508070WA0147701565
B1342513659392N00508074WA0147901568
B1342523659395N00508078WA0148001570
B1342533659399N00508082WA0148201572
B1342543659403N00508085WA0148401574
B1342553659408N00508087WA0148601576
B1342563659413N00508088WA0148701578
B1342573659418N00508087WA0148801579
B1342583659424N00508085WA0148801580
B1342593659430N00508081WA0148901580
B1343003659435N00508076WA0149001581
B1343013659440N00508070WA0149001582
B1343023659443N00508063WA0149101583
B1343033659445N00508055WA0149201584
B1343043659446N00508046WA0149101584
B1343053659445N00508037WA0149101585
B1343063659444N00508028WA0149401586
B1343073659441N00508021WA0149601588
B1343083659437N00508016WA0149801590
B1343093659434N00508012WA0150101593
B1343103659430N00508009WA0150401595
B1343113659426N00508006WA0150601598
B1343123659422N00508004WA0150901600
B1343133659418N00508003WA0151101602
B1343143659414N00508003WA0151201604
B1343153659411N00508005WA0151401605
B1343163659409N00508009WA0151501606
B1343173659409N00508013WA0151601608
B1343183659411N00508018WA0151701609
B1343193659414N00508022WA0151701610
B1343203659417N00508026WA0151901611
B1343213659421N00508029WA0152001613
B1343223659426N00508031WA0152201615
B1343233659430N00508032WA0152401616
B1343243659435N00508032WA0152401618
B1343253659441N00508032WA0152501618
B1343263659448N00508030WA0152501619
B1343273659454N00508028WA0152501620
B1343283659459N00508024WA0152601620
B1343293659464N00508019WA0152801621
B1343303659469N00508014WA0152901622
B1343313659473N00508009WA0153001623
B1343323659477N00508004WA0153001623
B1343333659482N00507997WA0153101624
B1343343659485N00507991WA0153101624
B1343353659487N00507984WA0153301625
B1343363659489N00507976WA0153301626
B1343373659489N00507968WA0153301626
B1343383659489N00507960WA0153401626
B1343393659488N00507952WA0153501627
B1343403659487N00507944WA0153601628
B1343413659486N00507937WA0153701630
B1343423659484N00507931WA0153801631
B1343433659482N00507924WA0153901632
B1343443659479N00507917WA0154001632
B1343453659476N00507910WA0154101633
B1343463659472N00507906WA0154101635
B1343473659467N00507903WA0154401636
B1343483659462N00507901WA0154701638
B1343493659458N00507900WA0155001640
B1343503659454N00507898WA0155201643
B1343513659450N00507896WA0155401645
B1343523659446N00507895WA0155701648
B1343533659442N00507894WA0156001651
B1343543659439N00507895WA0156101653
B1343553659436N00507897WA0156401656
B1343563659435N00507902WA0156501657
B1343573659436N00507907WA0156601659
B1343583659440N00507909WA0156701661
B1343593659446N00507910WA0156801661
B1344003659453N00507907WA0156901661
B1344013659459N00507901WA0157001662
B1344023659463N00507894WA0157101664
B1344033659464N00507885WA0157301665
B1344043659464N00507877WA0157501666
B1344053659462N00507869WA0157801668
B1344063659458N00507863WA0157901669
B1344073659454N00507859WA0158201671
B1344083659449N00507858WA0158401674
B1344093659446N00507860WA0158601676
B1344103659443N00507862WA0158901678
B1344113659443N00507868WA0159101672
B1344123659445N00507872WA0159201674
B1344133659450N00507875WA0159301675
B1344143659456N00507875WA0159501676
B1344153659462N00507873WA0159701678
B1344163659468N00507870WA0159901681
B1344173659474N00507867WA0160201684
B1344183659479N00507862WA0160501686
B1344193659484N00507856WA0160601688
B1344203659486N00507849WA0160701691
B1344213659487N00507841WA0160901692
B1344223659484N00507832WA0161001693
B1344233659481N00507826WA0161201696
B1344243659477N00507821WA0161401698
B1344253659472N00507820WA0161701701
B1344263659469N00507822WA0161901704
B1344273659466N00507825WA0162101707
B1344283659466N00507830WA0162301709
B1344293659467N00507835WA0162601711
B1344303659470N00507840WA0162801714
B1344313659475N00507843WA0163101718
B1344323659479N00507845WA0163301722
B1344333659484N00507846WA0163501725
B1344343659489N00507847WA0163701727
B1344353659494N00507847WA0163901730
B1344363659500N00507846WA0164001732
B1344373659505N00507842WA0164101734
B1344383659509N00507834WA0164101736
B1344393659510N00507824WA0164201737
B1344403659509N00507815WA0164501739
B1344413659506N00507809WA0164701742
B1344423659502N00507805WA0165001745
B1344433659498N00507804WA0165101748
B1344443659494N00507805WA0165301749
B1344453659490N00507806WA0165501751
B1344463659487N00507809WA0165701753
B1344473659487N00507813WA0165801755
B1344483659488N00507817WA0166001757
B1344493659489N00507821WA0166201758
B1344503659492N00507823WA0166401756
B1344513659496N00507825WA0166501757
B1344523659501N00507825WA0166601758
B1344533659507N00507823WA0166601759
B1344543659513N00507819WA0166701759
B1344553659518N00507814WA0166701760
B1344563659521N00507807WA0166801761
B1344573659523N00507798WA0166901762
B1344583659523N00507790WA0167001763
B1344593659522N00507782WA0167201765
B1345003659518N00507776WA0167501768
B1345013659515N00507771WA0167701771
B1345023659510N00507767WA0167801773
B1345033659506N00507765WA0168101775
B1345043659502N00507764WA0168301777
B1345053659498N00507764WA0168501779
B1345063659494N00507766WA0168701781
B1345073659491N00507767WA0168901783
B1345083659488N00507769WA0169001785
B1345093659487N00507772WA0169201787
B1345103659486N00507775WA0169401789
B1345113659487N00507779WA0169501789
B1345123659489N00507783WA0169501790
B1345133659492N00507786WA0169501790
B1345143659496N00507789WA0169601790
B1345153659502N00507789WA0169901792
B1345163659507N00507789WA0170101794
B1345173659511N00507788WA0170301797
B1345183659516N00507788WA0170401799
B1345193659520N00507787WA0170401800
B1345203659526N00507785WA0170401800
B1345213659531N00507782WA0170301800
B1345223659537N00507778WA0170501799
B1345233659542N00507770WA0170401799
B1345243659544N00507762WA0170401799
B1345253659545N00507753WA0170601800
B1345263659546N00507745WA0170901802
B1345273659547N00507738WA0171101804
B1345283659546N00507731WA0171201806
B1345293659545N00507724WA0171201807
B1345303659542N00507717WA0171201808
B1345313659538N00507711WA0171301809
B1345323659533N00507708WA0171401810
B1345333659528N00507707WA0171401811
B1345343659524N00507707WA0171501812
B1345353659520N00507708WA0171801814
B1345363659518N00507710WA0172101816
B1345373659515N00507711WA0172301819
B1345383659514N00507714WA0172401820
B1345393659512N00507717WA0172401821
B1345403659511N00507721WA0172501822
B1345413659511N00507725WA0172601822
B1345423659512N00507729WA0172701824
B1345433659515N00507732WA0172801824
B1345443659519N00507736WA0172901824
B1345453659523N00507739WA0173001825
B1345463659528N00507741WA0173201827
B1345473659533N00507742WA0173301829
B1345483659538N00507742WA0173501831
B1345493659544N00507741WA0173601832
B1345503659549N00507737WA0173701833
B1345513659554N00507732WA0173701835
B1345523659557N00507723WA0173601835
B1345533659558N00507714WA0173501833
B1345543659557N00507704WA0173501832
B1345553659553N00507696WA0173601834
B1345563659549N00507691WA0173701835
B1345573659544N00507689WA0173901836
B1345583659539N00507687WA0174001837
B1345593659535N00507687WA0174301838
B1346003659531N00507688WA0174501840
B1346013659528N00507691WA0174701842
B1346023659525N00507694WA0174901843
B1346033659524N00507698WA0175001845
B1346043659525N00507702WA0175101846
B1346053659527N00507706WA0175201846
B1346063659530N00507709WA0175201846
B1346073659535N00507712WA0175201846
B1346083659540N00507713WA0175301848
B1346093659546N00507713WA0175401849
B1346103659551N00507713WA0175501851
B1346113659556N00507711WA0175601853
B1346123659562N00507709WA0175701854
B1346133659567N00507705WA0175801855
B1346143659573N00507700WA0175901856
B1346153659578N00507693WA0176001857
B1346163659581N00507686WA0176001857
B1346173659583N00507677WA0176001857
B1346183659584N00507668WA0176101857
B1346193659582N00507660WA0176101857
B1346203659580N00507652WA0176201858
B1346213659576N00507646WA0176201858
B1346223659572N00507642WA0176301858
B1346233659567N00507638WA0176401859
B1346243659562N00507635WA0176501861
B1346253659558N00507632WA0176801864
B1346263659554N00507629WA0177001866
B1346273659550N00507627WA0177001868
B1346283659546N00507625WA0177101869
B1346293659541N00507624WA0177101870
B1346303659537N00507624WA0177201870
B1346313659534N00507626WA0177301872
B1346323659532N00507628WA0177301873
B1346333659532N00507632WA0177301873
B1346343659534N00507635WA0177201872
B1346353659537N00507640WA0177101870
B1346363659539N00507644WA0177201870
B1346373659541N00507648WA0177401872
B1346383659543N00507651WA0177501873
B1346393659544N00507654WA0177601874
B1346403659545N00507658WA0177601874
B1346413659545N00507662WA0177501874
B1346423659545N00507666WA0177401873
B1346433659544N00507671WA0177401872
B1346443659543N00507676WA0177501872
B1346453659543N00507680WA0177601873
B1346463659544N00507684WA0177701874
B1346473659545N00507687WA0177701875
B1346483659546N00507691WA0177701876
B1346493659547N00507695WA0177701876
B1346503659548N00507699WA0177601875
B1346513659548N00507703WA0177501874
B1346523659549N00507707WA0177401873
B1346533659551N00507711WA0177301872
B1346543659553N00507715WA0177101870
B1346553659556N00507719WA0176901869
B1346563659560N00507723WA0176801867
B1346573659564N00507727WA0176701867
B1346583659568N00507729WA0176801866
B1346593659573N00507731WA0176801866
B1347003659579N00507731WA0176701865
B1347013659585N00507730WA0176601865
B1347023659591N00507727WA0176501864
B1347033659597N00507723WA0176401863
B1347043659602N00507719WA0176401862
B1347053659607N00507713WA0176401862
B1347063659611N00507708WA0176401862
B1347073659615N00507702WA0176401861
B1347083659619N00507695WA0176501861
B1347093659624N00507688WA0176501861
B1347103659629N00507682WA0176701862
B1347113659634N00507676WA0176801863
B1347123659639N00507670WA0176901865
B1347133659643N00507664WA0177001867
B1347143659647N00507658WA0177101868
B1347153659652N00507652WA0177201868
B1347163659656N00507645WA0177201869
B1347173659660N00507638WA0177201869
B1347183659663N00507631WA0177301870
B1347193659664N00507624WA0177301871
B1347203659663N00507616WA0177101870
B1347213659661N00507609WA0176901869
B1347223659656N00507602WA0176701868
B1347233659652N00507596WA0176601868
B1347243659648N00507591WA0176801868
B1347253659644N00507585WA0176901868
B1347263659640N00507580WA0176901867
B1347273659637N00507574WA0176801867
B1347283659633N00507567WA0176801866
B1347293659629N00507561WA0176901866
B1347303659625N00507555WA0177101867
B1347313659621N00507551WA0177201869
B1347323659617N00507546WA0177301870
B1347333659613N00507542WA0177401872
B1347343659609N00507538WA0177501873
B1347353659605N00507534WA0177701874
B1347363659600N00507530WA0177801875
B1347373659596N00507527WA0177801876
B1347383659591N00507524WA0178001877
B1347393659587N00507522WA0178001879
B1347403659582N00507521WA0178101879
B1347413659578N00507520WA0178101879
B1347423659573N00507520WA0178101879
B1347433659569N00507519WA0178201880
B1347443659564N00507519WA0178201880
B1347453659559N00507518WA0178201880
B1347463659555N00507517WA0178201881
B1347473659551N00507515WA0178101881
B1347483659547N00507515WA0178001881
B1347493659545N00507516WA0177801879
B1347503659542N00507519WA0177401877
B1347513659541N00507523WA0177101874
B1347523659539N00507527WA0177001873
B1347533659537N00507530WA0177001872
B1347543659535N00507533WA0177101872
B1347553659532N00507534WA0177001870
B1347563659528N00507535WA0176801869
B1347573659524N00507535WA0176701868
B1347583659519N00507535WA0176401866
B1347593659514N00507533WA0176401865
B1348003659509N00507530WA0176501866
B1348013659504N00507528WA0176501866
B1348023659500N00507525WA0176601865
B1348033659494N00507522WA0176601865
B1348043659489N00507518WA0176601864
B1348053659484N00507514WA0176601864
B1348063659479N00507510WA0176701865
B1348073659475N00507506WA0176801865
B1348083659470N00507503WA0176901866
B1348093659466N00507500WA0176801867
B1348103659462N00507497WA0176801866
B1348113659457N00507494WA0176601864
B1348123659452N00507491WA0176501863
B1348133659447N00507488WA0176501863
B1348143659442N00507485WA0176601863
B1348153659437N00507481WA0176501863
B1348163659433N00507476WA0176401862
B1348173659428N00507471WA0176401861
B1348183659424N00507466WA0176501861
B1348193659419N00507462WA0176501861
B1348203659414N00507458WA0176601862
B1348213659409N00507456WA0176601862
B1348223659404N00507455WA0176501862
B1348233659399N00507455WA0176501863
B1348243659394N00507454WA0176601863
B1348253659389N00507453WA0176701864
B1348263659384N00507452WA0176901865
B1348273659380N00507451WA0177201867
B1348283659377N00507451WA0177401869
B1348293659373N00507451WA0177501871
B1348303659369N00507451WA0177501872
B1348313659364N00507452WA0177701872
B1348323659359N00507451WA0177801874
B1348333659355N00507451WA0178001876
B1348343659352N00507451WA0178201879
B1348353659348N00507450WA0178401880
B1348363659344N00507449WA0178501881
B1348373659340N00507449WA0178501882
B1348383659336N00507449WA0178501882
B1348393659333N00507449WA0178701883
B1348403659330N00507451WA0178801885
B1348413659327N00507453WA0178901886
B1348423659326N00507456WA0179101887
B1348433659326N00507459WA0179201889
B1348443659325N00507463WA0179401890
B1348453659324N00507466WA0179501892
B1348463659323N00507469WA0179701893
B1348473659322N00507473WA0179901895
B1348483659322N00507477WA0180101897
B1348493659322N00507481WA0180301899
B1348503659322N00507484WA0180601901
B1348513659323N00507488WA0180901904
B1348523659323N00507492WA0181201907
B1348533659324N00507496WA0181301910
B1348543659327N00507500WA0181601912
B1348553659330N00507502WA0181601913
B1348563659337N00507502WA0181701915
B1348573659345N00507498WA0181801914
B1348583659351N00507492WA0182001916
B1348593659355N00507484WA0182101917
B1349003659356N00507475WA0182301919
B1349013659355N00507467WA0182601921
B1349023659353N00507461WA0182701922
B1349033659349N00507457WA0182801924
B1349043659345N00507454WA0182901926
B1349053659340N00507454WA0183201927
B1349063659338N00507455WA0183501931
B1349073659337N00507458WA0183801934
B1349083659338N00507462WA0183901937
B1349093659341N00507466WA0184101938
B1349103659346N00507468WA0184201940
B1349113659353N00507468WA0184401941
B1349123659359N00507464WA0184401942
B1349133659365N00507456WA0184601944
B1349143659368N00507448WA0184801946
B1349153659370N00507439WA0185001948
B1349163659370N00507430WA0185001950
B1349173659368N00507422WA0185101951
B1349183659364N00507415WA0185301952
B1349193659360N00507410WA0185501954
B1349203659356N00507407WA0185701957
B1349213659352N00507406WA0185801958
B1349223659349N00507406WA0186101960
B1349233659347N00507408WA0186301963
B1349243659346N00507412WA0186401964
B1349253659347N00507417WA0186401965
B1349263659350N00507422WA0186401966
B1349273659356N00507426WA0186301967
B1349283659363N00507428WA0186401966
B1349293659369N00507429WA0186701969
B1349303659374N00507431WA0187001973
B1349313659378N00507432WA0187201975
B1349323659382N00507433WA0187301976
B1349333659387N00507434WA0187301977
B1349343659392N00507435WA0187301978
B1349353659398N00507437WA0187301979
B1349363659405N00507438WA0187401979
B1349373659412N00507436WA0187601979
B1349383659418N00507431WA0187701981
B1349393659423N00507423WA0187601981
B1349403659425N00507414WA0187701980
B1349413659426N00507405WA0187801980
B1349423659425N00507396WA0188001981
B1349433659423N00507388WA0188201982
B1349443659420N00507382WA0188301984
B1349453659416N00507376WA0188501985
B1349463659412N00507372WA0188701987
B1349473659408N00507369WA0189101990
B1349483659405N00507368WA0189201992
B1349493659402N00507371WA0189201993
B1349503659402N00507375WA0189301994
B1349513659403N00507381WA0189301995
B1349523659406N00507385WA0189501996
B1349533659410N00507388WA0189701998
B1349543659414N00507390WA0189902001
B1349553659418N00507391WA0190002002
B1349563659424N00507392WA0190002002
B1349573659431N00507393WA0190102002
B1349583659438N00507395WA0190102001
B1349593659445N00507395WA0190102002
B1350003659452N00507395WA0190302003
B1350013659458N00507393WA0190502004
B1350023659464N00507388WA0190602006
B1350033659469N00507382WA0190602006
B1350043659473N00507373WA0190502006
B1350053659475N00507363WA0190502005
B1350063659475N00507354WA0190602005
B1350073659473N00507345WA0190602005
B1350083659470N00507339WA0190802006
B1350093659467N00507333WA0190902008
B1350103659463N00507329WA0191002009
B1350113659459N00507324WA0191102010
B1350123659455N00507320WA0191202011
B1350133659450N00507318WA0191202012
B1350143659445N00507316WA0191302012
B1350153659440N00507314WA0191402013
B1350163659435N00507313WA0191602014
B1350173659431N00507311WA0191602016
B1350183659427N00507309WA0191902018
B1350193659423N00507308WA0192102019
B1350203659420N00507308WA0192302021
B1350213659416N00507307WA0192302022
B1350223659413N00507307WA0192402022
B1350233659410N00507307WA0192402023
B1350243659407N00507308WA0192302024
B1350253659404N00507309WA0192202023
B1350263659401N00507309WA0192102022
B1350273659398N00507308WA0192002021
B1350283659395N00507305WA0191902020
B1350293659392N00507302WA0191702019
B1350303659389N00507301WA0191802019
B1350313659386N00507300WA0191802019
B1350323659384N00507299WA0191502017
B1350333659380N00507297WA0191202015
B1350343659376N00507294WA0190902013
B1350353659372N00507289WA0190602009
B1350363659368N00507285WA0190302007
B1350373659364N00507281WA0190302006
B1350383659360N00507278WA0190202004
B1350393659356N00507276WA0190102003
B1350403659353N00507274WA0190102001
B1350413659348N00507272WA0190002000
B1350423659343N00507269WA0189901998
B1350433659337N00507266WA0190001999
B1350443659333N00507263WA0190202002
B1350453659329N00507260WA0190402004
B1350463659325N00507258WA0190502006
B1350473659320N00507256WA0190502006
B1350483659316N00507254WA0190402006
B1350493659311N00507250WA0190302006
B1350503659306N00507245WA0190302005
B1350513659302N00507239WA0190302006
B1350523659299N00507232WA0190502006
B1350533659296N00507226WA0190402006
B1350543659292N00507220WA0190302005
B1350553659288N00507215WA0190102004
B1350563659283N00507211WA0189902002
B1350573659279N00507206WA0189702000
B1350583659275N00507200WA0189701999
B1350593659272N00507195WA0189501997
B1351003659268N00507190WA0189301996
B1351013659264N00507185WA0189101994
B1351023659260N00507181WA0188801992
B1351033659256N00507176WA0188701991
B1351043659253N00507173WA0188601990
B1351053659250N00507170WA0188401988
B1351063659247N00507166WA0188001985
B1351073659243N00507163WA0187501982
B1351083659238N00507158WA0187101977
B1351093659233N00507154WA0186601973
B1351103659228N00507150WA0186301969
B1351113659223N00507147WA0186101966
B1351123659218N00507142WA0185901964
B1351133659213N00507138WA0185701962
B1351143659209N00507135WA0185501959
B1351153659204N00507132WA0185301957
B1351163659199N00507128WA0185001954
B1351173659194N00507125WA0184601951
B1351183659189N00507121WA0184301947
B1351193659184N00507116WA0184001944
B1351203659179N00507113WA0183801942
B1351213659175N00507109WA0183701939
B1351223659171N00507107WA0183401937
B1351233659167N00507104WA0183201934
B1351243659163N00507101WA0183001931
B1351253659159N00507097WA0182701929
B1351263659155N00507094WA0182401926
B1351273659152N00507091WA0182101923
B1351283659148N00507087WA0181701919
B1351293659144N00507084WA0181301915
B1351303659140N00507081WA0180901911
B1351313659136N00507078WA0180401908
B1351323659132N00507075WA0180101904
B1351333659128N00507072WA0179801900
B1351343659122N00507069WA0179501896
B1351353659117N00507066WA0179101892
B1351363659113N00507062WA0178901889
B1351373659110N00507058WA0178901887
B1351383659106N00507055WA0178701885
B1351393659102N00507052WA0178301883
B1351403659098N00507049WA0178101880
B1351413659094N00507046WA0177901877
B1351423659091N00507043WA0177601875
B1351433659087N00507039WA0177401873
B1351443659084N00507036WA0177201871
B1351453659079N00507033WA0176901868
B1351463659075N00507030WA0176601866
B1351473659071N00507027WA0176401863
B1351483659067N00507024WA0176201861
B1351493659063N00507022WA0175901858
B1351503659058N00507019WA0175701855
B1351513659053N00507015WA0175301853
B1351523659048N00507011WA0175001850
B1351533659043N00507007WA0174801848
B1351543659039N00507003WA0174701846
B1351553659034N00506999WA0174501844
B1351563659031N00506994WA0174401843
B1351573659027N00506988WA0174101840
B1351583659022N00506982WA0173801838
B1351593659017N00506976WA0173501835
B1352003659012N00506969WA0173401833
B1352013659008N00506962WA0173401831
B1352023659003N00506955WA0173501831
B1352033658999N00506950WA0173601832
B1352043658994N00506945WA0173901835
B1352053658991N00506942WA0174301837
B1352063658988N00506938WA0174401839
B1352073658985N00506934WA0174301841
B1352083658980N00506930WA0174201841
B1352093658975N00506925WA0174101840
B1352103658970N00506921WA0174201841
B1352113658966N00506917WA0174401842
B1352123658963N00506914WA0174701844
B1352133658960N00506911WA0174701845
B1352143658956N00506908WA0174701844
B1352153658951N00506904WA0174601843
B1352163658947N00506900WA0174501843
B1352173658943N00506895WA0174501843
B1352183658939N00506891WA0174801844
B1352193658936N00506888WA0174901844
B1352203658933N00506884WA0174901845
B1352213658930N00506880WA0175001845
B1352223658926N00506875WA0175101846
B1352233658923N00506870WA0175101847
B1352243658920N00506866WA0175301848
B1352253658918N00506862WA0175401849
B1352263658915N00506858WA0175401850
B1352273658912N00506854WA0175401850
B1352283658909N00506849WA0175301850
B1352293658906N00506843WA0175401850
B1352303658904N00506837WA0175401850
B1352313658902N00506830WA0175501851
B1352323658900N00506824WA0175601853
B1352333658898N00506818WA0175801854
B1352343658896N00506813WA0175801855
B1352353658893N00506810WA0175901855
B1352363658890N00506806WA0175801856
B1352373658888N00506803WA0175801856
B1352383658885N00506800WA0175801856
B1352393658883N00506798WA0175701856
B1352403658880N00506795WA0175701855
B1352413658877N00506791WA0175401855
B1352423658875N00506787WA0175201854
B1352433658873N00506782WA0175201853
B1352443658870N00506776WA0175201852
B1352453658868N00506770WA0175301852
B1352463658867N00506765WA0175501853
B1352473658866N00506760WA0175501853
B1352483658864N00506754WA0175501853
B1352493658862N00506749WA0175401852
B1352503658860N00506743WA0175301851
B1352513658858N00506737WA0175201851
B1352523658856N00506730WA0175201850
B1352533658854N00506724WA0175301850
B1352543658852N00506718WA0175301851
B1352553658850N00506712WA0175301851
B1352563658848N00506707WA0175401851
B1352573658846N00506702WA0175401852
B1352583658843N00506697WA0175401852
B1352593658840N00506694WA0175301851
B1353003658837N00506690WA0175201851
B1353013658834N00506686WA0175101850
B1353023658831N00506680WA0175001849
B1353033658829N00506675WA0175001848
B1353043658826N00506670WA0175001848
B1353053658824N00506665WA0175001848
B1353063658820N00506660WA0174901847
B1353073658817N00506655WA0175001847
B1353083658813N00506650WA0175001847
B1353093658809N00506645WA0175001847
B1353103658806N00506640WA0175101849
B1353113658803N00506635WA0175201850
B1353123658799N00506630WA0175301851
B1353133658796N00506626WA0175401851
B1353143658792N00506620WA0175401852
B1353153658788N00506615WA0175601853
B1353163658785N00506611WA0175801855
B1353173658782N00506606WA0175901857
B1353183658780N00506600WA0175901858
B1353193658778N00506594WA0175901858
B1353203658775N00506587WA0175801858
B1353213658772N00506580WA0175801858
B1353223658769N00506574WA0175901858
B1353233658766N00506569WA0176001859
B1353243658763N00506563WA0176001859
B1353253658759N00506557WA0175901859
B1353263658756N00506551WA0175901859
B1353273658753N00506545WA0176001859
B1353283658749N00506539WA0176101860
B1353293658746N00506534WA0176201860
B1353303658742N00506529WA0176301861
B1353313658738N00506523WA0176401862
B1353323658735N00506518WA0176501863
B1353333658731N00506513WA0176701865
B1353343658728N00506508WA0176901867
B1353353658724N00506503WA0177001868
B1353363658721N00506497WA0177101870
B1353373658717N00506492WA0177301872
B1353383658713N00506488WA0177301873
B1353393658709N00506485WA0177501874
B1353403658705N00506484WA0177601875
B1353413658702N00506484WA0177601875
B1353423658700N00506487WA0177701876
B1353433658700N00506491WA0177801876
B1353443658701N00506496WA0177901876
B1353453658704N00506499WA0178001877
B1353463658708N00506502WA0178101879
B1353473658712N00506504WA0178201880
B1353483658717N00506505WA0178401882
B1353493658724N00506505WA0178501883
B1353503658730N00506504WA0178601883
B1353513658736N00506501WA0178701884
B1353523658743N00506496WA0178701885
B1353533658748N00506489WA0178701886
B1353543658752N00506479WA0178701886
B1353553658754N00506469WA0178901886
B1353563658755N00506458WA0178901889
B1353573658756N00506449WA0179301892
B1353583658757N00506441WA0179601894
B1353593658758N00506432WA0179701896
B1354003658758N00506422WA0179801897
B1354013658759N00506413WA0179901898
B1354023658758N00506404WA0180101900
B1354033658758N00506395WA0180301901
B1354043658757N00506387WA0180401903
B1354053658755N00506380WA0180501904
B1354063658754N00506373WA0180601906
B1354073658751N00506368WA0180601906
B1354083658747N00506366WA0180701907
B1354093658744N00506367WA0180701908
B1354103658742N00506370WA0180901909
B1354113658743N00506373WA0181101911
B1354123658746N00506376WA0181201912
B1354133658750N00506378WA0181201912
B1354143658757N00506379WA0181201911
B1354153658764N00506378WA0181401912
B1354163658771N00506374WA0181501913
B1354173658777N00506367WA0181601914
B1354183658781N00506357WA0181601914
B1354193658784N00506347WA0181801916
B1354203658786N00506337WA0182001917
B1354213658788N00506327WA0182101918
B1354223658788N00506319WA0182301920
B1354233658788N00506310WA0182401921
B1354243658788N00506301WA0182401921
B1354253658786N00506292WA0182501922
B1354263658785N00506284WA0182701923
B1354273658784N00506275WA0182901925
B1354283658782N00506267WA0183101928
B1354293658779N00506260WA0183101929
B1354303658776N00506254WA0183201930
B1354313658772N00506249WA0183301931
B1354323658768N00506248WA0183301931
B1354333658765N00506249WA0183201932
B1354343658763N00506253WA0183201933
B1354353658763N00506256WA0183301934
B1354363658765N00506259WA0183501935
B1354373658767N00506261WA0183501936
B1354383658769N00506264WA0183501936
B1354393658773N00506267WA0183601934
B1354403658777N00506270WA0183701935
B1354413658781N00506272WA0183801936
B1354423658785N00506275WA0183801937
B1354433658791N00506276WA0183801937
B1354443658797N00506276WA0183801937
B1354453658804N00506273WA0183901938
B1354463658810N00506266WA0183901938
B1354473658815N00506256WA0183701936
B1354483658816N00506246WA0183701935
B1354493658815N00506236WA0183701935
B1354503658812N00506228WA0183801937
B1354513658809N00506221WA0184001938
B1354523658805N00506214WA0184201939
B1354533658801N00506208WA0184301940
B1354543658798N00506202WA0184601941
B1354553658794N00506196WA0184701943
B1354563658791N00506190WA0184701944
B1354573658788N00506184WA0184701944
B1354583658784N00506178WA0184601945
B1354593658781N00506172WA0184601945
B1355003658777N00506166WA0184701945
B1355013658775N00506160WA0184701946
B1355023658772N00506154WA0184601946
B1355033658770N00506147WA0184601945
B1355043658767N00506141WA0184501945
B1355053658764N00506133WA0184401944
B1355063658760N00506125WA0184501944
B1355073658756N00506118WA0184501944
B1355083658752N00506112WA0184701945
B1355093658748N00506107WA0184701946
B1355103658743N00506102WA0184901946
B1355113658739N00506097WA0184801946
B1355123658734N00506091WA0184701946
B1355133658729N00506085WA0184601945
B1355143658723N00506079WA0184501944
B1355153658718N00506073WA0184601944
B1355163658713N00506067WA0184601945
B1355173658708N00506061WA0184701945
B1355183658704N00506056WA0184701945
B1355193658699N00506051WA0184601945
B1355203658694N00506046WA0184501944
B1355213658688N00506042WA0184301942
B1355223658683N00506038WA0184101941
B1355233658677N00506034WA0184001941
B1355243658672N00506031WA0184001941
B1355253658667N00506028WA0184101940
B1355263658661N00506026WA0184001939
B1355273658656N00506023WA0183901938
B1355283658650N00506020WA0183801938
B1355293658645N00506015WA0183701937
B1355303658639N00506011WA0183701936
B1355313658634N00506007WA0183801936
B1355323658629N00506004WA0183801937
B1355333658626N00506001WA0183801937
B1355343658623N00505998WA0183801937
B1355353658619N00505995WA0183401936
B1355363658615N00505993WA0183001933
B1355373658610N00505990WA0182501930
B1355383658604N00505988WA0182401927
B1355393658599N00505986WA0182501925
B1355403658594N00505984WA0182601924
B1355413658590N00505982WA0182601925
B1355423658586N00505981WA0182501924
B1355433658581N00505979WA0182301923
B1355443658575N00505977WA0182001920
B1355453658569N00505974WA0181901919
B1355463658563N00505971WA0182001918
B1355473658558N00505968WA0182201919
B1355483658555N00505967WA0182301920
B1355493658551N00505966WA0182201920
B1355503658546N00505966WA0182001919
B1355513658540N00505964WA0181801917
B1355523658534N00505962WA0181801916
B1355533658529N00505959WA0181901917
B1355543658524N00505957WA0182001918
B1355553658520N00505955WA0181901918
B1355563658516N00505954WA0181701917
B1355573658510N00505952WA0181501916
B1355583658504N00505950WA0181301914
B1355593658497N00505947WA0181101912
B1356003658489N00505945WA0181001911
B1356013658482N00505944WA0180901910
B1356023658476N00505944WA0180901909
B1356033658471N00505944WA0181101910
B1356043658466N00505943WA0181201910
B1356053658463N00505943WA0181201911
B1356063658459N00505942WA0181001910
B1356073658454N00505942WA0180701906
B1356083658448N00505942WA0180401902
B1356093658443N00505943WA0180101900
B1356103658438N00505943WA0180101899
B1356113658434N00505943WA0180201900
B1356123658430N00505942WA0180201900
B1356133658427N00505941WA0180101900
B1356143658422N00505939WA0179601898
B1356153658416N00505937WA0179201896
B1356163658410N00505935WA0179101894
B1356173658404N00505932WA0179201893
B1356183658399N00505929WA0179401893
B1356193658395N00505925WA0179401893
B1356203658390N00505921WA0179301892
B1356213658384N00505918WA0179001890
B1356223658378N00505914WA0178901888
B1356233658372N00505911WA0178701887
B1356243658366N00505908WA0178601886
B1356253658361N00505904WA0178601885
B1356263658355N00505899WA0178501884
B1356273658349N00505896WA0178301883
B1356283658342N00505894WA0178201882
B1356293658337N00505892WA0178101881
B1356303658331N00505891WA0178001880
B1356313658325N00505890WA0177801879
B1356323658319N00505891WA0177701877
B1356333658313N00505892WA0177601876
B1356343658308N00505894WA0177501874
B1356353658302N00505896WA0177401872
B1356363658297N00505897WA0177301871
B1356373658291N00505898WA0177201869
B1356383658285N00505897WA0176901867
B1356393658279N00505897WA0176801865
B1356403658272N00505896WA0176801863
B1356413658267N00505894WA0177001863
B1356423658263N00505891WA0177301865
B1356433658261N00505888WA0177401867
B1356443658258N00505885WA0177301867
B1356453658254N00505883WA0177101867
B1356463658250N00505880WA0176901865
B1356473658246N00505877WA0176701863
B1356483658242N00505874WA0176401862
B1356493658239N00505871WA0176201860
B1356503658235N00505867WA0175601857
B1356513658231N00505863WA0175001853
B1356523658226N00505859WA0174501849
B1356533658220N00505856WA0174201846
B1356543658216N00505854WA0174101843
B1356553658211N00505854WA0174001840
B1356563658207N00505854WA0173701837
B1356573658202N00505855WA0173401834
B1356583658197N00505856WA0173101830
B1356593658192N00505857WA0172901827
B1357003658188N00505857WA0172601825
B1357013658183N00505856WA0172401823
B1357023658179N00505856WA0172201820
B1357033658174N00505857WA0171801816
B1357043658169N00505857WA0171601813
B1357053658164N00505857WA0171401810
B1357063658159N00505856WA0171301809
B1357073658154N00505854WA0171201807
B1357083658150N00505853WA0170901805
B1357093658146N00505851WA0170601803
B1357103658141N00505849WA0170301800
B1357113658135N00505847WA0170001797
B1357123658130N00505844WA0169701795
B1357133658124N00505840WA0169601793
B1357143658119N00505837WA0169601792
B1357153658115N00505835WA0169601791
B1357163658110N00505832WA0169501790
B1357173658105N00505829WA0169201787
B1357183658099N00505826WA0168901785
B1357193658093N00505825WA0168801783
B1357203658087N00505824WA0168601781
B1357213658081N00505823WA0168501779
B1357223658075N00505822WA0168501778
B1357233658070N00505820WA0168401777
B1357243658065N00505818WA0168201776
B1357253658059N00505817WA0167901774
B1357263658053N00505816WA0167701771
B1357273658047N00505815WA0167401769
B1357283658041N00505814WA0167301767
B1357293658035N00505813WA0167201765
B1357303658029N00505812WA0167101764
B1357313658023N00505811WA0167001762
B1357323658018N00505810WA0166701761
B1357333658012N00505809WA0166601759
B1357343658006N00505808WA0166401757
B1357353658000N00505806WA0166201755
B1357363657993N00505803WA0166001753
B1357373657988N00505800WA0166001752
B1357383657982N00505798WA0166001752
B1357393657977N00505795WA0165801752
B1357403657972N00505793WA0165701751
B1357413657966N00505791WA0165501749
B1357423657960N00505790WA0165301747
B1357433657954N00505790WA0165101745
B1357443657948N00505790WA0164901743
B1357453657942N00505789WA0164801741
B1357463657936N00505789WA0164701740
B1357473657931N00505788WA0164601739
B1357483657925N00505787WA0164501737
B1357493657920N00505786WA0164301735
B1357503657914N00505785WA0164101733
B1357513657908N00505785WA0163801731
B1357523657902N00505786WA0163601729
B1357533657896N00505787WA0163501727
B1357543657890N00505788WA0163001725
B1357553657884N00505787WA0162801723
B1357563657877N00505784WA0162601721
B1357573657871N00505781WA0162601719
B1357583657864N00505778WA0162501718
B1357593657858N00505774WA0162401716
B1358003657852N00505771WA0162301715
B1358013657846N00505767WA0162101714
B1358023657839N00505765WA0162001712
B1358033657833N00505762WA0161901711
B1358043657826N00505759WA0161701710
B1358053657820N00505756WA0161401708
B1358063657814N00505753WA0161401708
B1358073657808N00505751WA0161401708
B1358083657802N00505750WA0161401707
B1358093657795N00505749WA0161201706
B1358103657789N00505746WA0161001704
B1358113657783N00505743WA0161001704
B1358123657778N00505740WA0160901703
B1358133657772N00505738WA0160701701
B1358143657766N00505736WA0160501699
B1358153657760N00505734WA0160401697
B1358163657754N00505731WA0160101695
B1358173657748N00505728WA0160001693
B1358183657743N00505725WA0160001693
B1358193657738N00505723WA0160101693
B1358203657733N00505721WA0160001693
B1358213657728N00505719WA0159701690
B1358223657722N00505717WA0159601688
B1358233657716N00505715WA0159201686
B1358243657710N00505714WA0159101684
B1358253657704N00505713WA0159001683
B1358263657698N00505712WA0158901682
B1358273657693N00505711WA0158801681
B1358283657688N00505710WA0158701680
B1358293657682N00505709WA0158601678
B1358303657677N00505707WA0158401677
B1358313657671N00505704WA0158101675
B1358323657666N00505699WA0157901674
B1358333657662N00505694WA0158001674
B1358343657657N00505690WA0158101675
B1358353657653N00505687WA0158201675
B1358363657649N00505685WA0158101675
B1358373657645N00505682WA0158101675
B1358383657640N00505680WA0158001674
B1358393657636N00505678WA0157901673
B1358403657632N00505678WA0157801672
B1358413657628N00505677WA0157701671
B1358423657624N00505675WA0157701671
B1358433657620N00505673WA0157601670
B1358443657616N00505671WA0157401669
B1358453657612N00505669WA0157301668
B1358463657607N00505667WA0157201667
B1358473657603N00505665WA0157201667
B1358483657598N00505662WA0157201666
B1358493657594N00505660WA0157101665
B1358503657590N00505658WA0157101664
B1358513657586N00505656WA0156901663
B1358523657581N00505654WA0156801662
B1358533657577N00505651WA0156601660
B1358543657572N00505649WA0156501658
B1358553657568N00505648WA0156401657
B1358563657563N00505647WA0156301656
B1358573657559N00505645WA0156101655
B1358583657554N00505643WA0155901653
B1358593657549N00505642WA0155601651
B1359003657544N00505641WA0155501649
B1359013657540N00505638WA0155401647
B1359023657536N00505634WA0155201646
B1359033657532N00505631WA0154901644
B1359043657528N00505628WA0154501640
B1359053657523N00505624WA0154101636
B1359063657518N00505621WA0153701633
B1359073657512N00505617WA0153501630
B1359083657508N00505613WA0153401627
B1359093657503N00505610WA0153201625
B1359103657498N00505606WA0152801622
B1359113657494N00505603WA0152401619
B1359123657488N00505599WA0152101615
B1359133657483N00505595WA0151801612
B1359143657478N00505591WA0151501609
B1359153657473N00505587WA0151201605
B1359163657468N00505583WA0150901602
B1359173657464N00505578WA0150601599
B1359183657459N00505573WA0150401596
B1359193657454N00505569WA0150101594
B1359203657450N00505566WA0150001591
B1359213657445N00505562WA0149801590
B1359223657441N00505557WA0149601588
B1359233657437N00505551WA0149301585
B1359243657432N00505546WA0149101583
B1359253657428N00505542WA0149001582
B1359263657424N00505538WA0148801581
B1359273657420N00505534WA0148801580
B1359283657417N00505530WA0148701580
B1359293657414N00505526WA0148601579
B1359303657410N00505523WA0148601578
B1359313657405N00505521WA0148401577
B1359323657401N00505518WA0148101576
B1359333657398N00505515WA0148101575
B1359343657395N00505512WA0148101574
B1359353657392N00505509WA0147901573
B1359363657388N00505505WA0147601570
B1359373657384N00505502WA0147201567
B1359383657380N00505498WA0146901564
B1359393657375N00505494WA0146701562
B1359403657372N00505491WA0146501561
B1359413657369N00505488WA0146301559
B1359423657366N00505485WA0146101557
B1359433657362N00505483WA0145801555
B1359443657357N00505482WA0145401552
B1359453657352N00505480WA0145201549
B1359463657348N00505478WA0145301548
B1359473657345N00505477WA0145301547
B1359483657342N00505475WA0145101545
B1359493657339N00505474WA0144901543
B1359503657336N00505471WA0144501541
B1359513657331N00505467WA0144101538
B1359523657327N00505464WA0143801535
B1359533657323N00505461WA0143701533
B1359543657319N00505459WA0143501531
B1359553657315N00505459WA0143201529
B1359563657310N00505459WA0142901526
B1359573657306N00505458WA0142701523
B1359583657301N00505459WA0142501521
B1359593657297N00505459WA0142401519
B1400003657292N00505457WA0142201518
B1400013657290N00505454WA0142501518
B1400023657288N00505451WA0142601518
B1400033657285N00505448WA0142501517
B1400043657282N00505445WA0142201515
B1400053657278N00505444WA0141901513
B1400063657273N00505442WA0141701510
B1400073657268N00505441WA0141601509
B1400083657264N00505440WA0141601509
B1400093657260N00505439WA0141601508
B1400103657257N00505438WA0141401506
B1400113657252N00505438WA0141101504
B1400123657248N00505437WA0140701500
B1400133657243N00505437WA0140401498
B1400143657239N00505437WA0140401496
B1400153657236N00505437WA0140601496
B1400163657233N00505436WA0140601495
B1400173657230N00505435WA0140401494
B1400183657227N00505434WA0140201493
B1400193657222N00505433WA0139801491
B1400203657217N00505433WA0139601488
B1400213657211N00505433WA0139201486
B1400223657206N00505434WA0139201485
B1400233657201N00505435WA0139501485
B1400243657197N00505436WA0139501485
B1400253657194N00505437WA0139501485
B1400263657191N00505438WA0139501484
B1400273657187N00505438WA0139301483
B1400283657184N00505437WA0139201483
B1400293657180N00505437WA0139101482
B1400303657176N00505438WA0138901481
B1400313657173N00505440WA0138701479
B1400323657169N00505443WA0138301476
B1400333657165N00505445WA0138101474
B1400343657161N00505445WA0138001472
B1400353657157N00505445WA0137901470
B1400363657153N00505446WA0138001469
B1400373657150N00505448WA0138101470
B1400383657148N00505448WA0138101470
B1400393657145N00505449WA0138001470
B1400403657142N00505450WA0137801469
B1400413657139N00505451WA0137601468
B1400423657135N00505453WA0137501467
B1400433657132N00505454WA0137501466
B1400443657129N00505456WA0137501465
B1400453657126N00505457WA0137301464
B1400463657124N00505458WA0137301464
B1400473657121N00505458WA0137201462
B1400483657118N00505458WA0136901461
B1400493657115N00505458WA0136701459
B1400503657111N00505459WA0136701458
B1400513657107N00505460WA0136601457
B1400523657103N00505459WA0136601456
B1400533657100N00505458WA0136401455
B1400543657096N00505457WA0136301454
B1400553657092N00505455WA0136001453
B1400563657089N00505455WA0135601450
B1400573657085N00505454WA0135401447
B1400583657081N00505453WA0135301446
B1400593657078N00505452WA0135301446
B1401003657075N00505451WA0135301445
B1401013657072N00505451WA0135201444
B1401023657070N00505451WA0134801442
B1401033657066N00505451WA0134301440
B1401043657062N00505451WA0133901436
B1401053657058N00505450WA0134001434
B1401063657055N00505451WA0134101434
B1401073657052N00505451WA0134201434
B1401083657050N00505451WA0134201433
B1401093657047N00505450WA0134001433
B1401103657044N00505448WA0133701431
B1401113657041N00505446WA0133501429
B1401123657037N00505446WA0133301427
B1401133657033N00505446WA0133301425
B1401143657030N00505446WA0133301424
B1401153657027N00505445WA0133301423
B1401163657024N00505443WA0133101422
B1401173657021N00505442WA0132901420
B1401183657017N00505440WA0132701418
B1401193657014N00505440WA0132601416
B1401203657011N00505439WA0132501415
B1401213657008N00505439WA0132401414
B1401223657005N00505438WA0132401413
B1401233657001N00505438WA0132301411
B1401243656997N00505438WA0132101410
B1401253656993N00505437WA0132101410
B1401263656990N00505436WA0132201411
B1401273656987N00505436WA0132201411
B1401283656984N00505436WA0132101411
B1401293656981N00505436WA0131901410
B1401303656977N00505437WA0131701409
B1401313656974N00505437WA0131701408
B1401323656972N00505437WA0131801408
B1401333656969N00505437WA0131801408
B1401343656966N00505436WA0131501407
B1401353656963N00505435WA0131001404
B1401363656959N00505434WA0131001401
B1401373656955N00505435WA0130801399
B1401383656949N00505436WA0130601396
B1401393656944N00505438WA0130701395
B1401403656939N00505441WA0131101396
B1401413656935N00505441WA0131401400
B1401423656931N00505441WA0131501402
B1401433656928N00505440WA0131701403
B1401443656924N00505438WA0131501403
B1401453656919N00505434WA0131401403
B1401463656915N00505430WA0131601403
B1401473656911N00505427WA0131701405
B1401483656907N00505426WA0131601405
B1401493656903N00505426WA0131401405
B1401503656898N00505426WA0131301403
B1401513656894N00505427WA0131001402
B1401523656889N00505427WA0131001401
B1401533656885N00505427WA0131101401
B1401543656882N00505428WA0131001401
B1401553656878N00505428WA0130901400
B1401563656874N00505429WA0130701398
B1401573656869N00505429WA0130501396
B1401583656865N00505429WA0130401395
B1401593656861N00505427WA0130301395
B1402003656857N00505426WA0130201394
B1402013656853N00505424WA0129901392
B1402023656847N00505423WA0129701389
B1402033656841N00505421WA0129301386
B1402043656835N00505418WA0129101384
B1402053656830N00505416WA0129101383
B1402063656826N00505414WA0129201383
B1402073656824N00505412WA0128901381
B1402083656820N00505411WA0128601378
B1402093656816N00505409WA0128301374
B1402103656810N00505408WA0127801370
B1402113656805N00505406WA0127401367
B1402123656800N00505405WA0127301365
B1402133656795N00505404WA0127101363
B1402143656790N00505403WA0127001362
B1402153656786N00505402WA0126901360
B1402163656782N00505401WA0126801358
B1402173656777N00505401WA0126401356
B1402183656772N00505400WA0126101353
B1402193656769N00505400WA0126001352
B1402203656766N00505400WA0126001351
B1402213656763N00505401WA0125801350
B1402223656760N00505402WA0125501348
B1402233656757N00505404WA0125301346
B1402243656752N00505405WA0125101343
B1402253656749N00505406WA0125001342
B1402263656745N00505405WA0125101340
B1402273656742N00505403WA0125001339
B1402283656739N00505402WA0124801337
B1402293656734N00505402WA0124501334
B1402303656730N00505403WA0124101331
B1402313656725N00505402WA0123701329
B1402323656719N00505401WA0123301326
B1402333656714N00505401WA0123101324
B1402343656710N00505401WA0123001322
B1402353656706N00505401WA0122801320
B1402363656702N00505402WA0122601318
B1402373656698N00505403WA0122301315
B1402383656694N00505403WA0122001312
B1402393656689N00505404WA0121601308
B1402403656684N00505405WA0121101304
B1402413656680N00505407WA0120801301
B1402423656675N00505408WA0120701298
B1402433656670N00505410WA0120501295
B1402443656666N00505412WA0120401292
B1402453656662N00505413WA0120201291
B1402463656658N00505413WA0120101289
B1402473656654N00505413WA0119901288
B1402483656649N00505412WA0119701285
B1402493656645N00505411WA0119401282
B1402503656639N00505411WA0119401280
B1402513656634N00505411WA0119501280
B1402523656630N00505411WA0119501280
B1402533656626N00505411WA0119401280
B1402543656621N00505410WA0119301280
B1402553656615N00505410WA0119101279
B1402563656610N00505409WA0118901277
B1402573656605N00505408WA0118801276
B1402583656601N00505408WA0119001277
B1402593656596N00505409WA0118901277
B1403003656591N00505410WA0118701275
B1403013656586N00505410WA0118401273
B1403023656580N00505408WA0118301271
B1403033656575N00505405WA0118201269
B1403043656571N00505403WA0118401270
B1403053656566N00505401WA0118301269
B1403063656562N00505399WA0118101268
B1403073656556N00505396WA0117901266
B1403083656551N00505394WA0117701265
B1403093656546N00505392WA0117701264
B1403103656541N00505391WA0117801263
B1403113656536N00505390WA0117701263
B1403123656532N00505388WA0117501261
B1403133656526N00505385WA0117301259
B1403143656521N00505382WA0117001257
B1403153656516N00505378WA0117001255
B1403163656512N00505376WA0116901255
B1403173656507N00505374WA0116701254
B1403183656502N00505373WA0116401251
B1403193656497N00505371WA0116001248
B1403203656492N00505369WA0115501245
B1403213656486N00505367WA0115001241
B1403223656480N00505365WA0114601237
B1403233656475N00505364WA0114301233
B1403243656470N00505362WA0113801229
B1403253656466N00505359WA0113301224
B1403263656462N00505356WA0112601219
B1403273656458N00505355WA0112301215
B1403283656454N00505355WA0111801210
B1403293656450N00505355WA0111301205
B1403303656446N00505355WA0110901199
B1403313656442N00505353WA0110301194
B1403323656438N00505351WA0110001190
B1403333656434N00505349WA0109901185
B1403343656431N00505348WA0109701183
B1403353656428N00505347WA0109401180
B1403363656424N00505344WA0109001177
B1403373656420N00505341WA0108701173
B1403383656416N00505339WA0108601171
B1403393656412N00505338WA0108601170
B1403403656409N00505337WA0108501170
B1403413656405N00505336WA0108301168
B1403423656401N00505333WA0107701165
B1403433656397N00505330WA0107601163
B1403443656393N00505329WA0107501161
B1403453656389N00505329WA0107301160
B1403463656386N00505328WA0107201158
B1403473656382N00505327WA0107001156
B1403483656377N00505325WA0106701153
B1403493656372N00505323WA0106401150
B1403503656367N00505320WA0106201147
B1403513656361N00505318WA0106001145
B1403523656356N00505316WA0105901144
B1403533656352N00505314WA0105901143
B1403543656347N00505313WA0105701142
B1403553656342N00505312WA0105501140
B1403563656338N00505310WA0105501138
B1403573656333N00505309WA0105301137
B1403583656329N00505307WA0105101135
B1403593656325N00505306WA0105101134
B1404003656320N00505304WA0104801132
B1404013656316N00505302WA0104501131
B1404023656313N00505300WA0104401129
B1404033656309N00505298WA0104401128
B1404043656306N00505298WA0104301127
B1404053656303N00505297WA0104301127
B1404063656299N00505297WA0104401126
B1404073656296N00505296WA0104301126
B1404083656293N00505294WA0104101124
B1404093656290N00505292WA0103801123
B1404103656287N00505290WA0103301120
B1404113656284N00505288WA0102901117
B1404123656280N00505286WA0102601114
B1404133656277N00505285WA0102701112
B1404143656274N00505285WA0102801112
B1404153656271N00505284WA0102601111
B1404163656270N00505282WA0102401109
B1404173656269N00505279WA0102201107
B1404183656267N00505277WA0102101106
B1404193656266N00505275WA0102001105
B1404203656264N00505274WA0101901104
B1404213656261N00505273WA0101701102
B1404223656259N00505273WA0101401101
B1404233656255N00505274WA0101201099
B1404243656253N00505277WA0100901097
B1404253656250N00505283WA0100601095
B1404263656248N00505288WA0100401093
B1404273656247N00505294WA0100101091
B1404283656246N00505301WA0099801088
B1404293656246N00505307WA0099501086
B1404303656246N00505315WA0099201083
B1404313656246N00505322WA0098901079
B1404323656247N00505330WA0098601076
B1404333656247N00505336WA0098501074
B1404343656247N00505343WA0098201071
B1404353656247N00505350WA0097801068
B1404363656247N00505357WA0097301063
B1404373656246N00505363WA0096901059
B1404383656246N00505370WA0096601055
B1404393656245N00505377WA0096301051
B1404403656246N00505385WA0096201048
B1404413656246N00505394WA0095801045
B1404423656246N00505402WA0095601043
B1404433656247N00505409WA0095501041
B1404443656247N00505416WA0095301039
B1404453656248N00505423WA0095201036
B1404463656248N00505430WA0094801033
B1404473656247N00505436WA0094401030
B1404483656246N00505442WA0094201027
B1404493656246N00505449WA0094101024
B1404503656247N00505456WA0094001024
B1404513656249N00505462WA0094001023
B1404523656251N00505469WA0093701021
B1404533656252N00505475WA0093301018
B1404543656253N00505482WA0093101016
B1404553656255N00505490WA0092701012
B1404563656257N00505498WA0092401009
B1404573656258N00505505WA0092101006
B1404583656258N00505511WA0092101004
B1404593656258N00505517WA0091801002
B1405003656258N00505522WA0091600999
B1405013656258N00505528WA0091100996
B1405023656257N00505535WA0090700992
B1405033656256N00505543WA0090300988
B1405043656255N00505550WA0090100984
B1405053656255N00505557WA0089900981
B1405063656255N00505564WA0089800980
B1405073656255N00505571WA0089700978
B1405083656254N00505577WA0089500976
B1405093656254N00505583WA0089300974
B1405103656253N00505591WA0089200973
B1405113656253N00505597WA0089100975
B1405123656252N00505604WA0089000973
B1405133656252N00505610WA0088700972
B1405143656250N00505616WA0088500970
B1405153656248N00505622WA0088300968
B1405163656246N00505627WA0088200966
B1405173656244N00505632WA0088100964
B1405183656243N00505637WA0088100963
B1405193656242N00505642WA0088000962
B1405203656241N00505649WA0087700960
B1405213656241N00505656WA0087500958
B1405223656240N00505664WA0087400957
B1405233656239N00505670WA0087500956
B1405243656239N00505675WA0087500956
B1405253656239N00505681WA0087200955
B1405263656239N00505688WA0087000953
B1405273656238N00505695WA0086800951
B1405283656237N00505702WA0086600949
B1405293656236N00505708WA0086700948
B1405303656235N00505713WA0086700947
B1405313656234N00505718WA0086600946
B1405323656232N00505723WA0086300945
B1405333656230N00505728WA0086100944
B1405343656227N00505733WA0086000943
B1405353656225N00505737WA0086000942
B1405363656223N00505740WA0086000943
B1405373656221N00505744WA0085900943
B1405383656219N00505748WA0085700943
B1405393656216N00505751WA0085500942
B1405403656213N00505755WA0085300941
B1405413656210N00505758WA0085300940
B1405423656207N00505762WA0085100938
B1405433656203N00505766WA0085100937
B1405443656200N00505770WA0085300936
B1405453656197N00505774WA0085300936
B1405463656194N00505777WA0085300936
B1405473656191N00505781WA0085300936
B1405483656188N00505785WA0085300936
B1405493656185N00505788WA0085300936
B1405503656182N00505791WA0085400936
B1405513656179N00505793WA0085400935
B1405523656176N00505796WA0085400935
B1405533656173N00505798WA0085300934
B1405543656169N00505799WA0085200933
B1405553656167N00505800WA0085300934
B1405563656164N00505802WA0085500935
B1405573656163N00505804WA0085600935
B1405583656160N00505807WA0085500936
B1405593656157N00505809WA0085300935
B1406003656154N00505811WA0085300935
B1406013656151N00505812WA0085500936
B1406023656149N00505812WA0085700937
B1406033656146N00505813WA0085600938
B1406043656144N00505814WA0085400937
B1406053656140N00505815WA0085100937
B1406063656136N00505815WA0085100936
B1406073656133N00505816WA0085200935
B1406083656130N00505816WA0085300935
B1406093656127N00505817WA0085300935
B1406103656124N00505818WA0085300934
B1406113656121N00505819WA0085100933
B1406123656119N00505819WA0084900932
B1406133656116N00505819WA0084900931
B1406143656113N00505820WA0084800929
B1406153656110N00505822WA0084600928
B1406163656106N00505823WA0084400925
B1406173656101N00505822WA0084100923
B1406183656097N00505821WA0084000922
B1406193656094N00505821WA0084100922
B1406203656091N00505822WA0084200922
B1406213656088N00505823WA0084200922
B1406223656085N00505824WA0083900920
B1406233656081N00505824WA0083700917
B1406243656076N00505825WA0083400915
B1406253656072N00505827WA0083400914
B1406263656068N00505828WA0083500913
B1406273656064N00505829WA0083500913
B1406283656061N00505829WA0083400912
B1406293656056N00505829WA0083200910
B1406303656052N00505829WA0082900909
B1406313656046N00505830WA0082700906
B1406323656041N00505831WA0082600904
B1406333656037N00505832WA0082500903
B1406343656032N00505833WA0082500902
B1406353656028N00505833WA0082400902
B1406363656024N00505834WA0082200901
B1406373656020N00505833WA0082000899
B1406383656016N00505833WA0081800897
B1406393656011N00505833WA0081600895
B1406403656006N00505834WA0081400893
B1406413656001N00505834WA0081000891
B1406423655997N00505836WA0081200889
B1406433655993N00505838WA0081200888
B1406443655989N00505840WA0081200887
B1406453655985N00505841WA0081100887
B1406463655981N00505841WA0080900885
B1406473655977N00505840WA0080900884
B1406483655973N00505840WA0080800883
B1406493655970N00505839WA0080600882
B1406503655966N00505839WA0080500882
B1406513655962N00505838WA0080400880
B1406523655957N00505836WA0080300879
B1406533655952N00505834WA0080000878
B1406543655947N00505831WA0080300877
B1406553655944N00505829WA0080600877
B1406563655941N00505827WA0080700877
B1406573655937N00505825WA0080600877
B1406583655932N00505824WA0080400875
B1406593655927N00505823WA0080200875
B1407003655923N00505821WA0080300875
B1407013655920N00505819WA0080600876
B1407023655917N00505820WA0080700877
B1407033655913N00505821WA0080700878
B1407043655909N00505822WA0080600878
B1407053655905N00505823WA0080700879
B1407063655901N00505823WA0080700879
B1407073655897N00505824WA0080700879
B1407083655893N00505824WA0080700880
B1407093655889N00505824WA0080700880
B1407103655886N00505826WA0080800880
B1407113655882N00505827WA0080900881
B1407123655878N00505829WA0081000883
B1407133655874N00505829WA0081200884
B1407143655870N00505828WA0081300885
B1407153655867N00505826WA0081400887
B1407163655865N00505823WA0081600889
B1407173655862N00505821WA0081900892
B1407183655859N00505819WA0082200895
B1407193655857N00505818WA0082200897
B1407203655855N00505816WA0082400898
B1407213655853N00505815WA0082400899
B1407223655851N00505813WA0082400900
B1407233655849N00505812WA0082500901
B1407243655846N00505812WA0082500901
B1407253655843N00505812WA0082500901
B1407263655840N00505811WA0082300901
B1407273655838N00505809WA0082200900
B1407283655836N00505806WA0082200899
B1407293655834N00505803WA0082100899
B1407303655832N00505800WA0082200898
B1407313655830N00505798WA0082300899
B1407323655828N00505797WA0082500901
B1407333655826N00505797WA0082600902
B1407343655824N00505797WA0082800904
B1407353655821N00505797WA0082800905
B1407363655818N00505796WA0082800905
B1407373655815N00505795WA0082800905
B1407383655812N00505793WA0082800905
B1407393655808N00505790WA0082800905
B1407403655805N00505786WA0082800905
B1407413655802N00505784WA0082800905
B1407423655799N00505781WA0082700905
B1407433655795N00505778WA0082500903
B1407443655791N00505774WA0082400902
B1407453655786N00505771WA0082100901
B1407463655782N00505770WA0082000900
B1407473655778N00505771WA0082000898
B1407483655773N00505772WA0081900897
B1407493655769N00505772WA0081600895
B1407503655764N00505772WA0081500893
B1407513655759N00505773WA0081400891
B1407523655756N00505774WA0081400891
B1407533655753N00505776WA0081400891
B1407543655750N00505780WA0081400890
B1407553655748N00505784WA0081300889
B1407563655745N00505788WA0081100888
B1407573655743N00505792WA0080900887
B1407583655740N00505796WA0080700885
B1407593655736N00505799WA0080500883
B1408003655733N00505800WA0080400882
B1408013655730N00505800WA0080300881
B1408023655727N00505799WA0080400882
B1408033655725N00505796WA0080500881
B1408043655723N00505793WA0080500882
B1408053655722N00505789WA0080300879
B1408063655722N00505786WA0080200878
B1408073655721N00505783WA0079900877
B1408083655718N00505781WA0079800876
B1408093655716N00505781WA0079500875
B1408103655712N00505782WA0079400873
B1408113655709N00505784WA0079400872
B1408123655705N00505786WA0079400871
B1408133655702N00505790WA0079500871
B1408143655698N00505793WA0079500871
B1408153655694N00505795WA0079500872
B1408163655692N00505796WA0079600871
B1408173655690N00505795WA0079400870
B1408183655687N00505793WA0079200869
B1408193655684N00505792WA0079000867
B1408203655680N00505793WA0078900867
B1408213655676N00505795WA0078900866
B1408223655672N00505799WA0078800865
B1408233655668N00505805WA0078600863
B1408243655665N00505811WA0078200861
B1408253655661N00505817WA0078100860
B1408263655657N00505823WA0078000858
B1408273655653N00505829WA0077900857
B1408283655650N00505835WA0077800855
B1408293655647N00505843WA0077800854
B1408303655647N00505850WA0077800853
B1408313655647N00505857WA0077500852
B1408323655647N00505865WA0077200849
B1408333655646N00505873WA0077000845
B1408343655644N00505881WA0076700841
B1408353655641N00505888WA0076300839
B1408363655638N00505894WA0076200837
B1408373655636N00505900WA0076000835
B1408383655633N00505906WA0075700832
B1408393655630N00505912WA0075400830
B1408403655628N00505919WA0075200828
B1408413655625N00505925WA0075100825
B1408423655622N00505930WA0074800823
B1408433655619N00505935WA0074600820
B1408443655615N00505939WA0074200818
B1408453655612N00505943WA0074000816
B1408463655609N00505946WA0073700814
B1408473655605N00505949WA0073500811
B1408483655601N00505952WA0073200808
B1408493655597N00505953WA0072900805
B1408503655593N00505955WA0072600802
B1408513655588N00505957WA0072200799
B1408523655585N00505960WA0072100796
B1408533655581N00505965WA0071800794
B1408543655579N00505972WA0071400790
B1408553655577N00505981WA0071100787
B1408563655576N00505990WA0070800784
B1408573655576N00506000WA0070600782
B1408583655577N00506010WA0070400779
B1408593655578N00506020WA0070400778
B1409003655579N00506031WA0070300776
B1409013655580N00506041WA0070200775
B1409023655581N00506050WA0070000773
B1409033655582N00506060WA0069900772
B1409043655584N00506070WA0069800771
B1409053655585N00506080WA0069700770
B1409063655586N00506091WA0069900769
B1409073655587N00506101WA0070100769
B1409083655588N00506110WA0070200771
B1409093655589N00506119WA0070400773
B1409103655591N00506128WA0070400774
B1409113655595N00506135WA0070400774
B1409123655599N00506139WA0070200773
B1409133655605N00506141WA0070000771
B1409143655610N00506140WA0069800770
B1409153655614N00506139WA0069900770
B1409163655617N00506138WA0070100770
B1409173655619N00506137WA0070200770
B1409183655621N00506135WA0070300771
B1409193655623N00506133WA0070200771
B1409203655625N00506130WA0070100771
B1409213655627N00506127WA0069800770
B1409223655630N00506124WA0069800770
B1409233655631N00506121WA0070000769
B1409243655633N00506117WA0070100770
B1409253655633N00506115WA0070000771
B1409263655634N00506114WA0070000771
B1409273655635N00506112WA0069800771
B1409283655636N00506108WA0069600770
B1409293655637N00506105WA0069300769
B1409303655637N00506101WA0069300768
B1409313655636N00506099WA0069400768
B1409323655635N00506097WA0069400768
B1409333655635N00506096WA0069300767
B1409343655634N00506093WA0069000766
B1409353655635N00506090WA0068800763
B1409363655635N00506087WA0068600761
B1409373655635N00506084WA0068200758
B1409383655634N00506082WA0068000756
B1409393655632N00506080WA0068000754
B1409403655630N00506078WA0067700753
B1409413655629N00506076WA0067500751
B1409423655628N00506072WA0067400749
B1409433655628N00506068WA0067300748
B1409443655629N00506064WA0067200747
B1409453655632N00506062WA0067400748
B1409463655634N00506060WA0067700749
B1409473655637N00506060WA0067800750
B1409483655640N00506059WA0067800751
B1409493655644N00506057WA0067500750
B1409503655648N00506055WA0067400748
B1409513655652N00506054WA0067200747
B1409523655655N00506053WA0067400747
B1409533655659N00506053WA0067400747
B1409543655662N00506053WA0067200746
B1409553655666N00506052WA0067100745
B1409563655670N00506050WA0066900743
B1409573655675N00506048WA0066700742
B1409583655679N00506047WA0066700741
B1409593655683N00506047WA0066800741
B1410003655686N00506046WA0066700741
B1410013655689N00506044WA0066400739
B1410023655692N00506040WA0066200737
B1410033655693N00506036WA0065900735
B1410043655692N00506032WA0065800733
B1410053655691N00506028WA0065900734
B1410063655690N00506027WA0066100737
B1410073655690N00506025WA0066200737
B1410083655690N00506023WA0066200738
B1410093655690N00506021WA0066200737
B1410103655690N00506019WA0066200737
B1410113655691N00506017WA0066200737
B1410123655694N00506015WA0066200737
B1410133655698N00506014WA0066200736
B1410143655703N00506015WA0066100735
B1410153655709N00506017WA0065900734
B1410163655714N00506018WA0065800733
B1410173655718N00506018WA0065700732
B1410183655722N00506016WA0065600731
B1410193655724N00506012WA0065500730
B1410203655726N00506009WA0065400729
B1410213655726N00506005WA0065500729
B1410223655726N00506003WA0065400729
B1410233655726N00506000WA0065300729
B1410243655725N00505997WA0065300728
B1410253655722N00505995WA0064900726
B1410263655718N00505994WA0064900725
B1410273655714N00505994WA0064900724
B1410283655710N00505995WA0065000724
B1410293655706N00505996WA0065100725
B1410303655703N00505997WA0065000725
B1410313655700N00505997WA0064800724
B1410323655696N00505998WA0064400723
B1410333655691N00505999WA0064200724
B1410343655686N00505999WA0064300723
B1410353655682N00505999WA0064400723
B1410363655679N00505999WA0064500723
B1410373655677N00505998WA0064600724
B1410383655676N00505997WA0064500723
B1410393655674N00505996WA0064300721
B1410403655671N00505995WA0064300720
B1410413655668N00505994WA0064400719
B1410423655665N00505993WA0064500719
B1410433655662N00505993WA0064700719
B1410443655659N00505994WA0064600719
B1410453655656N00505994WA0064600719
B1410463655653N00505993WA0064300717
B1410473655650N00505991WA0064000715
B1410483655646N00505990WA0063900714
B1410493655642N00505990WA0064000714
B1410503655638N00505991WA0064100715
B1410513655635N00505993WA0064100716
B1410523655631N00505994WA0064000715
B1410533655627N00505995WA0063700714
B1410543655622N00505996WA0063600713
B1410553655618N00505998WA0063600713
B1410563655615N00506001WA0063800713
B1410573655612N00506003WA0063600713
B1410583655609N00506005WA0063300712
B1410593655604N00506007WA0062800709
B1411003655598N00506007WA0062600706
B1411013655592N00506008WA0062600704
B1411023655587N00506010WA0062900704
B1411033655583N00506014WA0063100704
B1411043655580N00506017WA0063200705
B1411053655575N00506021WA0063100705
B1411063655570N00506023WA0062900704
B1411073655565N00506025WA0062700702
B1411083655560N00506026WA0062700702
B1411093655555N00506027WA0062800702
B1411103655552N00506028WA0062700701
B1411113655547N00506031WA0062600701
B1411123655542N00506033WA0062400698
B1411133655536N00506037WA0062200696
B1411143655530N00506042WA0062100694
B1411153655525N00506047WA0062200693
B1411163655520N00506053WA0062200693
B1411173655516N00506058WA0062000692
B1411183655511N00506064WA0061800691
B1411193655505N00506070WA0061500688
B1411203655500N00506078WA0061300686
B1411213655495N00506086WA0061100684
B1411223655490N00506093WA0061000682
B1411233655484N00506100WA0061000681
B1411243655478N00506106WA0060900680
B1411253655472N00506112WA0061000680
B1411263655468N00506118WA0061000681
B1411273655463N00506125WA0060900680
B1411283655457N00506131WA0060600678
B1411293655451N00506138WA0060400676
B1411303655445N00506145WA0060400675
B1411313655440N00506151WA0060600675
B1411323655435N00506156WA0060600675
B1411333655430N00506160WA0060400674
B1411343655424N00506165WA0060300673
B1411353655418N00506170WA0060000671
B1411363655412N00506175WA0059800668
B1411373655406N00506181WA0059700667
B1411383655399N00506185WA0059700666
B1411393655394N00506188WA0059600665
B1411403655388N00506190WA0059400664
B1411413655384N00506189WA0059100662
B1411423655380N00506186WA0058800659
B1411433655376N00506181WA0058400656
B1411443655374N00506177WA0058400654
B1411453655373N00506174WA0058600654
B1411463655372N00506172WA0058700654
B1411473655370N00506171WA0058600653
B1411483655369N00506170WA0058400652
B1411493655368N00506168WA0058200650
B1411503655367N00506166WA0058000648
B1411513655368N00506165WA0058000647
B1411523655368N00506165WA0058100651
B1411533655368N00506165WA0058100650
B1411543655368N00506166WA0058100650
B1411553655368N00506166WA0058100650
B1411563655367N00506167WA0058100650
B1411573655367N00506166WA0058100650
B1411583655367N00506167WA0058100650
B1411593655368N00506167WA0058100650
B1412003655367N00506167WA0058100650
B1412013655367N00506167WA0058100650
B1412023655369N00506167WA0058100650
B1412033655369N00506167WA0058100650
B1412043655369N00506167WA0058100650
B1412053655369N00506167WA0058100650
B1412063655369N00506167WA0058100650
B1412073655368N00506167WA0058100650
B1412083655368N00506167WA0058100650
B1412093655368N00506167WA0058100650
B1412103655368N00506167WA0058100650
B1412113655367N00506167WA0058100650
B1412123655367N00506167WA0058100650
B1412133655368N00506167WA0058100650
B1412143655368N00506167WA0058100650
B1412153655368N00506167WA0058100650
B1412163655368N00506168WA0058100650
B1412173655368N00506168WA0058100650
B1412183655368N00506168WA0058100650
B1412193655367N00506165WA0058000650
B1412203655367N00506165WA0058100651
B1412213655367N00506166WA0058100651
B1412223655367N00506166WA0058100651
B1412233655367N00506166WA0058100651
B1412243655366N00506166WA0058100651
LXGD GpsDump version 4.60
LXGD Downloaded 2012-02-29  17:45:06
GFF8E0BBCE44264E1
